Time,TemperatureF,DewpointF,PressureIn,WindDirection,WindDirectionDegrees,WindSpeedMPH,WindSpeedGustMPH,Humidity,HourlyPrecipIn,Conditions,Clouds,dailyrainin,SolarRadiationWatts/m^2,SoftwareType,DateUTC
2013-08-28 00:00:00,79.7,71.7,29.38,NE,49,14.2,19.0,76,-99.99,,,0.00,0,rob ver 1B,2013-08-28 07:00:00,
2013-08-28 00:01:00,90.4,66.6,29.21,SSW,194,4.4,4.9,45,-99.99,,,0.00,0,rob ver 1A,2013-08-28 07:01:00,
2013-08-28 00:02:00,79.6,71.8,29.38,NE,44,12.8,16.2,76,-99.99,,,0.00,0,rob ver 1B,2013-08-28 07:02:00,
2013-08-28 00:03:00,79.5,71.7,29.38,NE,46,12.8,18.5,78,-99.99,,,0.00,0,rob ver 1B,2013-08-28 07:03:00,
2013-08-28 00:04:00,79.5,72.0,29.38,NE,47,10.8,14.7,78,-99.99,,,0.00,0,rob ver 1B,2013-08-28 07:04:00,
2013-08-28 00:05:00,79.4,71.9,29.38,NE,54,11.1,13.1,78,-99.99,,,0.00,0,rob ver 1B,2013-08-28 07:05:00,
2013-08-28 00:06:00,90.4,66.7,29.21,SSW,194,2.5,2.9,45,-99.99,,,0.00,0,rob ver 1A,2013-08-28 07:06:00,
2013-08-28 00:07:00,79.3,72.0,29.38,NE,51,11.2,14.8,78,-99.99,,,0.00,0,rob ver 1B,2013-08-28 07:07:00,
2013-08-28 00:08:00,79.3,72.0,29.38,NE,54,10.6,12.8,78,-99.99,,,0.00,0,rob ver 1B,2013-08-28 07:08:00,
2013-08-28 00:09:00,79.4,72.0,29.38,NE,52,10.4,13.8,77,-99.99,,,0.00,0,rob ver 1B,2013-08-28 07:09:00,
2013-08-28 00:10:00,79.4,71.7,29.38,NE,54,12.9,16.0,77,-99.99,,,0.00,0,rob ver 1B,2013-08-28 07:10:00,
2013-08-28 00:11:00,90.2,66.6,29.21,SW,214,3.9,4.8,45,-99.99,,,0.00,0,rob ver 1A,2013-08-28 07:11:00,
2013-08-28 00:12:00,79.5,71.8,29.38,NE,53,10.3,13.6,77,-99.99,,,0.00,0,rob ver 1B,2013-08-28 07:12:00,
2013-08-28 00:13:00,79.6,71.9,29.38,NE,55,9.9,12.9,77,-99.99,,,0.00,0,rob ver 1B,2013-08-28 07:13:00,
2013-08-28 00:14:00,79.6,71.7,29.38,NE,50,11.1,14.0,76,-99.99,,,0.00,0,rob ver 1B,2013-08-28 07:14:00,
2013-08-28 00:15:00,79.6,71.7,29.38,NE,50,10.6,13.8,76,-99.99,,,0.00,0,rob ver 1B,2013-08-28 07:15:00,
2013-08-28 00:16:00,90.2,66.4,29.21,SW,218,4.5,5.4,45,-99.99,,,0.00,0,rob ver 1A,2013-08-28 07:16:00,
2013-08-28 00:17:00,79.7,71.7,29.38,NE,44,11.1,13.6,76,-99.99,,,0.00,0,rob ver 1B,2013-08-28 07:17:00,
2013-08-28 00:18:00,79.8,71.8,29.38,NE,43,10.5,13.8,76,-99.99,,,0.00,0,rob ver 1B,2013-08-28 07:18:00,
2013-08-28 00:19:00,79.8,71.7,29.38,NE,44,9.9,12.4,76,-99.99,,,0.00,0,rob ver 1B,2013-08-28 07:19:00,
2013-08-28 00:20:00,79.9,71.8,29.38,NE,38,9.9,12.2,76,-99.99,,,0.00,0,rob ver 1B,2013-08-28 07:20:00,
2013-08-28 00:21:00,90.2,66.2,29.21,SW,215,5.9,6.9,45,-99.99,,,0.00,0,rob ver 1A,2013-08-28 07:21:00,
2013-08-28 00:22:00,80.0,72.0,29.38,NE,41,8.8,11.3,76,-99.99,,,0.00,0,rob ver 1B,2013-08-28 07:22:00,
2013-08-28 00:23:00,80.0,71.8,29.38,NE,43,9.6,12.8,75,-99.99,,,0.00,0,rob ver 1B,2013-08-28 07:23:00,
2013-08-28 00:24:00,80.1,71.7,29.38,NE,46,9.2,13.0,75,-99.99,,,0.00,0,rob ver 1B,2013-08-28 07:24:00,
2013-08-28 00:25:00,80.1,71.7,29.38,NE,49,7.6,10.0,75,-99.99,,,0.00,0,rob ver 1B,2013-08-28 07:25:00,
2013-08-28 00:26:00,90.1,66.0,29.21,SW,220,4.6,5.9,45,-99.99,,,0.00,0,rob ver 1A,2013-08-28 07:26:00,
2013-08-28 00:27:00,80.2,71.7,29.38,NE,54,7.0,9.9,75,-99.99,,,0.00,0,rob ver 1B,2013-08-28 07:27:00,
2013-08-28 00:28:00,80.2,71.7,29.38,NE,51,7.5,10.1,75,-99.99,,,0.00,0,rob ver 1B,2013-08-28 07:28:00,
2013-08-28 00:29:00,80.3,71.8,29.38,NE,55,6.5,8.0,75,-99.99,,,0.00,0,rob ver 1B,2013-08-28 07:29:00,
2013-08-28 00:30:00,80.3,71.9,29.38,ENE,57,6.1,8.6,75,-99.99,,,0.00,0,rob ver 1B,2013-08-28 07:30:00,
2013-08-28 00:31:00,80.3,71.9,29.38,ENE,58,6.2,8.7,74,-99.99,,,0.00,0,rob ver 1B,2013-08-28 07:31:00,
2013-08-28 00:32:00,90.3,65.7,29.21,SW,223,6.0,6.8,44,-99.99,,,0.00,0,rob ver 1A,2013-08-28 07:32:00,
2013-08-28 00:33:00,80.3,71.9,29.38,ENE,64,5.8,8.3,75,-99.99,,,0.00,0,rob ver 1B,2013-08-28 07:33:00,
2013-08-28 00:34:00,80.4,71.8,29.38,ENE,64,6.2,8.9,75,-99.99,,,0.00,0,rob ver 1B,2013-08-28 07:34:00,
2013-08-28 00:35:00,80.4,71.8,29.38,ENE,65,5.9,8.4,75,-99.99,,,0.00,0,rob ver 1B,2013-08-28 07:35:00,
2013-08-28 00:36:00,80.5,71.9,29.38,ENE,68,5.7,8.7,74,-99.99,,,0.00,0,rob ver 1B,2013-08-28 07:36:00,
2013-08-28 00:37:00,90.3,65.7,29.21,SW,225,6.3,7.7,44,-99.99,,,0.00,0,rob ver 1A,2013-08-28 07:37:00,
2013-08-28 00:38:00,80.5,71.7,29.38,ENE,76,6.4,7.9,74,-99.99,,,0.00,0,rob ver 1B,2013-08-28 07:38:00,
2013-08-28 00:39:00,80.6,71.8,29.38,East,79,7.0,9.8,74,-99.99,,,0.00,0,rob ver 1B,2013-08-28 07:39:00,
2013-08-28 00:40:00,80.5,71.5,29.38,East,80,8.9,11.2,73,-99.99,,,0.00,0,rob ver 1B,2013-08-28 07:40:00,
2013-08-28 00:41:00,80.6,71.4,29.38,East,84,9.2,12.1,72,-99.99,,,0.00,0,rob ver 1B,2013-08-28 07:41:00,
2013-08-28 00:42:00,90.2,65.7,29.21,SW,231,5.0,6.6,44,-99.99,,,0.00,0,rob ver 1A,2013-08-28 07:42:00,
2013-08-28 00:43:00,80.7,71.5,29.38,East,88,9.0,11.9,73,-99.99,,,0.00,0,rob ver 1B,2013-08-28 07:43:00,
2013-08-28 00:44:00,80.7,71.5,29.38,East,88,8.9,11.5,73,-99.99,,,0.00,0,rob ver 1B,2013-08-28 07:44:00,
2013-08-28 00:45:00,80.6,71.4,29.38,East,88,9.5,12.5,73,-99.99,,,0.00,0,rob ver 1B,2013-08-28 07:45:00,
2013-08-28 00:46:00,80.7,71.6,29.38,East,89,7.7,9.9,73,-99.99,,,0.00,0,rob ver 1B,2013-08-28 07:46:00,
2013-08-28 00:47:00,89.9,65.7,29.21,SW,233,3.6,5.0,44,-99.99,,,0.00,0,rob ver 1A,2013-08-28 07:47:00,
2013-08-28 00:48:00,80.6,71.5,29.38,East,87,8.4,10.1,73,-99.99,,,0.00,0,rob ver 1B,2013-08-28 07:48:00,
2013-08-28 00:49:00,89.9,65.7,29.21,SW,232,3.3,4.1,44,-99.99,,,0.00,0,rob ver 1A,2013-08-28 07:49:00,
2013-08-28 00:50:00,80.7,71.3,29.38,East,92,8.1,9.5,72,-99.99,,,0.00,0,rob ver 1B,2013-08-28 07:50:00,
2013-08-28 00:51:00,80.7,71.4,29.38,East,91,7.8,10.5,72,-99.99,,,0.00,0,rob ver 1B,2013-08-28 07:51:00,
2013-08-28 00:52:00,80.8,71.2,29.38,East,86,7.9,10.1,72,-99.99,,,0.00,0,rob ver 1B,2013-08-28 07:52:00,
2013-08-28 00:53:00,80.9,71.0,29.38,East,85,8.1,11.6,71,-99.99,,,0.00,0,rob ver 1B,2013-08-28 07:53:00,
2013-08-28 00:54:00,89.9,65.7,29.21,SW,218,3.5,4.2,45,-99.99,,,0.00,0,rob ver 1A,2013-08-28 07:54:00,
2013-08-28 00:55:00,81.0,71.2,29.38,East,99,6.6,8.1,72,-99.99,,,0.00,0,rob ver 1B,2013-08-28 07:55:00,
2013-08-28 00:56:00,81.0,71.2,29.38,East,94,7.0,9.1,72,-99.99,,,0.00,0,rob ver 1B,2013-08-28 07:56:00,
2013-08-28 00:57:00,81.0,70.9,29.38,East,87,7.6,10.2,70,-99.99,,,0.00,0,rob ver 1B,2013-08-28 07:57:00,
2013-08-28 00:58:00,81.1,70.6,29.38,East,90,9.4,11.7,69,-99.99,,,0.00,0,rob ver 1B,2013-08-28 07:58:00,
2013-08-28 00:59:00,89.7,65.6,29.21,SW,215,3.2,3.6,45,-99.99,,,0.00,0,rob ver 1A,2013-08-28 07:59:00,
2013-08-28 01:00:00,81.3,70.3,29.38,East,95,9.0,11.3,70,-99.99,,,0.00,0,rob ver 1B,2013-08-28 08:00:00,
2013-08-28 01:01:00,81.3,70.1,29.38,East,90,10.0,12.9,69,-99.99,,,0.00,0,rob ver 1B,2013-08-28 08:01:00,
2013-08-28 01:02:00,81.3,69.8,29.38,East,89,11.6,14.5,67,-99.99,,,0.00,0,rob ver 1B,2013-08-28 08:02:00,
2013-08-28 01:03:00,81.4,69.7,29.38,East,88,11.5,14.3,67,-99.99,,,0.00,0,rob ver 1B,2013-08-28 08:03:00,
2013-08-28 01:04:00,89.7,65.5,29.21,SW,214,2.9,3.4,44,-99.99,,,0.00,0,rob ver 1A,2013-08-28 08:04:00,
2013-08-28 01:05:00,81.4,70.2,29.38,East,90,8.5,10.9,69,-99.99,,,0.00,0,rob ver 1B,2013-08-28 08:05:00,
2013-08-28 01:06:00,81.3,70.1,29.38,East,84,9.7,12.8,68,-99.99,,,0.00,0,rob ver 1B,2013-08-28 08:06:00,
2013-08-28 01:07:00,81.2,69.9,29.38,East,86,10.0,12.8,68,-99.99,,,0.00,0,rob ver 1B,2013-08-28 08:07:00,
2013-08-28 01:08:00,81.2,70.2,29.38,East,85,8.8,13.2,68,-99.99,,,0.00,0,rob ver 1B,2013-08-28 08:08:00,
2013-08-28 01:09:00,89.6,65.5,29.21,SSW,203,2.6,2.9,45,-99.99,,,0.00,0,rob ver 1A,2013-08-28 08:09:00,
2013-08-28 01:10:00,81.2,70.1,29.38,East,89,10.7,13.2,69,-99.99,,,0.00,0,rob ver 1B,2013-08-28 08:10:00,
2013-08-28 01:11:00,81.2,70.1,29.38,East,90,10.5,13.6,69,-99.99,,,0.00,0,rob ver 1B,2013-08-28 08:11:00,
2013-08-28 01:12:00,81.2,70.2,29.38,East,90,10.2,13.4,69,-99.99,,,0.00,0,rob ver 1B,2013-08-28 08:12:00,
2013-08-28 01:13:00,81.1,69.9,29.38,East,89,11.5,13.6,68,-99.99,,,0.00,0,rob ver 1B,2013-08-28 08:13:00,
2013-08-28 01:14:00,89.5,65.6,29.21,South,181,3.0,3.3,45,-99.99,,,0.00,0,rob ver 1A,2013-08-28 08:14:00,
2013-08-28 01:15:00,81.2,70.0,29.38,East,92,11.2,13.1,68,-99.99,,,0.00,0,rob ver 1B,2013-08-28 08:15:00,
2013-08-28 01:16:00,81.2,69.9,29.38,East,94,11.0,13.5,68,-99.99,,,0.00,0,rob ver 1B,2013-08-28 08:16:00,
2013-08-28 01:17:00,81.2,70.1,29.38,East,97,10.6,13.5,68,-99.99,,,0.00,0,rob ver 1B,2013-08-28 08:17:00,
2013-08-28 01:18:00,81.2,69.9,29.38,East,98,12.4,15.0,68,-99.99,,,0.00,0,rob ver 1B,2013-08-28 08:18:00,
2013-08-28 01:19:00,89.2,65.9,29.21,SSE,157,2.7,3.0,46,-99.99,,,0.00,0,rob ver 1A,2013-08-28 08:19:00,
2013-08-28 01:20:00,81.2,70.0,29.38,East,96,10.9,14.3,68,-99.99,,,0.00,0,rob ver 1B,2013-08-28 08:20:00,
2013-08-28 01:21:00,81.2,69.9,29.38,East,97,10.4,12.9,68,-99.99,,,0.00,0,rob ver 1B,2013-08-28 08:21:00,
2013-08-28 01:22:00,81.2,69.7,29.38,East,101,11.5,13.6,67,-99.99,,,0.00,0,rob ver 1B,2013-08-28 08:22:00,
2013-08-28 01:23:00,81.3,69.8,29.38,ESE,108,10.5,13.3,68,-99.99,,,0.00,0,rob ver 1B,2013-08-28 08:23:00,
2013-08-28 01:24:00,88.7,66.4,29.21,SSE,158,2.4,2.8,47,-99.99,,,0.00,0,rob ver 1A,2013-08-28 08:24:00,
2013-08-28 01:25:00,81.3,69.7,29.38,ESE,111,10.8,13.4,67,-99.99,,,0.00,0,rob ver 1B,2013-08-28 08:25:00,
2013-08-28 01:26:00,81.3,69.9,29.38,ESE,118,9.3,10.9,68,-99.99,,,0.00,0,rob ver 1B,2013-08-28 08:26:00,
2013-08-28 01:27:00,81.3,69.8,29.38,ESE,120,11.5,14.6,67,-99.99,,,0.00,0,rob ver 1B,2013-08-28 08:27:00,
2013-08-28 01:28:00,81.3,70.0,29.38,SE,127,10.7,12.4,68,-99.99,,,0.00,0,rob ver 1B,2013-08-28 08:28:00,
2013-08-28 01:29:00,81.3,70.1,29.38,SE,133,11.1,13.2,69,-99.99,,,0.00,0,rob ver 1B,2013-08-28 08:29:00,
2013-08-28 01:30:00,88.4,66.5,29.21,South,181,3.1,4.0,48,-99.99,,,0.00,0,rob ver 1A,2013-08-28 08:30:00,
2013-08-28 01:31:00,81.1,69.3,29.38,SE,135,17.3,23.5,66,-99.99,,,0.00,0,rob ver 1B,2013-08-28 08:31:00,
2013-08-28 01:32:00,80.5,68.9,29.38,SE,140,18.7,24.1,68,-99.99,,,0.00,0,rob ver 1B,2013-08-28 08:32:00,
2013-08-28 01:33:00,79.7,68.6,29.38,SE,137,18.3,22.5,70,-99.99,,,0.00,0,rob ver 1B,2013-08-28 08:33:00,
2013-08-28 01:34:00,78.8,68.9,29.38,SE,132,16.8,21.4,72,-99.99,,,0.00,0,rob ver 1B,2013-08-28 08:34:00,
2013-08-28 01:35:00,88.3,66.3,29.21,SSW,198,2.5,3.6,48,-99.99,,,0.00,0,rob ver 1A,2013-08-28 08:35:00,
2013-08-28 01:36:00,77.7,69.3,29.38,SE,136,15.5,21.6,75,-99.99,,,0.00,0,rob ver 1B,2013-08-28 08:36:00,
2013-08-28 01:37:00,77.3,69.6,29.38,SE,136,17.1,20.7,77,-99.99,,,0.00,0,rob ver 1B,2013-08-28 08:37:00,
2013-08-28 01:38:00,76.9,69.8,29.38,SE,138,16.3,20.5,79,-99.99,,,0.00,0,rob ver 1B,2013-08-28 08:38:00,
2013-08-28 01:39:00,76.5,69.9,29.38,SE,138,16.0,20.1,80,-99.99,,,0.00,0,rob ver 1B,2013-08-28 08:39:00,
2013-08-28 01:40:00,88.3,66.2,29.21,SW,234,1.3,1.9,47,-99.99,,,0.00,0,rob ver 1A,2013-08-28 08:40:00,
2013-08-28 01:41:00,76.0,70.2,29.38,SE,137,15.6,18.4,82,-99.99,,,0.00,0,rob ver 1B,2013-08-28 08:41:00,
2013-08-28 01:42:00,75.8,70.3,29.38,SE,142,15.4,19.3,83,-99.99,,,0.00,0,rob ver 1B,2013-08-28 08:42:00,
2013-08-28 01:43:00,75.6,70.2,29.38,SE,140,16.0,19.3,83,-99.99,,,0.00,0,rob ver 1B,2013-08-28 08:43:00,
2013-08-28 01:44:00,75.5,70.2,29.38,SE,140,14.6,17.8,83,-99.99,,,0.00,0,rob ver 1B,2013-08-28 08:44:00,
2013-08-28 01:45:00,88.6,65.4,29.21,WSW,250,2.5,2.9,46,-99.99,,,0.00,0,rob ver 1A,2013-08-28 08:45:00,
2013-08-28 01:46:00,75.3,69.9,29.38,SE,136,15.0,16.9,83,-99.99,,,0.00,0,rob ver 1B,2013-08-28 08:46:00,
2013-08-28 01:47:00,75.3,70.0,29.38,SE,133,14.3,19.1,83,-99.99,,,0.00,0,rob ver 1B,2013-08-28 08:47:00,
2013-08-28 01:48:00,75.4,70.0,29.35,SE,136,15.2,19.7,83,-99.99,,,0.00,0,rob ver 1B,2013-08-28 08:48:00,
2013-08-28 01:49:00,75.5,70.1,29.35,SE,139,16.3,20.2,83,-99.99,,,0.00,0,rob ver 1B,2013-08-28 08:49:00,
2013-08-28 01:50:00,88.7,65.3,29.21,West,263,2.4,2.9,46,-99.99,,,0.00,0,rob ver 1A,2013-08-28 08:50:00,
2013-08-28 01:51:00,75.5,70.2,29.35,SE,146,14.9,17.7,83,-99.99,,,0.00,0,rob ver 1B,2013-08-28 08:51:00,
2013-08-28 01:52:00,75.5,70.1,29.35,SE,144,15.8,18.8,83,-99.99,,,0.00,0,rob ver 1B,2013-08-28 08:52:00,
2013-08-28 01:53:00,75.5,70.2,29.35,SE,140,14.3,17.8,83,-99.99,,,0.00,0,rob ver 1B,2013-08-28 08:53:00,
2013-08-28 01:54:00,75.5,70.3,29.35,SE,138,12.0,14.4,84,-99.99,,,0.00,0,rob ver 1B,2013-08-28 08:54:00,
2013-08-28 01:55:00,88.6,65.4,29.21,WNW,294,2.2,2.4,46,-99.99,,,0.00,0,rob ver 1A,2013-08-28 08:55:00,
2013-08-28 01:56:00,75.5,70.4,29.35,SE,138,10.5,14.0,84,-99.99,,,0.00,0,rob ver 1B,2013-08-28 08:56:00,
2013-08-28 01:57:00,75.5,70.5,29.35,SE,134,10.5,12.3,84,-99.99,,,0.00,0,rob ver 1B,2013-08-28 08:57:00,
2013-08-28 01:58:00,75.5,70.4,29.35,SE,125,9.8,11.6,84,-99.99,,,0.00,0,rob ver 1B,2013-08-28 08:58:00,
2013-08-28 01:59:00,75.6,70.6,29.35,SE,128,9.6,13.1,84,-99.99,,,0.00,0,rob ver 1B,2013-08-28 08:59:00,
2013-08-28 02:00:00,88.4,65.6,29.21,NW,311,0.9,1.3,46,-99.99,,,0.00,0,rob ver 1A,2013-08-28 09:00:00,
2013-08-28 02:01:00,75.6,70.5,29.35,ESE,122,9.6,12.4,84,-99.99,,,0.00,0,rob ver 1B,2013-08-28 09:01:00,
2013-08-28 02:02:00,75.6,70.5,29.35,ESE,119,8.3,11.0,84,-99.99,,,0.00,0,rob ver 1B,2013-08-28 09:02:00,
2013-08-28 02:03:00,75.6,70.5,29.35,ESE,114,9.8,12.4,84,-99.99,,,0.00,0,rob ver 1B,2013-08-28 09:03:00,
2013-08-28 02:04:00,75.6,70.5,29.38,ESE,118,8.4,10.6,84,-99.99,,,0.00,0,rob ver 1B,2013-08-28 09:04:00,
2013-08-28 02:05:00,88.2,65.6,29.21,NNW,346,1.3,1.5,47,-99.99,,,0.00,0,rob ver 1A,2013-08-28 09:05:00,
2013-08-28 02:06:00,75.6,70.4,29.35,East,100,8.2,9.9,83,-99.99,,,0.00,0,rob ver 1B,2013-08-28 09:06:00,
2013-08-28 02:07:00,75.7,70.5,29.38,East,95,7.6,9.6,83,-99.99,,,0.00,0,rob ver 1B,2013-08-28 09:07:00,
2013-08-28 02:08:00,75.7,70.5,29.38,East,91,6.9,9.0,84,-99.99,,,0.00,0,rob ver 1B,2013-08-28 09:08:00,
2013-08-28 02:09:00,75.8,70.6,29.38,East,91,6.1,7.7,84,-99.99,,,0.00,0,rob ver 1B,2013-08-28 09:09:00,
2013-08-28 02:10:00,75.8,70.7,29.35,East,86,6.2,7.9,84,-99.99,,,0.00,0,rob ver 1B,2013-08-28 09:10:00,
2013-08-28 02:11:00,88.0,65.7,29.21,NNW,339,1.7,2.0,47,-99.99,,,0.00,0,rob ver 1A,2013-08-28 09:11:00,
2013-08-28 02:12:00,75.9,70.6,29.38,East,95,7.3,8.9,83,-99.99,,,0.00,0,rob ver 1B,2013-08-28 09:12:00,
2013-08-28 02:13:00,76.0,70.7,29.38,East,98,8.0,9.4,83,-99.99,,,0.00,0,rob ver 1B,2013-08-28 09:13:00,
2013-08-28 02:14:00,76.1,70.6,29.38,East,94,8.0,9.2,82,-99.99,,,0.00,0,rob ver 1B,2013-08-28 09:14:00,
2013-08-28 02:15:00,76.2,70.6,29.38,East,95,7.7,9.1,82,-99.99,,,0.00,0,rob ver 1B,2013-08-28 09:15:00,
2013-08-28 02:16:00,88.1,65.6,29.21,NNW,347,2.8,3.0,47,-99.99,,,0.00,0,rob ver 1A,2013-08-28 09:16:00,
2013-08-28 02:17:00,76.4,70.5,29.38,East,99,7.6,9.3,81,-99.99,,,0.00,0,rob ver 1B,2013-08-28 09:17:00,
2013-08-28 02:18:00,76.5,70.6,29.38,East,96,7.4,9.3,81,-99.99,,,0.00,0,rob ver 1B,2013-08-28 09:18:00,
2013-08-28 02:19:00,76.7,70.7,29.38,East,98,7.1,8.9,81,-99.99,,,0.00,0,rob ver 1B,2013-08-28 09:19:00,
2013-08-28 02:20:00,76.7,70.5,29.38,East,93,8.3,9.8,81,-99.99,,,0.00,0,rob ver 1B,2013-08-28 09:20:00,
2013-08-28 02:21:00,88.0,65.6,29.21,North,2,1.2,1.3,47,-99.99,,,0.00,0,rob ver 1A,2013-08-28 09:21:00,
2013-08-28 02:22:00,76.9,70.5,29.38,East,93,7.7,9.1,80,-99.99,,,0.00,0,rob ver 1B,2013-08-28 09:22:00,
2013-08-28 02:23:00,76.9,70.5,29.38,East,91,8.0,9.5,80,-99.99,,,0.00,0,rob ver 1B,2013-08-28 09:23:00,
2013-08-28 02:24:00,77.0,70.5,29.38,East,92,7.9,10.5,80,-99.99,,,0.00,0,rob ver 1B,2013-08-28 09:24:00,
2013-08-28 02:25:00,77.1,70.6,29.38,East,100,6.6,9.1,79,-99.99,,,0.00,0,rob ver 1B,2013-08-28 09:25:00,
2013-08-28 02:26:00,88.0,65.6,29.21,NE,43,1.0,1.1,47,-99.99,,,0.00,0,rob ver 1A,2013-08-28 09:26:00,
2013-08-28 02:27:00,77.2,70.3,29.38,ESE,102,7.4,8.6,78,-99.99,,,0.00,0,rob ver 1B,2013-08-28 09:27:00,
2013-08-28 02:28:00,77.3,70.2,29.38,East,101,7.0,8.6,78,-99.99,,,0.00,0,rob ver 1B,2013-08-28 09:28:00,
2013-08-28 02:29:00,77.4,70.2,29.38,East,98,7.4,8.9,77,-99.99,,,0.00,0,rob ver 1B,2013-08-28 09:29:00,
2013-08-28 02:30:00,77.5,70.2,29.38,East,90,5.7,7.7,78,-99.99,,,0.00,0,rob ver 1B,2013-08-28 09:30:00,
2013-08-28 02:31:00,87.8,65.5,29.21,ENE,75,1.5,1.6,47,-99.99,,,0.00,0,rob ver 1A,2013-08-28 09:31:00,
2013-08-28 02:32:00,77.7,70.3,29.38,East,84,5.8,7.5,78,-99.99,,,0.00,0,rob ver 1B,2013-08-28 09:32:00,
2013-08-28 02:33:00,77.7,70.4,29.38,ENE,75,4.6,6.1,78,-99.99,,,0.00,0,rob ver 1B,2013-08-28 09:33:00,
2013-08-28 02:34:00,77.7,70.4,29.38,ENE,65,4.9,6.6,78,-99.99,,,0.00,0,rob ver 1B,2013-08-28 09:34:00,
2013-08-28 02:35:00,77.7,70.4,29.38,ENE,60,4.2,5.4,78,-99.99,,,0.00,0,rob ver 1B,2013-08-28 09:35:00,
2013-08-28 02:36:00,87.7,65.3,29.21,ENE,58,1.8,1.9,47,-99.99,,,0.00,0,rob ver 1A,2013-08-28 09:36:00,
2013-08-28 02:37:00,77.6,70.4,29.38,ENE,59,5.1,7.2,78,-99.99,,,0.00,0,rob ver 1B,2013-08-28 09:37:00,
2013-08-28 02:38:00,77.6,70.3,29.38,ENE,62,4.5,5.5,78,-99.99,,,0.00,0,rob ver 1B,2013-08-28 09:38:00,
2013-08-28 02:39:00,77.6,70.4,29.38,ENE,63,5.0,7.0,78,-99.99,,,0.00,0,rob ver 1B,2013-08-28 09:39:00,
2013-08-28 02:40:00,77.7,70.4,29.38,ENE,65,5.1,6.6,78,-99.99,,,0.00,0,rob ver 1B,2013-08-28 09:40:00,
2013-08-28 02:41:00,87.5,65.4,29.21,NE,42,2.6,2.8,47,-99.99,,,0.00,0,rob ver 1A,2013-08-28 09:41:00,
2013-08-28 02:42:00,77.7,70.5,29.38,ENE,72,4.3,5.5,78,-99.99,,,0.00,0,rob ver 1B,2013-08-28 09:42:00,
2013-08-28 02:43:00,77.7,70.4,29.38,ENE,77,4.7,5.9,78,-99.99,,,0.00,0,rob ver 1B,2013-08-28 09:43:00,
2013-08-28 02:44:00,77.8,70.5,29.38,ENE,72,3.9,5.3,77,-99.99,,,0.00,0,rob ver 1B,2013-08-28 09:44:00,
2013-08-28 02:45:00,77.8,70.4,29.38,ENE,70,4.2,5.6,78,-99.99,,,0.00,0,rob ver 1B,2013-08-28 09:45:00,
2013-08-28 02:46:00,87.3,65.4,29.21,NE,39,2.4,2.8,48,-99.99,,,0.00,0,rob ver 1A,2013-08-28 09:46:00,
2013-08-28 02:47:00,77.9,70.9,29.38,NE,50,6.3,9.0,79,-99.99,,,0.00,0,rob ver 1B,2013-08-28 09:47:00,
2013-08-28 02:48:00,77.8,70.9,29.38,NE,46,7.9,9.3,79,-99.99,,,0.00,0,rob ver 1B,2013-08-28 09:48:00,
2013-08-28 02:49:00,77.8,70.9,29.38,NE,42,8.4,10.5,79,-99.99,,,0.00,0,rob ver 1B,2013-08-28 09:49:00,
2013-08-28 02:50:00,77.7,71.0,29.38,NE,41,7.3,9.5,79,-99.99,,,0.00,0,rob ver 1B,2013-08-28 09:50:00,
2013-08-28 02:51:00,87.2,65.3,29.21,NE,49,1.7,2.2,48,-99.99,,,0.00,0,rob ver 1A,2013-08-28 09:51:00,
2013-08-28 02:52:00,77.7,70.9,29.38,NE,42,7.2,9.2,79,-99.99,,,0.00,0,rob ver 1B,2013-08-28 09:52:00,
2013-08-28 02:53:00,77.8,71.0,29.38,NE,40,7.0,9.0,79,-99.99,,,0.00,0,rob ver 1B,2013-08-28 09:53:00,
2013-08-28 02:54:00,77.7,70.8,29.38,NE,36,8.5,10.4,79,-99.99,,,0.00,0,rob ver 1B,2013-08-28 09:54:00,
2013-08-28 02:55:00,77.8,70.7,29.38,NE,39,8.3,10.6,78,-99.99,,,0.00,0,rob ver 1B,2013-08-28 09:55:00,
2013-08-28 02:56:00,87.2,65.1,29.18,NE,41,1.0,1.2,48,-99.99,,,0.00,0,rob ver 1A,2013-08-28 09:56:00,
2013-08-28 02:57:00,77.8,70.6,29.38,NE,37,7.4,9.7,78,-99.99,,,0.00,0,rob ver 1B,2013-08-28 09:57:00,
2013-08-28 02:58:00,77.8,70.7,29.38,NE,41,6.7,8.3,78,-99.99,,,0.00,0,rob ver 1B,2013-08-28 09:58:00,
2013-08-28 02:59:00,77.8,70.7,29.38,NE,47,5.4,7.0,79,-99.99,,,0.00,0,rob ver 1B,2013-08-28 09:59:00,
2013-08-28 03:00:00,77.8,70.8,29.38,NE,47,5.7,8.0,79,-99.99,,,0.00,0,rob ver 1B,2013-08-28 10:00:00,
2013-08-28 03:01:00,77.8,70.8,29.38,NE,47,6.0,8.1,78,-99.99,,,0.00,0,rob ver 1B,2013-08-28 10:01:00,
2013-08-28 03:02:00,87.3,65.1,29.21,NNE,26,1.4,1.5,47,-99.99,,,0.00,0,rob ver 1A,2013-08-28 10:02:00,
2013-08-28 03:03:00,77.8,70.8,29.38,NE,47,4.9,6.8,79,-99.99,,,0.00,0,rob ver 1B,2013-08-28 10:03:00,
2013-08-28 03:04:00,77.8,70.8,29.38,NE,43,6.2,7.4,79,-99.99,,,0.00,0,rob ver 1B,2013-08-28 10:04:00,
2013-08-28 03:05:00,77.7,70.8,29.38,NE,51,5.9,7.4,78,-99.99,,,0.00,0,rob ver 1B,2013-08-28 10:05:00,
2013-08-28 03:06:00,77.7,70.8,29.38,NE,44,5.0,7.6,79,-99.99,,,0.00,0,rob ver 1B,2013-08-28 10:06:00,
2013-08-28 03:07:00,87.3,64.8,29.18,NNE,33,1.6,1.7,47,-99.99,,,0.00,0,rob ver 1A,2013-08-28 10:07:00,
2013-08-28 03:08:00,77.8,70.9,29.38,NE,39,7.4,8.9,79,-99.99,,,0.00,0,rob ver 1B,2013-08-28 10:08:00,
2013-08-28 03:09:00,77.7,70.8,29.38,NE,43,7.1,8.4,79,-99.99,,,0.00,0,rob ver 1B,2013-08-28 10:09:00,
2013-08-28 03:10:00,77.7,70.9,29.38,NE,37,6.9,8.2,79,-99.99,,,0.00,0,rob ver 1B,2013-08-28 10:10:00,
2013-08-28 03:11:00,77.7,71.0,29.38,NNE,32,7.4,9.0,79,-99.99,,,0.00,0,rob ver 1B,2013-08-28 10:11:00,
2013-08-28 03:12:00,87.2,64.8,29.21,NE,36,1.1,1.3,47,-99.99,,,0.00,0,rob ver 1A,2013-08-28 10:12:00,
2013-08-28 03:13:00,77.6,70.9,29.38,NNE,30,7.8,8.7,80,-99.99,,,0.00,0,rob ver 1B,2013-08-28 10:13:00,
2013-08-28 03:14:00,77.6,70.9,29.38,NNE,33,8.4,10.0,79,-99.99,,,0.00,0,rob ver 1B,2013-08-28 10:14:00,
2013-08-28 03:15:00,77.5,70.8,29.38,NE,34,8.3,9.6,79,-99.99,,,0.00,0,rob ver 1B,2013-08-28 10:15:00,
2013-08-28 03:16:00,77.6,70.9,29.38,NNE,30,7.1,8.8,79,-99.99,,,0.00,0,rob ver 1B,2013-08-28 10:16:00,
2013-08-28 03:17:00,86.9,64.7,29.18,NE,40,1.9,2.4,47,-99.99,,,0.00,0,rob ver 1A,2013-08-28 10:17:00,
2013-08-28 03:18:00,77.6,70.9,29.38,NNE,27,7.0,8.0,79,-99.99,,,0.00,0,rob ver 1B,2013-08-28 10:18:00,
2013-08-28 03:19:00,77.7,71.0,29.38,NNE,25,6.0,7.3,79,-99.99,,,0.00,0,rob ver 1B,2013-08-28 10:19:00,
2013-08-28 03:20:00,77.8,71.0,29.38,NNE,32,6.7,8.6,79,-99.99,,,0.00,0,rob ver 1B,2013-08-28 10:20:00,
2013-08-28 03:21:00,77.8,70.9,29.38,NNE,28,7.2,9.2,79,-99.99,,,0.00,0,rob ver 1B,2013-08-28 10:21:00,
2013-08-28 03:22:00,87.0,64.8,29.18,NNE,21,2.4,2.7,47,-99.99,,,0.00,0,rob ver 1A,2013-08-28 10:22:00,
2013-08-28 03:23:00,77.9,70.8,29.38,NNE,30,7.9,9.3,78,-99.99,,,0.00,0,rob ver 1B,2013-08-28 10:23:00,
2013-08-28 03:24:00,78.0,70.8,29.38,NNE,27,8.0,9.4,78,-99.99,,,0.00,0,rob ver 1B,2013-08-28 10:24:00,
2013-08-28 03:25:00,78.0,70.9,29.38,NNE,31,7.3,10.1,78,-99.99,,,0.00,0,rob ver 1B,2013-08-28 10:25:00,
2013-08-28 03:26:00,78.1,70.8,29.38,NE,36,8.3,9.8,78,-99.99,,,0.00,0,rob ver 1B,2013-08-28 10:26:00,
2013-08-28 03:27:00,87.2,64.7,29.18,North,2,1.5,1.8,47,-99.99,,,0.00,0,rob ver 1A,2013-08-28 10:27:00,
2013-08-28 03:28:00,78.1,70.8,29.38,NNE,31,7.8,9.8,78,-99.99,,,0.00,0,rob ver 1B,2013-08-28 10:28:00,
2013-08-28 03:29:00,78.2,70.8,29.38,NNE,30,8.7,10.7,78,-99.99,,,0.00,0,rob ver 1B,2013-08-28 10:29:00,
2013-08-28 03:30:00,78.2,70.9,29.38,NNE,28,8.8,10.2,78,-99.99,,,0.00,0,rob ver 1B,2013-08-28 10:30:00,
2013-08-28 03:31:00,78.2,70.9,29.38,NE,34,8.5,10.7,78,-99.99,,,0.00,0,rob ver 1B,2013-08-28 10:31:00,
2013-08-28 03:32:00,87.2,64.7,29.18,North,350,2.5,3.0,47,-99.99,,,0.00,0,rob ver 1A,2013-08-28 10:32:00,
2013-08-28 03:33:00,78.2,71.0,29.38,NE,39,8.6,10.6,78,-99.99,,,0.00,0,rob ver 1B,2013-08-28 10:33:00,
2013-08-28 03:34:00,78.2,71.0,29.38,NE,44,7.5,10.0,78,-99.99,,,0.00,0,rob ver 1B,2013-08-28 10:34:00,
2013-08-28 03:35:00,78.2,70.9,29.38,NE,44,10.1,11.8,78,-99.99,,,0.00,0,rob ver 1B,2013-08-28 10:35:00,
2013-08-28 03:36:00,78.2,70.8,29.38,NE,46,9.1,12.6,77,-99.99,,,0.00,0,rob ver 1B,2013-08-28 10:36:00,
2013-08-28 03:37:00,86.8,64.3,29.18,NNW,344,3.2,3.6,47,-99.99,,,0.00,0,rob ver 1A,2013-08-28 10:37:00,
2013-08-28 03:38:00,78.3,70.8,29.38,NE,47,8.0,9.9,77,-99.99,,,0.00,0,rob ver 1B,2013-08-28 10:38:00,
2013-08-28 03:39:00,78.4,70.8,29.38,NE,45,9.4,12.1,77,-99.99,,,0.00,0,rob ver 1B,2013-08-28 10:39:00,
2013-08-28 03:40:00,78.4,70.7,29.38,NE,47,10.4,13.3,77,-99.99,,,0.00,0,rob ver 1B,2013-08-28 10:40:00,
2013-08-28 03:41:00,78.5,70.7,29.38,NE,47,9.3,12.2,76,-99.99,,,0.00,0,rob ver 1B,2013-08-28 10:41:00,
2013-08-28 03:42:00,78.6,70.7,29.38,NE,46,9.5,12.2,76,-99.99,,,0.00,0,rob ver 1B,2013-08-28 10:42:00,
2013-08-28 03:43:00,86.6,63.9,29.18,NNW,340,2.7,3.3,46,-99.99,,,0.00,0,rob ver 1A,2013-08-28 10:43:00,
2013-08-28 03:44:00,78.7,70.7,29.38,NE,44,9.3,12.1,76,-99.99,,,0.00,0,rob ver 1B,2013-08-28 10:44:00,
2013-08-28 03:45:00,78.7,70.7,29.38,NE,47,8.6,11.5,76,-99.99,,,0.00,0,rob ver 1B,2013-08-28 10:45:00,
2013-08-28 03:46:00,78.8,70.6,29.38,NE,48,8.8,11.1,76,-99.99,,,0.00,0,rob ver 1B,2013-08-28 10:46:00,
2013-08-28 03:47:00,78.8,70.6,29.38,NE,46,8.5,10.2,76,-99.99,,,0.00,0,rob ver 1B,2013-08-28 10:47:00,
2013-08-28 03:48:00,86.8,63.5,29.18,NNW,343,2.2,2.8,45,-99.99,,,0.00,0,rob ver 1A,2013-08-28 10:48:00,
2013-08-28 03:49:00,78.9,70.7,29.38,NE,47,7.1,10.0,76,-99.99,,,0.00,0,rob ver 1B,2013-08-28 10:49:00,
2013-08-28 03:50:00,78.9,70.6,29.38,NE,48,8.4,12.3,75,-99.99,,,0.00,0,rob ver 1B,2013-08-28 10:50:00,
2013-08-28 03:51:00,78.9,70.5,29.38,NE,46,9.0,12.4,75,-99.99,,,0.00,0,rob ver 1B,2013-08-28 10:51:00,
2013-08-28 03:52:00,78.9,70.4,29.38,NE,42,10.4,12.2,74,-99.99,,,0.00,0,rob ver 1B,2013-08-28 10:52:00,
2013-08-28 03:53:00,87.1,63.3,29.21,NNW,342,1.2,1.6,45,-99.99,,,0.00,0,rob ver 1A,2013-08-28 10:53:00,
2013-08-28 03:54:00,78.9,70.3,29.38,NE,44,11.3,13.3,75,-99.99,,,0.00,0,rob ver 1B,2013-08-28 10:54:00,
2013-08-28 03:55:00,78.9,70.3,29.38,NE,47,9.4,12.0,75,-99.99,,,0.00,0,rob ver 1B,2013-08-28 10:55:00,
2013-08-28 03:56:00,78.9,70.4,29.38,NE,48,8.5,11.2,75,-99.99,,,0.00,0,rob ver 1B,2013-08-28 10:56:00,
2013-08-28 03:57:00,78.9,70.4,29.38,NE,47,7.5,10.0,75,-99.99,,,0.00,0,rob ver 1B,2013-08-28 10:57:00,
2013-08-28 03:58:00,87.0,64.9,29.21,South,177,3.3,3.5,48,-99.99,,,0.00,0,rob ver 1A,2013-08-28 10:58:00,
2013-08-28 03:59:00,78.9,70.5,29.38,NE,43,7.3,10.1,75,-99.99,,,0.00,0,rob ver 1B,2013-08-28 10:59:00,
2013-08-28 04:00:00,78.8,70.4,29.38,NE,44,7.6,9.5,75,-99.99,,,0.00,0,rob ver 1B,2013-08-28 11:00:00,
2013-08-28 04:01:00,78.8,70.3,29.38,NE,41,8.6,10.6,75,-99.99,,,0.00,0,rob ver 1B,2013-08-28 11:01:00,
2013-08-28 04:02:00,78.8,70.3,29.38,NE,45,8.6,10.5,75,-99.99,,,0.00,0,rob ver 1B,2013-08-28 11:02:00,
2013-08-28 04:03:00,85.8,65.6,29.21,SSW,205,2.5,2.7,51,-99.99,,,0.00,0,rob ver 1A,2013-08-28 11:03:00,
2013-08-28 04:04:00,78.8,70.2,29.38,NE,53,8.1,11.0,74,-99.99,,,0.00,0,rob ver 1B,2013-08-28 11:04:00,
2013-08-28 04:05:00,78.8,70.1,29.38,NE,54,8.7,11.2,74,-99.99,,,0.00,0,rob ver 1B,2013-08-28 11:05:00,
2013-08-28 04:06:00,78.9,70.1,29.38,ENE,58,7.0,8.3,74,-99.99,,,0.00,0,rob ver 1B,2013-08-28 11:06:00,
2013-08-28 04:07:00,78.9,70.2,29.38,ENE,63,6.1,8.3,74,-99.99,,,0.00,0,rob ver 1B,2013-08-28 11:07:00,
2013-08-28 04:08:00,85.7,65.7,29.21,SW,229,0.9,1.2,51,-99.99,,,0.00,0,rob ver 1A,2013-08-28 11:08:00,
2013-08-28 04:09:00,78.8,69.9,29.38,ENE,58,8.9,12.0,74,-99.99,,,0.00,0,rob ver 1B,2013-08-28 11:09:00,
2013-08-28 04:10:00,78.8,70.0,29.38,ENE,59,8.5,10.2,74,-99.99,,,0.00,0,rob ver 1B,2013-08-28 11:10:00,
2013-08-28 04:11:00,78.9,70.1,29.38,ENE,59,7.2,8.8,74,-99.99,,,0.00,0,rob ver 1B,2013-08-28 11:11:00,
2013-08-28 04:12:00,78.8,70.0,29.38,ENE,61,9.1,11.0,74,-99.99,,,0.00,0,rob ver 1B,2013-08-28 11:12:00,
2013-08-28 04:13:00,85.8,64.5,29.21,NNE,27,0.7,1.1,48,-99.99,,,0.00,0,rob ver 1A,2013-08-28 11:13:00,
2013-08-28 04:14:00,78.8,69.9,29.38,NE,55,9.4,11.7,74,-99.99,,,0.00,0,rob ver 1B,2013-08-28 11:14:00,
2013-08-28 04:15:00,78.8,69.9,29.38,NE,54,9.1,11.7,74,-99.99,,,0.00,0,rob ver 1B,2013-08-28 11:15:00,
2013-08-28 04:16:00,78.8,69.9,29.38,ENE,60,9.2,12.3,74,-99.99,,,0.00,0,rob ver 1B,2013-08-28 11:16:00,
2013-08-28 04:17:00,78.7,69.9,29.38,NE,56,8.7,11.2,74,-99.99,,,0.00,0,rob ver 1B,2013-08-28 11:17:00,
2013-08-28 04:18:00,86.5,64.0,29.21,NNE,31,0.8,1.2,47,-99.99,,,0.00,0,rob ver 1A,2013-08-28 11:18:00,
2013-08-28 04:19:00,78.7,69.9,29.38,NE,56,8.5,10.5,74,-99.99,,,0.00,0,rob ver 1B,2013-08-28 11:19:00,
2013-08-28 04:20:00,78.7,70.0,29.38,ENE,57,7.5,8.9,74,-99.99,,,0.00,0,rob ver 1B,2013-08-28 11:20:00,
2013-08-28 04:21:00,78.7,70.0,29.38,NE,55,9.3,12.8,74,-99.99,,,0.00,0,rob ver 1B,2013-08-28 11:21:00,
2013-08-28 04:22:00,78.7,70.1,29.38,NE,55,7.6,10.4,74,-99.99,,,0.00,0,rob ver 1B,2013-08-28 11:22:00,
2013-08-28 04:23:00,86.8,64.0,29.21,ENE,73,0.5,0.8,46,-99.99,,,0.00,0,rob ver 1A,2013-08-28 11:23:00,
2013-08-28 04:24:00,78.6,70.1,29.38,ENE,57,7.5,9.2,75,-99.99,,,0.00,0,rob ver 1B,2013-08-28 11:24:00,
2013-08-28 04:25:00,78.6,70.1,29.38,ENE,58,8.6,10.7,75,-99.99,,,0.00,0,rob ver 1B,2013-08-28 11:25:00,
2013-08-28 04:26:00,78.6,70.1,29.38,ENE,61,9.1,11.2,75,-99.99,,,0.00,0,rob ver 1B,2013-08-28 11:26:00,
2013-08-28 04:27:00,78.7,70.2,29.38,ENE,60,9.2,11.3,75,-99.99,,,0.00,0,rob ver 1B,2013-08-28 11:27:00,
2013-08-28 04:28:00,78.6,70.2,29.38,ENE,59,9.3,12.0,75,-99.99,,,0.00,0,rob ver 1B,2013-08-28 11:28:00,
2013-08-28 04:29:00,86.4,65.2,29.21,SE,139,3.4,4.0,49,-99.99,,,0.00,0,rob ver 1A,2013-08-28 11:29:00,
2013-08-28 04:30:00,78.7,70.4,29.38,ENE,61,7.5,9.9,75,-99.99,,,0.00,0,rob ver 1B,2013-08-28 11:30:00,
2013-08-28 04:31:00,78.7,70.4,29.38,ENE,57,8.0,10.1,75,-99.99,,,0.00,0,rob ver 1B,2013-08-28 11:31:00,
2013-08-28 04:32:00,78.7,70.4,29.38,ENE,60,8.2,10.7,75,-99.99,,,0.00,0,rob ver 1B,2013-08-28 11:32:00,
2013-08-28 04:33:00,78.7,70.5,29.38,ENE,57,7.3,10.4,75,-99.99,,,0.00,0,rob ver 1B,2013-08-28 11:33:00,
2013-08-28 04:34:00,85.2,65.9,29.21,SSE,154,3.8,4.4,52,-99.99,,,0.00,0,rob ver 1A,2013-08-28 11:34:00,
2013-08-28 04:35:00,78.7,70.4,29.38,ENE,59,8.5,11.0,75,-99.99,,,0.00,0,rob ver 1B,2013-08-28 11:35:00,
2013-08-28 04:36:00,78.8,70.4,29.38,ENE,63,8.5,10.5,75,-99.99,,,0.00,0,rob ver 1B,2013-08-28 11:36:00,
2013-08-28 04:37:00,78.8,70.5,29.38,ENE,59,7.8,10.1,75,-99.99,,,0.00,0,rob ver 1B,2013-08-28 11:37:00,
2013-08-28 04:38:00,78.9,70.5,29.38,NE,54,8.3,10.6,75,-99.99,,,0.00,0,rob ver 1B,2013-08-28 11:38:00,
2013-08-28 04:39:00,85.2,65.9,29.21,SSE,158,2.7,3.1,52,-99.99,,,0.00,0,rob ver 1A,2013-08-28 11:39:00,
2013-08-28 04:40:00,78.9,70.5,29.38,NE,53,7.5,9.2,75,-99.99,,,0.00,0,rob ver 1B,2013-08-28 11:40:00,
2013-08-28 04:41:00,78.9,70.6,29.38,ENE,59,6.8,9.7,75,-99.99,,,0.00,0,rob ver 1B,2013-08-28 11:41:00,
2013-08-28 04:42:00,78.9,70.6,29.38,NE,55,5.9,7.9,75,-99.99,,,0.00,0,rob ver 1B,2013-08-28 11:42:00,
2013-08-28 04:43:00,79.0,70.6,29.38,NE,56,6.7,9.4,75,-99.99,,,0.00,0,rob ver 1B,2013-08-28 11:43:00,
2013-08-28 04:44:00,85.2,66.0,29.21,SE,139,1.7,2.1,52,-99.99,,,0.00,0,rob ver 1A,2013-08-28 11:44:00,
2013-08-28 04:45:00,79.0,70.5,29.38,NE,56,6.6,9.6,75,-99.99,,,0.00,0,rob ver 1B,2013-08-28 11:45:00,
2013-08-28 04:46:00,79.1,70.5,29.38,NE,55,6.4,8.2,75,-99.99,,,0.00,0,rob ver 1B,2013-08-28 11:46:00,
2013-08-28 04:47:00,79.1,70.5,29.38,ENE,57,6.1,8.1,75,-99.99,,,0.00,0,rob ver 1B,2013-08-28 11:47:00,
2013-08-28 04:48:00,79.1,70.4,29.38,ENE,61,6.8,8.3,74,-99.99,,,0.00,0,rob ver 1B,2013-08-28 11:48:00,
2013-08-28 04:49:00,85.0,65.9,29.21,SE,128,2.2,2.6,52,-99.99,,,0.00,0,rob ver 1A,2013-08-28 11:49:00,
2013-08-28 04:50:00,79.2,70.4,29.38,ENE,63,5.8,9.1,74,-99.99,,,0.00,0,rob ver 1B,2013-08-28 11:50:00,
2013-08-28 04:51:00,79.2,70.4,29.38,ENE,59,6.6,9.0,74,-99.99,,,0.00,0,rob ver 1B,2013-08-28 11:51:00,
2013-08-28 04:52:00,79.2,70.4,29.38,ENE,58,7.0,9.2,74,-99.99,,,0.00,0,rob ver 1B,2013-08-28 11:52:00,
2013-08-28 04:53:00,79.2,70.3,29.38,ENE,66,7.4,9.2,74,-99.99,,,0.00,0,rob ver 1B,2013-08-28 11:53:00,
2013-08-28 04:54:00,84.8,66.1,29.21,SE,135,2.2,2.7,53,-99.99,,,0.00,0,rob ver 1A,2013-08-28 11:54:00,
2013-08-28 04:55:00,79.3,70.3,29.38,ENE,64,6.7,9.6,73,-99.99,,,0.00,0,rob ver 1B,2013-08-28 11:55:00,
2013-08-28 04:56:00,79.3,70.3,29.38,ENE,67,5.8,8.2,73,-99.99,,,0.00,0,rob ver 1B,2013-08-28 11:56:00,
2013-08-28 04:57:00,79.4,70.4,29.38,ENE,64,5.8,8.2,73,-99.99,,,0.00,0,rob ver 1B,2013-08-28 11:57:00,
2013-08-28 04:58:00,79.4,70.2,29.38,ENE,68,6.9,9.4,73,-99.99,,,0.00,0,rob ver 1B,2013-08-28 11:58:00,
2013-08-28 04:59:00,84.7,66.3,29.21,SSE,149,2.8,3.2,54,-99.99,,,0.00,0,rob ver 1A,2013-08-28 11:59:00,
2013-08-28 05:00:00,79.4,70.2,29.38,ENE,67,6.2,8.1,73,-99.99,,,0.00,0,rob ver 1B,2013-08-28 12:00:00,
2013-08-28 05:01:00,79.4,70.2,29.38,ENE,62,6.2,8.0,73,-99.99,,,0.00,0,rob ver 1B,2013-08-28 12:01:00,
2013-08-28 05:02:00,79.5,70.2,29.38,ENE,64,6.8,8.6,73,-99.99,,,0.00,0,rob ver 1B,2013-08-28 12:02:00,
2013-08-28 05:03:00,79.5,70.2,29.38,ENE,60,7.9,9.3,73,-99.99,,,0.00,0,rob ver 1B,2013-08-28 12:03:00,
2013-08-28 05:04:00,84.7,66.4,29.21,SSE,151,2.6,3.0,54,-99.99,,,0.00,0,rob ver 1A,2013-08-28 12:04:00,
2013-08-28 05:05:00,79.5,70.2,29.38,ENE,65,6.9,8.8,73,-99.99,,,0.00,0,rob ver 1B,2013-08-28 12:05:00,
2013-08-28 05:06:00,79.5,70.1,29.38,ENE,67,6.5,9.0,72,-99.99,,,0.00,0,rob ver 1B,2013-08-28 12:06:00,
2013-08-28 05:07:00,79.5,69.9,29.38,ENE,65,8.4,12.2,72,-99.99,,,0.00,0,rob ver 1B,2013-08-28 12:07:00,
2013-08-28 05:08:00,79.5,69.9,29.38,ENE,62,8.0,10.4,72,-99.99,,,0.00,0,rob ver 1B,2013-08-28 12:08:00,
2013-08-28 05:09:00,84.7,66.5,29.21,SSE,155,2.5,3.0,54,-99.99,,,0.00,0,rob ver 1A,2013-08-28 12:09:00,
2013-08-28 05:10:00,79.5,69.8,29.38,ENE,66,9.1,11.6,72,-99.99,,,0.00,0,rob ver 1B,2013-08-28 12:10:00,
2013-08-28 05:11:00,79.5,69.9,29.38,ENE,67,7.9,10.4,72,-99.99,,,0.00,0,rob ver 1B,2013-08-28 12:11:00,
2013-08-28 05:12:00,79.5,69.9,29.38,ENE,68,8.3,11.0,72,-99.99,,,0.00,0,rob ver 1B,2013-08-28 12:12:00,
2013-08-28 05:13:00,79.5,69.9,29.38,ENE,65,8.5,11.6,72,-99.99,,,0.00,0,rob ver 1B,2013-08-28 12:13:00,
2013-08-28 05:14:00,79.5,69.9,29.38,ENE,68,8.7,11.9,72,-99.99,,,0.00,0,rob ver 1B,2013-08-28 12:14:00,
2013-08-28 05:15:00,84.8,66.5,29.21,SE,128,2.0,2.4,54,-99.99,,,0.00,0,rob ver 1A,2013-08-28 12:15:00,
2013-08-28 05:16:00,79.5,69.9,29.38,ENE,67,8.7,11.7,72,-99.99,,,0.00,0,rob ver 1B,2013-08-28 12:16:00,
2013-08-28 05:17:00,79.5,70.0,29.38,ENE,71,8.4,10.5,72,-99.99,,,0.00,0,rob ver 1B,2013-08-28 12:17:00,
2013-08-28 05:18:00,79.5,70.0,29.38,ENE,69,8.1,11.4,72,-99.99,,,0.00,0,rob ver 1B,2013-08-28 12:18:00,
2013-08-28 05:19:00,79.4,69.9,29.38,ENE,71,8.8,12.0,72,-99.99,,,0.00,0,rob ver 1B,2013-08-28 12:19:00,
2013-08-28 05:20:00,84.6,66.5,29.21,SE,137,2.1,2.6,54,-99.99,,,0.00,0,rob ver 1A,2013-08-28 12:20:00,
2013-08-28 05:21:00,79.4,70.0,29.41,ENE,70,8.0,10.2,72,-99.99,,,0.00,0,rob ver 1B,2013-08-28 12:21:00,
2013-08-28 05:22:00,79.4,70.0,29.38,ENE,69,7.4,10.5,73,-99.99,,,0.00,0,rob ver 1B,2013-08-28 12:22:00,
2013-08-28 05:23:00,79.4,69.9,29.38,ENE,64,8.2,11.1,72,-99.99,,,0.00,0,rob ver 1B,2013-08-28 12:23:00,
2013-08-28 05:24:00,79.4,69.9,29.38,ENE,66,8.3,10.2,72,-99.99,,,0.00,0,rob ver 1B,2013-08-28 12:24:00,
2013-08-28 05:25:00,84.7,66.5,29.21,SSE,168,2.3,2.7,54,-99.99,,,0.00,0,rob ver 1A,2013-08-28 12:25:00,
2013-08-28 05:26:00,79.4,69.9,29.38,ENE,69,7.9,10.4,72,-99.99,,,0.00,0,rob ver 1B,2013-08-28 12:26:00,
2013-08-28 05:27:00,79.4,69.8,29.38,ENE,65,7.8,10.3,72,-99.99,,,0.00,0,rob ver 1B,2013-08-28 12:27:00,
2013-08-28 05:28:00,79.5,69.9,29.38,ENE,69,6.2,7.6,72,-99.99,,,0.00,0,rob ver 1B,2013-08-28 12:28:00,
2013-08-28 05:29:00,79.5,69.8,29.41,ENE,69,7.3,11.5,72,-99.99,,,0.00,0,rob ver 1B,2013-08-28 12:29:00,
2013-08-28 05:30:00,84.7,66.3,29.21,South,180,1.9,2.2,53,-99.99,,,0.00,0,rob ver 1A,2013-08-28 12:30:00,
2013-08-28 05:31:00,79.5,69.8,29.38,ENE,71,6.8,9.6,72,-99.99,,,0.00,0,rob ver 1B,2013-08-28 12:31:00,
2013-08-28 05:32:00,79.5,69.7,29.38,ENE,71,8.3,10.8,71,-99.99,,,0.00,0,rob ver 1B,2013-08-28 12:32:00,
2013-08-28 05:33:00,79.5,69.6,29.41,ENE,66,7.2,9.9,71,-99.99,,,0.00,0,rob ver 1B,2013-08-28 12:33:00,
2013-08-28 05:34:00,79.5,69.5,29.41,ENE,70,8.1,11.0,71,-99.99,,,0.00,0,rob ver 1B,2013-08-28 12:34:00,
2013-08-28 05:35:00,84.7,65.8,29.21,SSW,195,1.5,1.9,53,-99.99,,,0.00,0,rob ver 1A,2013-08-28 12:35:00,
2013-08-28 05:36:00,79.5,69.5,29.38,ENE,68,7.3,9.1,71,-99.99,,,0.00,0,rob ver 1B,2013-08-28 12:36:00,
2013-08-28 05:37:00,79.6,69.4,29.41,ENE,69,7.2,10.7,71,-99.99,,,0.00,0,rob ver 1B,2013-08-28 12:37:00,
2013-08-28 05:38:00,79.6,69.4,29.41,ENE,67,7.1,10.5,71,-99.99,,,0.00,0,rob ver 1B,2013-08-28 12:38:00,
2013-08-28 05:39:00,79.6,69.4,29.41,ENE,74,6.7,8.6,71,-99.99,,,0.00,0,rob ver 1B,2013-08-28 12:39:00,
2013-08-28 05:40:00,84.7,65.5,29.21,SW,217,1.1,1.2,52,-99.99,,,0.00,0,rob ver 1A,2013-08-28 12:40:00,
2013-08-28 05:41:00,79.5,69.2,29.41,ENE,75,7.7,9.7,70,-99.99,,,0.00,0,rob ver 1B,2013-08-28 12:41:00,
2013-08-28 05:42:00,79.6,69.3,29.41,ENE,77,8.1,9.9,70,-99.99,,,0.00,0,rob ver 1B,2013-08-28 12:42:00,
2013-08-28 05:43:00,79.6,69.2,29.41,East,84,7.8,9.4,70,-99.99,,,0.00,0,rob ver 1B,2013-08-28 12:43:00,
2013-08-28 05:44:00,79.5,69.2,29.41,East,82,6.9,9.0,70,-99.99,,,0.00,0,rob ver 1B,2013-08-28 12:44:00,
2013-08-28 05:45:00,84.7,65.5,29.21,West,273,0.7,0.9,52,-99.99,,,0.00,0,rob ver 1A,2013-08-28 12:45:00,
2013-08-28 05:46:00,79.5,69.3,29.41,ENE,78,6.9,8.3,70,-99.99,,,0.00,0,rob ver 1B,2013-08-28 12:46:00,
2013-08-28 05:47:00,79.5,69.3,29.41,ENE,75,6.9,9.0,71,-99.99,,,0.00,0,rob ver 1B,2013-08-28 12:47:00,
2013-08-28 05:48:00,79.5,69.2,29.41,ENE,74,7.6,9.4,70,-99.99,,,0.00,0,rob ver 1B,2013-08-28 12:48:00,
2013-08-28 05:49:00,79.5,69.2,29.41,ENE,72,6.9,8.3,70,-99.99,,,0.00,.33,rob ver 1B,2013-08-28 12:49:00,
2013-08-28 05:50:00,84.7,65.3,29.21,West,279,1.0,1.3,52,-99.99,,,0.00,.494,rob ver 1A,2013-08-28 12:50:00,
2013-08-28 05:51:00,79.6,69.3,29.41,ENE,72,5.6,7.1,71,-99.99,,,0.00,.33,rob ver 1B,2013-08-28 12:51:00,
2013-08-28 05:52:00,79.5,69.3,29.41,ENE,77,5.7,7.9,70,-99.99,,,0.00,.659,rob ver 1B,2013-08-28 12:52:00,
2013-08-28 05:53:00,79.5,69.2,29.41,ENE,69,5.6,7.3,70,-99.99,,,0.00,.659,rob ver 1B,2013-08-28 12:53:00,
2013-08-28 05:54:00,79.5,69.3,29.41,ENE,72,5.1,5.9,70,-99.99,,,0.00,.659,rob ver 1B,2013-08-28 12:54:00,
2013-08-28 05:55:00,84.8,65.6,29.21,NW,308,1.7,1.9,52,-99.99,,,0.00,2.307,rob ver 1A,2013-08-28 12:55:00,
2013-08-28 05:56:00,79.5,69.2,29.41,ENE,73,5.1,6.5,70,-99.99,,,0.00,1.484,rob ver 1B,2013-08-28 12:56:00,
2013-08-28 05:57:00,79.5,69.2,29.41,ENE,74,4.6,5.8,70,-99.99,,,0.00,1.978,rob ver 1B,2013-08-28 12:57:00,
2013-08-28 05:58:00,79.5,69.2,29.41,East,81,5.0,6.4,70,-99.99,,,0.00,2.637,rob ver 1B,2013-08-28 12:58:00,
2013-08-28 05:59:00,79.5,69.2,29.41,ENE,73,5.1,6.6,70,-99.99,,,0.00,3.297,rob ver 1B,2013-08-28 12:59:00,
2013-08-28 06:00:00,84.6,65.3,29.21,NW,315,2.3,2.5,52,-99.99,,,0.00,7.25,rob ver 1A,2013-08-28 13:00:00,
2013-08-28 06:01:00,79.5,69.1,29.41,ENE,74,4.7,6.5,70,-99.99,,,0.00,5.275,rob ver 1B,2013-08-28 13:01:00,
2013-08-28 06:02:00,79.5,69.1,29.41,ENE,78,5.2,7.0,70,-99.99,,,0.00,6.264,rob ver 1B,2013-08-28 13:02:00,
2013-08-28 06:03:00,79.5,69.0,29.41,East,79,5.6,7.9,70,-99.99,,,0.00,7.25,rob ver 1B,2013-08-28 13:03:00,
2013-08-28 06:04:00,79.5,69.0,29.41,ENE,69,5.2,6.8,70,-99.99,,,0.00,8.9,rob ver 1B,2013-08-28 13:04:00,
2013-08-28 06:05:00,79.5,69.0,29.41,ENE,71,4.7,5.8,70,-99.99,,,0.00,10.22,rob ver 1B,2013-08-28 13:05:00,
2013-08-28 06:06:00,84.6,65.2,29.21,WNW,285,2.5,3.0,52,-99.99,,,0.00,15.16,rob ver 1A,2013-08-28 13:06:00,
2013-08-28 06:07:00,79.5,69.0,29.41,ENE,72,5.0,7.2,70,-99.99,,,0.00,14.51,rob ver 1B,2013-08-28 13:07:00,
2013-08-28 06:08:00,79.5,68.9,29.41,ENE,71,6.6,7.7,69,-99.99,,,0.00,17.64,rob ver 1B,2013-08-28 13:08:00,
2013-08-28 06:09:00,79.5,68.8,29.41,ENE,76,7.0,8.6,69,-99.99,,,0.00,20.44,rob ver 1B,2013-08-28 13:09:00,
2013-08-28 06:10:00,79.5,68.8,29.41,ENE,74,6.2,8.0,69,-99.99,,,0.00,23.08,rob ver 1B,2013-08-28 13:10:00,
2013-08-28 06:11:00,84.6,65.4,29.23,West,264,3.0,3.2,52,-99.99,,,0.00,31.65,rob ver 1A,2013-08-28 13:11:00,
2013-08-28 06:12:00,79.5,68.8,29.41,ENE,68,5.7,7.8,69,-99.99,,,0.00,29.34,rob ver 1B,2013-08-28 13:12:00,
2013-08-28 06:13:00,79.5,68.9,29.41,ENE,72,6.2,8.5,69,-99.99,,,0.00,33.63,rob ver 1B,2013-08-28 13:13:00,
2013-08-28 06:14:00,79.5,68.9,29.41,ENE,69,5.9,7.4,69,-99.99,,,0.00,38.08,rob ver 1B,2013-08-28 13:14:00,
2013-08-28 06:15:00,79.5,68.9,29.41,ENE,66,6.1,8.4,70,-99.99,,,0.00,42.86,rob ver 1B,2013-08-28 13:15:00,
2013-08-28 06:16:00,84.5,65.4,29.23,WNW,293,1.6,2.4,52,-99.99,,,0.00,60.65,rob ver 1A,2013-08-28 13:16:00,
2013-08-28 06:17:00,79.5,68.9,29.41,ENE,68,5.7,7.7,70,-99.99,,,0.00,60.33,rob ver 1B,2013-08-28 13:17:00,
2013-08-28 06:18:00,79.5,69.0,29.41,ENE,68,4.9,6.3,70,-99.99,,,0.00,74.2,rob ver 1B,2013-08-28 13:18:00,
2013-08-28 06:19:00,79.5,69.0,29.41,ENE,75,5.1,7.5,70,-99.99,,,0.00,80.1,rob ver 1B,2013-08-28 13:19:00,
2013-08-28 06:20:00,79.5,69.0,29.41,ENE,69,6.1,7.6,70,-99.99,,,0.00,87,rob ver 1B,2013-08-28 13:20:00,
2013-08-28 06:21:00,84.5,65.3,29.23,North,9,2.4,2.6,52,-99.99,,,0.00,98.6,rob ver 1A,2013-08-28 13:21:00,
2013-08-28 06:22:00,79.5,69.0,29.41,ENE,72,6.4,8.0,70,-99.99,,,0.00,104.5,rob ver 1B,2013-08-28 13:22:00,
2013-08-28 06:23:00,79.6,69.0,29.41,ENE,73,6.0,7.7,69,-99.99,,,0.00,112.7,rob ver 1B,2013-08-28 13:23:00,
2013-08-28 06:24:00,79.6,69.0,29.41,ENE,70,6.3,8.6,69,-99.99,,,0.00,108.1,rob ver 1B,2013-08-28 13:24:00,
2013-08-28 06:25:00,79.6,69.0,29.41,ENE,71,6.6,8.0,69,-99.99,,,0.00,94.6,rob ver 1B,2013-08-28 13:25:00,
2013-08-28 06:26:00,84.9,65.2,29.23,North,0,0.9,1.0,51,-99.99,,,0.00,152.6,rob ver 1A,2013-08-28 13:26:00,
2013-08-28 06:27:00,79.6,68.9,29.41,ENE,76,6.8,8.0,69,-99.99,,,0.00,106.5,rob ver 1B,2013-08-28 13:27:00,
2013-08-28 06:28:00,79.6,69.0,29.41,ENE,75,5.8,7.6,69,-99.99,,,0.00,131.2,rob ver 1B,2013-08-28 13:28:00,
2013-08-28 06:29:00,79.6,69.0,29.41,East,80,5.3,7.2,70,-99.99,,,0.00,126.6,rob ver 1B,2013-08-28 13:29:00,
2013-08-28 06:30:00,79.6,69.0,29.41,ENE,77,7.3,9.8,69,-99.99,,,0.00,96.6,rob ver 1B,2013-08-28 13:30:00,
2013-08-28 06:31:00,85.7,65.1,29.23,NW,317,0.8,1.0,50,-99.99,,,0.00,217.6,rob ver 1A,2013-08-28 13:31:00,
2013-08-28 06:32:00,79.6,69.1,29.41,ENE,73,6.0,7.4,70,-99.99,,,0.00,88.7,rob ver 1B,2013-08-28 13:32:00,
2013-08-28 06:33:00,79.6,69.1,29.41,ENE,72,6.6,8.5,70,-99.99,,,0.00,88.7,rob ver 1B,2013-08-28 13:33:00,
2013-08-28 06:34:00,79.6,69.1,29.41,ENE,70,5.2,7.4,70,-99.99,,,0.00,89.3,rob ver 1B,2013-08-28 13:34:00,
2013-08-28 06:35:00,79.6,69.2,29.41,ENE,69,4.9,6.8,70,-99.99,,,0.00,90,rob ver 1B,2013-08-28 13:35:00,
2013-08-28 06:36:00,86.0,65.3,29.23,NNW,328,0.8,1.1,49,-99.99,,,0.00,276.2,rob ver 1A,2013-08-28 13:36:00,
2013-08-28 06:37:00,79.6,69.2,29.41,ENE,77,6.6,7.6,70,-99.99,,,0.00,92.6,rob ver 1B,2013-08-28 13:37:00,
2013-08-28 06:38:00,79.6,69.2,29.41,ENE,72,6.0,7.2,70,-99.99,,,0.00,94.3,rob ver 1B,2013-08-28 13:38:00,
2013-08-28 06:39:00,79.6,69.2,29.41,ENE,78,5.2,6.7,70,-99.99,,,0.00,95.9,rob ver 1B,2013-08-28 13:39:00,
2013-08-28 06:40:00,79.6,69.2,29.41,ENE,74,5.1,6.8,70,-99.99,,,0.00,98.1,rob ver 1B,2013-08-28 13:40:00,
2013-08-28 06:41:00,86.5,65.2,29.23,West,274,0.9,1.1,49,-99.99,,,0.00,343.5,rob ver 1A,2013-08-28 13:41:00,
2013-08-28 06:42:00,79.6,69.3,29.41,ENE,74,4.7,5.8,70,-99.99,,,0.00,104.2,rob ver 1B,2013-08-28 13:42:00,
2013-08-28 06:43:00,79.6,69.3,29.41,ENE,74,5.2,6.8,70,-99.99,,,0.00,108.5,rob ver 1B,2013-08-28 13:43:00,
2013-08-28 06:44:00,79.6,69.3,29.41,ENE,73,5.8,7.1,70,-99.99,,,0.00,113.6,rob ver 1B,2013-08-28 13:44:00,
2013-08-28 06:45:00,79.6,69.3,29.41,ENE,71,5.0,6.5,70,-99.99,,,0.00,119.7,rob ver 1B,2013-08-28 13:45:00,
2013-08-28 06:46:00,86.5,65.2,29.23,NNW,348,1.3,1.6,49,-99.99,,,0.00,437.1,rob ver 1A,2013-08-28 13:46:00,
2013-08-28 06:47:00,79.6,69.4,29.41,ENE,72,4.2,5.8,71,-99.99,,,0.00,133.8,rob ver 1B,2013-08-28 13:47:00,
2013-08-28 06:48:00,79.6,69.4,29.41,ENE,69,4.6,7.1,70,-99.99,,,0.00,142.4,rob ver 1B,2013-08-28 13:48:00,
2013-08-28 06:49:00,79.7,69.4,29.41,ENE,68,4.4,6.6,70,-99.99,,,0.00,151.2,rob ver 1B,2013-08-28 13:49:00,
2013-08-28 06:50:00,79.7,69.4,29.41,ENE,72,4.9,6.9,70,-99.99,,,0.00,159.2,rob ver 1B,2013-08-28 13:50:00,
2013-08-28 06:51:00,86.1,65.2,29.23,North,2,2.1,2.4,49,-99.99,,,0.00,520.5,rob ver 1A,2013-08-28 13:51:00,
2013-08-28 06:52:00,79.7,69.4,29.41,ENE,70,3.9,4.9,70,-99.99,,,0.00,171.4,rob ver 1B,2013-08-28 13:52:00,
2013-08-28 06:53:00,79.8,69.4,29.41,ENE,75,5.0,6.3,70,-99.99,,,0.00,174.2,rob ver 1B,2013-08-28 13:53:00,
2013-08-28 06:54:00,79.8,69.4,29.41,ENE,71,4.1,5.6,70,-99.99,,,0.00,175.7,rob ver 1B,2013-08-28 13:54:00,
2013-08-28 06:55:00,79.8,69.5,29.41,ENE,78,4.0,5.5,70,-99.99,,,0.00,175.7,rob ver 1B,2013-08-28 13:55:00,
2013-08-28 06:56:00,86.9,65.2,29.23,NNW,327,1.7,1.8,48,-99.99,,,0.00,603.9,rob ver 1A,2013-08-28 13:56:00,
2013-08-28 06:57:00,79.8,69.4,29.41,ENE,78,3.9,4.7,70,-99.99,,,0.00,168.5,rob ver 1B,2013-08-28 13:57:00,
2013-08-28 06:58:00,79.8,69.5,29.41,East,82,3.4,4.9,70,-99.99,,,0.00,164.5,rob ver 1B,2013-08-28 13:58:00,
2013-08-28 06:59:00,79.9,69.5,29.41,East,81,4.4,5.5,70,-99.99,,,0.00,162.9,rob ver 1B,2013-08-28 13:59:00,
2013-08-28 07:00:00,79.9,69.5,29.44,ENE,74,4.4,5.4,70,-99.99,,,0.00,163.8,rob ver 1B,2013-08-28 14:00:00,
2013-08-28 07:01:00,79.9,69.5,29.44,East,84,4.3,5.2,70,-99.99,,,0.00,167.1,rob ver 1B,2013-08-28 14:01:00,
2013-08-28 07:02:00,86.9,65.3,29.23,NNW,345,1.9,2.3,48,-99.99,,,0.00,690.9,rob ver 1A,2013-08-28 14:02:00,
2013-08-28 07:03:00,79.9,69.6,29.44,East,80,4.5,6.1,70,-99.99,,,0.00,177,rob ver 1B,2013-08-28 14:03:00,
2013-08-28 07:04:00,79.9,69.6,29.44,East,84,4.6,6.0,70,-99.99,,,0.00,183.3,rob ver 1B,2013-08-28 14:04:00,
2013-08-28 07:05:00,79.9,69.5,29.44,ENE,75,4.9,6.0,70,-99.99,,,0.00,188.9,rob ver 1B,2013-08-28 14:05:00,
2013-08-28 07:06:00,80.0,69.6,29.44,East,81,5.0,6.4,70,-99.99,,,0.00,194.2,rob ver 1B,2013-08-28 14:06:00,
2013-08-28 07:07:00,87.3,65.3,29.26,NNE,12,1.7,2.0,48,-99.99,,,0.00,802,rob ver 1A,2013-08-28 14:07:00,
2013-08-28 07:08:00,80.0,69.5,29.44,ENE,77,5.6,7.0,70,-99.99,,,0.00,204.7,rob ver 1B,2013-08-28 14:08:00,
2013-08-28 07:09:00,80.0,69.6,29.44,ENE,72,5.8,8.1,70,-99.99,,,0.00,211.6,rob ver 1B,2013-08-28 14:09:00,
2013-08-28 07:10:00,80.0,69.6,29.44,East,82,5.4,6.6,70,-99.99,,,0.00,217.6,rob ver 1B,2013-08-28 14:10:00,
2013-08-28 07:11:00,80.0,69.5,29.44,ENE,75,5.6,6.8,70,-99.99,,,0.00,223.8,rob ver 1B,2013-08-28 14:11:00,
2013-08-28 07:12:00,88.0,65.3,29.23,NNE,13,1.4,1.8,46,-99.99,,,0.00,892,rob ver 1A,2013-08-28 14:12:00,
2013-08-28 07:13:00,80.0,69.6,29.44,ENE,75,5.4,6.5,70,-99.99,,,0.00,240.3,rob ver 1B,2013-08-28 14:13:00,
2013-08-28 07:14:00,80.0,69.6,29.44,ENE,73,4.1,5.7,70,-99.99,,,0.00,248.9,rob ver 1B,2013-08-28 14:14:00,
2013-08-28 07:15:00,80.1,69.7,29.44,ENE,78,4.8,6.6,70,-99.99,,,0.00,256.5,rob ver 1B,2013-08-28 14:15:00,
2013-08-28 07:16:00,80.1,69.6,29.44,ENE,76,6.5,8.2,70,-99.99,,,0.00,261.1,rob ver 1B,2013-08-28 14:16:00,
2013-08-28 07:17:00,88.9,65.2,29.26,North,357,1.5,2.1,45,-99.99,,,0.00,996,rob ver 1A,2013-08-28 14:17:00,
2013-08-28 07:18:00,80.1,69.7,29.44,ENE,73,5.5,6.6,70,-99.99,,,0.00,283.4,rob ver 1B,2013-08-28 14:18:00,
2013-08-28 07:19:00,80.2,69.8,29.44,ENE,78,6.0,7.4,70,-99.99,,,0.00,353.6,rob ver 1B,2013-08-28 14:19:00,
2013-08-28 07:20:00,80.2,69.7,29.44,ENE,78,7.0,8.6,70,-99.99,,,0.00,462.5,rob ver 1B,2013-08-28 14:20:00,
2013-08-28 07:21:00,80.2,69.7,29.44,ENE,71,6.9,8.5,70,-99.99,,,0.00,469.1,rob ver 1B,2013-08-28 14:21:00,
2013-08-28 07:22:00,88.9,65.2,29.26,NW,326,1.3,1.7,45,-99.99,,,0.00,1138,rob ver 1A,2013-08-28 14:22:00,
2013-08-28 07:23:00,80.4,69.8,29.44,East,79,6.9,8.9,69,-99.99,,,0.00,946,rob ver 1B,2013-08-28 14:23:00,
2013-08-28 07:24:00,80.5,69.8,29.44,East,86,6.5,8.7,69,-99.99,,,0.00,379.6,rob ver 1B,2013-08-28 14:24:00,
2013-08-28 07:25:00,80.6,69.8,29.44,ENE,73,6.5,9.1,69,-99.99,,,0.00,345.8,rob ver 1B,2013-08-28 14:25:00,
2013-08-28 07:26:00,80.6,69.8,29.44,East,81,6.9,8.1,69,-99.99,,,0.00,320.3,rob ver 1B,2013-08-28 14:26:00,
2013-08-28 07:27:00,89.5,65.6,29.26,WSW,249,2.7,3.0,45,-99.99,,,0.00,1264,rob ver 1A,2013-08-28 14:27:00,
2013-08-28 07:28:00,80.5,69.7,29.44,East,86,6.9,7.9,69,-99.99,,,0.00,320.1,rob ver 1B,2013-08-28 14:28:00,
2013-08-28 07:29:00,80.4,69.8,29.44,East,95,5.5,7.5,70,-99.99,,,0.00,330.7,rob ver 1B,2013-08-28 14:29:00,
2013-08-28 07:30:00,80.4,69.9,29.44,ESE,104,4.3,5.6,70,-99.99,,,0.00,344.5,rob ver 1B,2013-08-28 14:30:00,
2013-08-28 07:31:00,80.4,69.9,29.44,East,100,3.8,4.9,70,-99.99,,,0.00,368.2,rob ver 1B,2013-08-28 14:31:00,
2013-08-28 07:32:00,89.4,65.6,29.26,SW,221,3.4,4.0,45,-99.99,,,0.00,1368,rob ver 1A,2013-08-28 14:32:00,
2013-08-28 07:33:00,80.4,69.8,29.44,East,89,5.0,6.1,70,-99.99,,,0.00,480.5,rob ver 1B,2013-08-28 14:33:00,
2013-08-28 07:34:00,80.5,69.9,29.44,East,96,3.8,5.1,70,-99.99,,,0.00,680.8,rob ver 1B,2013-08-28 14:34:00,
2013-08-28 07:35:00,80.5,70.0,29.44,ESE,102,4.9,5.8,70,-99.99,,,0.00,1043,rob ver 1B,2013-08-28 14:35:00,
2013-08-28 07:36:00,80.7,70.1,29.44,East,90,4.6,5.8,69,-99.99,,,0.00,602.3,rob ver 1B,2013-08-28 14:36:00,
2013-08-28 07:37:00,89.8,65.5,29.26,SSW,198,2.9,3.2,44,-99.99,,,0.00,1462,rob ver 1A,2013-08-28 14:37:00,
2013-08-28 07:38:00,80.9,70.1,29.44,East,93,5.3,6.6,69,-99.99,,,0.00,1076,rob ver 1B,2013-08-28 14:38:00,
2013-08-28 07:39:00,81.0,70.0,29.44,East,98,6.3,7.5,69,-99.99,,,0.00,969,rob ver 1B,2013-08-28 14:39:00,
2013-08-28 07:40:00,81.1,69.9,29.44,East,100,6.6,8.2,68,-99.99,,,0.00,1407,rob ver 1B,2013-08-28 14:40:00,
2013-08-28 07:41:00,81.1,69.8,29.44,East,101,7.2,8.2,68,-99.99,,,0.00,1214,rob ver 1B,2013-08-28 14:41:00,
2013-08-28 07:42:00,90.6,65.4,29.26,SSE,166,2.1,2.8,43,-99.99,,,0.00,1580,rob ver 1A,2013-08-28 14:42:00,
2013-08-28 07:43:00,81.1,69.9,29.44,East,95,6.3,7.7,68,-99.99,,,0.00,616,rob ver 1B,2013-08-28 14:43:00,
2013-08-28 07:44:00,81.1,69.8,29.44,East,99,6.5,7.5,69,-99.99,,,0.00,548.9,rob ver 1B,2013-08-28 14:44:00,
2013-08-28 07:45:00,81.0,69.9,29.44,East,89,6.3,8.7,68,-99.99,,,0.00,541.1,rob ver 1B,2013-08-28 14:45:00,
2013-08-28 07:46:00,80.9,69.7,29.44,East,91,7.9,9.4,68,-99.99,,,0.00,520.5,rob ver 1B,2013-08-28 14:46:00,
2013-08-28 07:47:00,91.0,65.3,29.26,South,182,1.8,2.4,42,-99.99,,,0.00,1687,rob ver 1A,2013-08-28 14:47:00,
2013-08-28 07:48:00,80.8,69.7,29.44,East,83,6.7,8.5,68,-99.99,,,0.00,528.4,rob ver 1B,2013-08-28 14:48:00,
2013-08-28 07:49:00,80.8,69.8,29.44,East,90,6.0,7.4,69,-99.99,,,0.00,544.3,rob ver 1B,2013-08-28 14:49:00,
2013-08-28 07:50:00,80.9,69.8,29.44,East,89,7.1,9.6,68,-99.99,,,0.00,563.9,rob ver 1B,2013-08-28 14:50:00,
2013-08-28 07:51:00,80.9,69.6,29.44,East,84,7.2,9.9,68,-99.99,,,0.00,585.3,rob ver 1B,2013-08-28 14:51:00,
2013-08-28 07:52:00,80.8,69.7,29.44,East,85,6.9,8.9,68,-99.99,,,0.00,616.3,rob ver 1B,2013-08-28 14:52:00,
2013-08-28 07:53:00,91.7,65.2,29.26,SE,131,0.3,0.6,41,-99.99,,,0.00,1801,rob ver 1A,2013-08-28 14:53:00,
2013-08-28 07:54:00,80.9,69.5,29.44,East,87,7.0,9.3,68,-99.99,,,0.00,726,rob ver 1B,2013-08-28 14:54:00,
2013-08-28 07:55:00,81.0,69.7,29.44,East,92,6.3,8.9,68,-99.99,,,0.00,779,rob ver 1B,2013-08-28 14:55:00,
2013-08-28 07:56:00,81.0,69.7,29.44,ESE,107,6.5,8.5,68,-99.99,,,0.00,808,rob ver 1B,2013-08-28 14:56:00,
2013-08-28 07:57:00,81.1,69.8,29.44,ESE,104,6.2,7.7,68,-99.99,,,0.00,797,rob ver 1B,2013-08-28 14:57:00,
2013-08-28 07:58:00,92.6,64.8,29.26,SSW,210,2.3,3.2,39,-99.99,,,0.00,1962,rob ver 1A,2013-08-28 14:58:00,
2013-08-28 07:59:00,81.1,69.7,29.44,East,96,5.3,7.4,69,-99.99,,,0.00,710,rob ver 1B,2013-08-28 14:59:00,
2013-08-28 08:00:00,81.1,70.2,29.44,East,94,4.7,7.0,69,-99.99,,,0.00,682.1,rob ver 1B,2013-08-28 15:00:00,
2013-08-28 08:01:00,81.0,70.1,29.44,East,100,5.1,7.4,69,-99.99,,,0.00,686,rob ver 1B,2013-08-28 15:01:00,
2013-08-28 08:02:00,81.0,70.1,29.47,East,98,6.3,8.7,70,-99.99,,,0.00,736,rob ver 1B,2013-08-28 15:02:00,
2013-08-28 08:03:00,92.3,64.6,29.26,WSW,246,1.8,2.5,40,-99.99,,,0.00,2084,rob ver 1A,2013-08-28 15:03:00,
2013-08-28 08:04:00,80.8,70.6,29.47,ESE,102,4.1,4.7,70,-99.99,,,0.00,1005,rob ver 1B,2013-08-28 15:04:00,
2013-08-28 08:05:00,80.8,70.2,29.47,East,93,6.1,8.3,68,-99.99,,,0.00,768,rob ver 1B,2013-08-28 15:05:00,
2013-08-28 08:06:00,80.9,69.4,29.47,East,90,7.6,10.1,67,-99.99,,,0.00,735,rob ver 1B,2013-08-28 15:06:00,
2013-08-28 08:07:00,81.1,69.3,29.47,East,84,8.5,10.4,67,-99.99,,,0.00,663.4,rob ver 1B,2013-08-28 15:07:00,
2013-08-28 08:08:00,92.5,63.4,29.26,SW,221,3.3,4.0,38,-99.99,,,0.00,2204,rob ver 1A,2013-08-28 15:08:00,
2013-08-28 08:09:00,81.1,69.2,29.47,East,85,7.4,8.7,67,-99.99,,,0.00,545.6,rob ver 1B,2013-08-28 15:09:00,
2013-08-28 08:10:00,81.2,69.2,29.47,East,80,7.1,10.2,66,-99.99,,,0.00,509.3,rob ver 1B,2013-08-28 15:10:00,
2013-08-28 08:11:00,81.3,69.2,29.47,ENE,74,7.7,9.8,66,-99.99,,,0.00,486.9,rob ver 1B,2013-08-28 15:11:00,
2013-08-28 08:12:00,81.3,69.2,29.47,ENE,74,7.5,9.3,66,-99.99,,,0.00,501.4,rob ver 1B,2013-08-28 15:12:00,
2013-08-28 08:13:00,92.4,63.4,29.26,SW,231,2.4,3.9,38,-99.99,,,0.00,2307,rob ver 1A,2013-08-28 15:13:00,
2013-08-28 08:14:00,81.4,69.2,29.47,East,86,7.6,9.3,66,-99.99,,,0.00,516.1,rob ver 1B,2013-08-28 15:14:00,
2013-08-28 08:15:00,81.3,69.1,29.47,ENE,71,6.4,9.0,66,-99.99,,,0.00,558.4,rob ver 1B,2013-08-28 15:15:00,
2013-08-28 08:16:00,81.3,69.1,29.47,East,84,6.9,9.1,66,-99.99,,,0.00,1064,rob ver 1B,2013-08-28 15:16:00,
2013-08-28 08:17:00,81.4,69.2,29.47,East,82,6.9,9.7,66,-99.99,,,0.00,780,rob ver 1B,2013-08-28 15:17:00,
2013-08-28 08:18:00,92.8,63.6,29.26,WSW,243,3.5,4.9,37,-99.99,,,0.00,2440,rob ver 1A,2013-08-28 15:18:00,
2013-08-28 08:19:00,81.6,69.0,29.47,ENE,76,8.0,10.8,65,-99.99,,,0.00,856,rob ver 1B,2013-08-28 15:19:00,
2013-08-28 08:20:00,81.6,69.0,29.47,ENE,72,7.2,9.6,65,-99.99,,,0.00,1057,rob ver 1B,2013-08-28 15:20:00,
2013-08-28 08:21:00,81.6,69.1,29.47,East,82,6.4,7.7,65,-99.99,,,0.00,941,rob ver 1B,2013-08-28 15:21:00,
2013-08-28 08:22:00,81.8,69.1,29.47,ENE,67,5.9,8.8,65,-99.99,,,0.00,974,rob ver 1B,2013-08-28 15:22:00,
2013-08-28 08:23:00,92.6,62.6,29.26,West,262,5.1,6.8,36,-99.99,,,0.00,2565,rob ver 1A,2013-08-28 15:23:00,
2013-08-28 08:24:00,82.0,68.8,29.47,ENE,66,6.9,9.9,64,-99.99,,,0.00,956,rob ver 1B,2013-08-28 15:24:00,
2013-08-28 08:25:00,82.0,68.8,29.47,ENE,66,6.9,8.9,64,-99.99,,,0.00,2570,rob ver 1B,2013-08-28 15:25:00,
2013-08-28 08:26:00,82.1,68.8,29.47,ENE,60,8.2,10.3,63,-99.99,,,0.00,1121,rob ver 1B,2013-08-28 15:26:00,
2013-08-28 08:27:00,82.2,68.7,29.47,ENE,71,8.5,10.5,63,-99.99,,,0.00,792,rob ver 1B,2013-08-28 15:27:00,
2013-08-28 08:28:00,92.7,62.8,29.26,WSW,257,4.8,6.0,37,-99.99,,,0.00,2682,rob ver 1A,2013-08-28 15:28:00,
2013-08-28 08:29:00,82.3,68.9,29.47,East,80,8.0,10.0,63,-99.99,,,0.00,756,rob ver 1B,2013-08-28 15:29:00,
2013-08-28 08:30:00,82.2,68.8,29.47,ENE,75,8.3,9.4,64,-99.99,,,0.00,803,rob ver 1B,2013-08-28 15:30:00,
2013-08-28 08:31:00,82.1,68.8,29.47,ENE,74,8.1,10.1,64,-99.99,,,0.00,2403,rob ver 1B,2013-08-28 15:31:00,
2013-08-28 08:32:00,82.2,68.9,29.47,ENE,74,7.9,9.6,63,-99.99,,,0.00,1589,rob ver 1B,2013-08-28 15:32:00,
2013-08-28 08:33:00,92.8,63.1,29.26,WSW,258,5.4,7.0,37,-99.99,,,0.00,0,rob ver 1A,2013-08-28 15:33:00,
2013-08-28 08:34:00,82.6,68.9,29.47,East,82,7.3,9.2,63,-99.99,,,0.00,1193,rob ver 1B,2013-08-28 15:34:00,
2013-08-28 08:35:00,82.6,68.8,29.47,East,79,7.7,9.3,63,-99.99,,,0.00,1880,rob ver 1B,2013-08-28 15:35:00,
2013-08-28 08:36:00,82.6,68.9,29.47,ENE,70,7.1,8.8,63,-99.99,,,0.00,2360,rob ver 1B,2013-08-28 15:36:00,
2013-08-28 08:37:00,82.8,68.8,29.47,East,80,7.8,9.1,62,-99.99,,,0.00,0,rob ver 1B,2013-08-28 15:37:00,
2013-08-28 08:38:00,92.9,62.9,29.26,WNW,282,4.9,5.9,36,-99.99,,,0.00,0,rob ver 1A,2013-08-28 15:38:00,
2013-08-28 08:39:00,83.0,68.8,29.47,ENE,72,7.2,8.6,62,-99.99,,,0.00,1246,rob ver 1B,2013-08-28 15:39:00,
2013-08-28 08:40:00,83.1,68.8,29.47,East,82,7.4,9.0,62,-99.99,,,0.00,1249,rob ver 1B,2013-08-28 15:40:00,
2013-08-28 08:41:00,83.2,68.9,29.47,East,87,6.9,9.8,61,-99.99,,,0.00,0,rob ver 1B,2013-08-28 15:41:00,
2013-08-28 08:42:00,83.3,68.8,29.47,East,90,8.8,11.1,61,-99.99,,,0.00,2499,rob ver 1B,2013-08-28 15:42:00,
2013-08-28 08:43:00,93.1,62.8,29.26,West,277,5.1,6.4,36,-99.99,,,0.00,0,rob ver 1A,2013-08-28 15:43:00,
2013-08-28 08:44:00,83.3,68.8,29.47,East,88,7.8,10.2,61,-99.99,,,0.00,1758,rob ver 1B,2013-08-28 15:44:00,
2013-08-28 08:45:00,83.3,69.0,29.47,ENE,76,6.4,8.5,62,-99.99,,,0.00,2428,rob ver 1B,2013-08-28 15:45:00,
2013-08-28 08:46:00,83.7,69.1,29.47,East,81,5.7,7.7,61,-99.99,,,0.00,1812,rob ver 1B,2013-08-28 15:46:00,
2013-08-28 08:47:00,83.9,68.7,29.47,ENE,65,6.0,8.6,60,-99.99,,,0.00,1682,rob ver 1B,2013-08-28 15:47:00,
2013-08-28 08:48:00,93.5,62.2,29.26,WSW,254,5.1,6.3,35,-99.99,,,0.00,0,rob ver 1A,2013-08-28 15:48:00,
2013-08-28 08:49:00,84.2,69.0,29.47,ENE,72,5.0,7.9,59,-99.99,,,0.00,0,rob ver 1B,2013-08-28 15:49:00,
2013-08-28 08:50:00,84.3,68.8,29.47,ENE,59,5.9,7.5,59,-99.99,,,0.00,0,rob ver 1B,2013-08-28 15:50:00,
2013-08-28 08:51:00,84.3,68.8,29.47,ENE,66,7.5,11.3,59,-99.99,,,0.00,0,rob ver 1B,2013-08-28 15:51:00,
2013-08-28 08:52:00,84.5,68.7,29.47,ENE,60,7.6,9.0,59,-99.99,,,0.00,0,rob ver 1B,2013-08-28 15:52:00,
2013-08-28 08:53:00,84.5,68.8,29.47,ENE,70,7.0,9.6,58,-99.99,,,0.00,0,rob ver 1B,2013-08-28 15:53:00,
2013-08-28 08:54:00,93.6,61.7,29.26,West,272,6.6,8.4,34,-99.99,,,0.00,0,rob ver 1A,2013-08-28 15:54:00,
2013-08-28 08:55:00,84.6,68.7,29.47,ENE,69,4.6,7.2,59,-99.99,,,0.00,0,rob ver 1B,2013-08-28 15:55:00,
2013-08-28 08:56:00,85.0,68.9,29.47,ENE,73,6.5,9.8,57,-99.99,,,0.00,0,rob ver 1B,2013-08-28 15:56:00,
2013-08-28 08:57:00,85.0,68.7,29.47,ENE,73,6.9,10.2,58,-99.99,,,0.00,0,rob ver 1B,2013-08-28 15:57:00,
2013-08-28 08:58:00,84.9,68.7,29.47,ENE,78,4.5,6.4,58,-99.99,,,0.00,0,rob ver 1B,2013-08-28 15:58:00,
2013-08-28 08:59:00,94.0,61.7,29.26,WNW,289,5.5,7.2,33,-99.99,,,0.00,0,rob ver 1A,2013-08-28 15:59:00,
2013-08-28 09:00:00,85.1,68.9,29.47,East,96,7.0,8.9,57,-99.99,,,0.00,0,rob ver 1B,2013-08-28 16:00:00,
2013-08-28 09:01:00,85.5,68.8,29.47,East,93,7.1,8.4,57,-99.99,,,0.00,0,rob ver 1B,2013-08-28 16:01:00,
2013-08-28 09:02:00,85.6,68.8,29.47,East,81,7.6,12.0,56,-99.99,,,0.00,0,rob ver 1B,2013-08-28 16:02:00,
2013-08-28 09:03:00,85.6,68.8,29.47,East,82,5.8,9.1,56,-99.99,,,0.00,0,rob ver 1B,2013-08-28 16:03:00,
2013-08-28 09:04:00,94.5,61.8,29.26,WSW,257,5.6,8.1,33,-99.99,,,0.00,0,rob ver 1A,2013-08-28 16:04:00,
2013-08-28 09:05:00,85.7,68.5,29.47,ENE,68,8.5,10.0,56,-99.99,,,0.00,0,rob ver 1B,2013-08-28 16:05:00,
2013-08-28 09:06:00,85.6,68.4,29.47,ENE,61,8.2,9.5,56,-99.99,,,0.00,0,rob ver 1B,2013-08-28 16:06:00,
2013-08-28 09:07:00,85.5,68.7,29.47,ENE,66,7.3,10.1,57,-99.99,,,0.00,0,rob ver 1B,2013-08-28 16:07:00,
2013-08-28 09:08:00,85.5,68.5,29.47,ENE,75,7.9,9.5,57,-99.99,,,0.00,0,rob ver 1B,2013-08-28 16:08:00,
2013-08-28 09:09:00,94.7,61.7,29.26,West,275,4.4,7.8,33,-99.99,,,0.00,0,rob ver 1A,2013-08-28 16:09:00,
2013-08-28 09:10:00,85.4,68.6,29.47,East,89,6.1,8.5,57,-99.99,,,0.00,0,rob ver 1B,2013-08-28 16:10:00,
2013-08-28 09:11:00,85.6,68.8,29.47,East,90,6.5,8.2,56,-99.99,,,0.00,0,rob ver 1B,2013-08-28 16:11:00,
2013-08-28 09:12:00,85.9,68.5,29.47,ENE,76,6.9,8.6,55,-99.99,,,0.00,0,rob ver 1B,2013-08-28 16:12:00,
2013-08-28 09:13:00,86.1,68.5,29.47,East,90,7.0,8.8,55,-99.99,,,0.00,0,rob ver 1B,2013-08-28 16:13:00,
2013-08-28 09:14:00,94.8,61.7,29.26,West,273,4.6,6.6,33,-99.99,,,0.00,0,rob ver 1A,2013-08-28 16:14:00,
2013-08-28 09:15:00,86.2,68.4,29.47,East,79,7.6,10.0,55,-99.99,,,0.00,0,rob ver 1B,2013-08-28 16:15:00,
2013-08-28 09:16:00,86.2,68.4,29.47,East,82,7.7,10.2,55,-99.99,,,0.00,0,rob ver 1B,2013-08-28 16:16:00,
2013-08-28 09:17:00,86.0,68.3,29.47,East,87,7.3,11.2,54,-99.99,,,0.00,0,rob ver 1B,2013-08-28 16:17:00,
2013-08-28 09:18:00,86.0,68.1,29.47,East,87,7.8,10.6,55,-99.99,,,0.00,0,rob ver 1B,2013-08-28 16:18:00,
2013-08-28 09:19:00,95.3,61.3,29.26,WNW,297,5.5,7.8,32,-99.99,,,0.00,0,rob ver 1A,2013-08-28 16:19:00,
2013-08-28 09:20:00,86.2,68.4,29.47,East,96,7.3,9.8,55,-99.99,,,0.00,0,rob ver 1B,2013-08-28 16:20:00,
2013-08-28 09:21:00,86.1,68.4,29.47,East,79,6.1,10.2,55,-99.99,,,0.00,0,rob ver 1B,2013-08-28 16:21:00,
2013-08-28 09:22:00,86.2,68.5,29.47,ENE,72,7.1,9.8,55,-99.99,,,0.00,0,rob ver 1B,2013-08-28 16:22:00,
2013-08-28 09:23:00,86.7,68.4,29.47,East,92,8.2,10.3,54,-99.99,,,0.00,0,rob ver 1B,2013-08-28 16:23:00,
2013-08-28 09:24:00,96.1,61.4,29.26,WNW,287,5.2,6.6,32,-99.99,,,0.00,0,rob ver 1A,2013-08-28 16:24:00,
2013-08-28 09:25:00,86.8,68.4,29.47,ENE,75,5.5,7.3,54,-99.99,,,0.00,0,rob ver 1B,2013-08-28 16:25:00,
2013-08-28 09:26:00,87.0,68.5,29.47,ENE,70,7.4,10.1,54,-99.99,,,0.00,0,rob ver 1B,2013-08-28 16:26:00,
2013-08-28 09:27:00,86.8,68.5,29.47,East,96,6.6,8.8,54,-99.99,,,0.00,0,rob ver 1B,2013-08-28 16:27:00,
2013-08-28 09:28:00,87.0,68.6,29.47,ESE,106,7.2,9.2,54,-99.99,,,0.00,0,rob ver 1B,2013-08-28 16:28:00,
2013-08-28 09:29:00,87.2,68.8,29.47,East,97,7.7,10.1,53,-99.99,,,0.00,0,rob ver 1B,2013-08-28 16:29:00,
2013-08-28 09:30:00,96.2,61.5,29.26,West,267,7.5,10.3,31,-99.99,,,0.00,0,rob ver 1A,2013-08-28 16:30:00,
2013-08-28 09:31:00,87.3,68.6,29.47,East,89,8.3,10.5,53,-99.99,,,0.00,0,rob ver 1B,2013-08-28 16:31:00,
2013-08-28 09:32:00,87.3,68.4,29.47,East,99,8.9,11.4,53,-99.99,,,0.00,0,rob ver 1B,2013-08-28 16:32:00,
2013-08-28 09:33:00,87.4,68.5,29.47,ESE,111,8.2,10.4,53,-99.99,,,0.00,0,rob ver 1B,2013-08-28 16:33:00,
2013-08-28 09:34:00,87.4,68.3,29.47,ESE,103,8.0,11.2,53,-99.99,,,0.00,0,rob ver 1B,2013-08-28 16:34:00,
2013-08-28 09:35:00,96.1,61.2,29.26,WNW,288,5.9,7.5,31,-99.99,,,0.00,0,rob ver 1A,2013-08-28 16:35:00,
2013-08-28 09:36:00,87.2,68.7,29.47,East,93,7.2,8.8,53,-99.99,,,0.00,2675,rob ver 1B,2013-08-28 16:36:00,
2013-08-28 09:37:00,87.3,68.8,29.47,SE,125,6.8,10.4,54,-99.99,,,0.00,0,rob ver 1B,2013-08-28 16:37:00,
2013-08-28 09:38:00,87.3,69.2,29.47,SE,133,8.6,11.9,55,-99.99,,,0.00,2536,rob ver 1B,2013-08-28 16:38:00,
2013-08-28 09:39:00,87.0,69.2,29.47,SE,133,8.0,11.8,55,-99.99,,,0.00,2425,rob ver 1B,2013-08-28 16:39:00,
2013-08-28 09:40:00,96.8,61.3,29.26,NNW,342,1.0,2.0,30,-99.99,,,0.00,0,rob ver 1A,2013-08-28 16:40:00,
2013-08-28 09:41:00,86.6,69.3,29.47,SE,137,8.4,11.1,56,-99.99,,,0.00,2569,rob ver 1B,2013-08-28 16:41:00,
2013-08-28 09:42:00,86.6,69.4,29.47,SE,132,10.0,12.8,56,-99.99,,,0.00,2165,rob ver 1B,2013-08-28 16:42:00,
2013-08-28 09:43:00,86.5,69.3,29.47,SE,140,8.9,10.7,56,-99.99,,,0.00,2225,rob ver 1B,2013-08-28 16:43:00,
2013-08-28 09:44:00,86.4,69.4,29.47,SE,140,9.6,12.7,57,-99.99,,,0.00,2117,rob ver 1B,2013-08-28 16:44:00,
2013-08-28 09:45:00,97.5,61.2,29.26,WNW,295,3.7,5.1,30,-99.99,,,0.00,0,rob ver 1A,2013-08-28 16:45:00,
2013-08-28 09:46:00,86.2,69.3,29.47,ESE,118,10.9,13.8,57,-99.99,,,0.00,2054,rob ver 1B,2013-08-28 16:46:00,
2013-08-28 09:47:00,86.1,69.2,29.47,East,101,9.6,13.3,57,-99.99,,,0.00,2130,rob ver 1B,2013-08-28 16:47:00,
2013-08-28 09:48:00,86.1,69.3,29.47,ESE,116,9.1,12.2,57,-99.99,,,0.00,2205,rob ver 1B,2013-08-28 16:48:00,
2013-08-28 09:49:00,86.0,69.4,29.47,SE,132,7.9,12.5,57,-99.99,,,0.00,2201,rob ver 1B,2013-08-28 16:49:00,
2013-08-28 09:50:00,98.4,61.1,29.26,WSW,246,0.9,1.9,29,-99.99,,,0.00,0,rob ver 1A,2013-08-28 16:50:00,
2013-08-28 09:51:00,85.8,69.3,29.47,SE,134,8.7,10.8,57,-99.99,,,0.00,2353,rob ver 1B,2013-08-28 16:51:00,
2013-08-28 09:52:00,86.0,69.3,29.47,ESE,117,8.4,10.5,57,-99.99,,,0.00,0,rob ver 1B,2013-08-28 16:52:00,
2013-08-28 09:53:00,86.2,69.1,29.47,ESE,112,8.7,10.6,56,-99.99,,,0.00,0,rob ver 1B,2013-08-28 16:53:00,
2013-08-28 09:54:00,86.1,69.1,29.47,ESE,113,8.8,11.3,56,-99.99,,,0.00,2534,rob ver 1B,2013-08-28 16:54:00,
2013-08-28 09:55:00,98.3,61.0,29.29,NNW,327,2.8,4.3,29,-99.99,,,0.00,0,rob ver 1A,2013-08-28 16:55:00,
2013-08-28 09:56:00,86.2,68.9,29.47,ESE,108,7.9,10.3,56,-99.99,,,0.00,2450,rob ver 1B,2013-08-28 16:56:00,
2013-08-28 09:57:00,86.3,69.1,29.47,ESE,120,8.3,10.1,56,-99.99,,,0.00,2472,rob ver 1B,2013-08-28 16:57:00,
2013-08-28 09:58:00,86.5,69.0,29.47,ESE,121,6.8,9.5,55,-99.99,,,0.00,0,rob ver 1B,2013-08-28 16:58:00,
2013-08-28 09:59:00,86.6,68.9,29.47,SE,132,8.0,9.8,56,-99.99,,,0.00,2506,rob ver 1B,2013-08-28 16:59:00,
2013-08-28 10:00:00,98.7,60.7,29.29,NW,314,1.6,2.6,28,-99.99,,,0.00,0,rob ver 1A,2013-08-28 17:00:00,
2013-08-28 10:01:00,86.3,68.9,29.47,SE,136,8.0,11.5,56,-99.99,,,0.00,2504,rob ver 1B,2013-08-28 17:01:00,
2013-08-28 10:02:00,86.3,69.0,29.47,SE,129,7.2,8.8,56,-99.99,,,0.00,2554,rob ver 1B,2013-08-28 17:02:00,
2013-08-28 10:03:00,86.5,69.2,29.47,SE,125,8.3,10.8,55,-99.99,,,0.00,2650,rob ver 1B,2013-08-28 17:03:00,
2013-08-28 10:04:00,86.9,69.0,29.47,ESE,105,7.5,9.3,54,-99.99,,,0.00,0,rob ver 1B,2013-08-28 17:04:00,
2013-08-28 10:05:00,100.2,61.1,29.29,WSW,251,1.2,1.8,27,-99.99,,,0.00,0,rob ver 1A,2013-08-28 17:05:00,
2013-08-28 10:06:00,87.0,68.9,29.47,East,93,4.1,6.0,55,-99.99,,,0.00,0,rob ver 1B,2013-08-28 17:06:00,
2013-08-28 10:07:00,87.0,69.2,29.47,ESE,116,5.6,9.8,54,-99.99,,,0.00,0,rob ver 1B,2013-08-28 17:07:00,
2013-08-28 10:08:00,87.3,68.9,29.47,ESE,120,9.7,12.2,53,-99.99,,,0.00,0,rob ver 1B,2013-08-28 17:08:00,
2013-08-28 10:09:00,87.3,68.8,29.47,ESE,111,9.8,12.1,54,-99.99,,,0.00,0,rob ver 1B,2013-08-28 17:09:00,
2013-08-28 10:10:00,99.2,60.7,29.29,WSW,251,3.3,4.5,28,-99.99,,,0.00,0,rob ver 1A,2013-08-28 17:10:00,
2013-08-28 10:11:00,87.1,68.9,29.47,ESE,117,9.4,11.3,53,-99.99,,,0.00,0,rob ver 1B,2013-08-28 17:11:00,
2013-08-28 10:12:00,87.3,68.4,29.47,East,91,6.6,8.9,52,-99.99,,,0.00,0,rob ver 1B,2013-08-28 17:12:00,
2013-08-28 10:13:00,87.5,68.3,29.47,East,86,7.5,11.5,53,-99.99,,,0.00,0,rob ver 1B,2013-08-28 17:13:00,
2013-08-28 10:14:00,87.8,68.3,29.47,East,92,7.0,8.9,52,-99.99,,,0.00,0,rob ver 1B,2013-08-28 17:14:00,
2013-08-28 10:15:00,99.2,60.4,29.29,North,354,1.3,2.4,27,-99.99,,,0.00,0,rob ver 1A,2013-08-28 17:15:00,
2013-08-28 10:16:00,88.1,68.2,29.47,ESE,108,8.0,12.1,52,-99.99,,,0.00,0,rob ver 1B,2013-08-28 17:16:00,
2013-08-28 10:17:00,87.9,68.1,29.47,ESE,117,7.2,10.0,52,-99.99,,,0.00,0,rob ver 1B,2013-08-28 17:17:00,
2013-08-28 10:18:00,87.7,68.3,29.47,ESE,122,6.5,8.5,52,-99.99,,,0.00,0,rob ver 1B,2013-08-28 17:18:00,
2013-08-28 10:19:00,87.8,67.9,29.47,East,95,10.3,12.6,51,-99.99,,,0.00,0,rob ver 1B,2013-08-28 17:19:00,
2013-08-28 10:20:00,87.9,67.7,29.47,ESE,111,8.1,10.5,51,-99.99,,,0.00,0,rob ver 1B,2013-08-28 17:20:00,
2013-08-28 10:21:00,100.4,60.2,29.29,NNW,339,2.6,4.0,26,-99.99,,,0.00,0,rob ver 1A,2013-08-28 17:21:00,
2013-08-28 10:22:00,88.0,67.6,29.47,East,98,9.3,11.8,51,-99.99,,,0.00,0,rob ver 1B,2013-08-28 17:22:00,
2013-08-28 10:23:00,88.0,67.9,29.47,East,95,7.1,10.1,50,-99.99,,,0.00,0,rob ver 1B,2013-08-28 17:23:00,
2013-08-28 10:24:00,88.0,67.5,29.47,ESE,120,6.8,9.1,50,-99.99,,,0.00,0,rob ver 1B,2013-08-28 17:24:00,
2013-08-28 10:25:00,88.0,67.9,29.47,ESE,117,6.6,10.2,50,-99.99,,,0.00,0,rob ver 1B,2013-08-28 17:25:00,
2013-08-28 10:26:00,100.5,60.2,29.29,North,357,3.5,4.8,26,-99.99,,,0.00,0,rob ver 1A,2013-08-28 17:26:00,
2013-08-28 10:27:00,88.0,67.7,29.47,ESE,120,6.6,7.9,51,-99.99,,,0.00,0,rob ver 1B,2013-08-28 17:27:00,
2013-08-28 10:28:00,88.0,67.7,29.47,SE,130,4.9,7.1,51,-99.99,,,0.00,0,rob ver 1B,2013-08-28 17:28:00,
2013-08-28 10:29:00,88.2,67.8,29.47,East,100,7.3,11.3,51,-99.99,,,0.00,0,rob ver 1B,2013-08-28 17:29:00,
2013-08-28 10:30:00,88.3,67.5,29.47,ENE,77,8.8,11.4,50,-99.99,,,0.00,0,rob ver 1B,2013-08-28 17:30:00,
2013-08-28 10:31:00,101.9,60.6,29.29,WNW,283,1.4,2.8,25,-99.99,,,0.00,0,rob ver 1A,2013-08-28 17:31:00,
2013-08-28 10:32:00,88.3,67.2,29.47,ENE,77,7.5,9.8,49,-99.99,,,0.00,0,rob ver 1B,2013-08-28 17:32:00,
2013-08-28 10:33:00,88.1,66.9,29.47,ENE,77,7.3,9.2,49,-99.99,,,0.00,0,rob ver 1B,2013-08-28 17:33:00,
2013-08-28 10:34:00,88.1,67.3,29.47,ENE,67,5.6,7.6,50,-99.99,,,0.00,0,rob ver 1B,2013-08-28 17:34:00,
2013-08-28 10:35:00,88.2,67.4,29.47,ENE,59,5.3,8.7,50,-99.99,,,0.00,0,rob ver 1B,2013-08-28 17:35:00,
2013-08-28 10:36:00,101.9,60.5,29.29,WSW,246,2.6,4.1,25,-99.99,,,0.00,0,rob ver 1A,2013-08-28 17:36:00,
2013-08-28 10:37:00,88.4,67.3,29.47,NE,34,3.2,5.8,49,-99.99,,,0.00,0,rob ver 1B,2013-08-28 17:37:00,
2013-08-28 10:38:00,88.9,67.4,29.47,ENE,69,4.8,6.6,48,-99.99,,,0.00,0,rob ver 1B,2013-08-28 17:38:00,
2013-08-28 10:39:00,89.2,67.3,29.47,East,79,4.7,6.2,48,-99.99,,,0.00,0,rob ver 1B,2013-08-28 17:39:00,
2013-08-28 10:40:00,89.6,67.3,29.47,East,84,6.9,8.7,47,-99.99,,,0.00,0,rob ver 1B,2013-08-28 17:40:00,
2013-08-28 10:41:00,101.3,60.3,29.29,South,185,1.4,2.4,26,-99.99,,,0.00,0,rob ver 1A,2013-08-28 17:41:00,
2013-08-28 10:42:00,89.3,67.1,29.47,NE,42,4.6,6.6,48,-99.99,,,0.00,0,rob ver 1B,2013-08-28 17:42:00,
2013-08-28 10:43:00,89.5,67.4,29.47,ESE,110,7.6,10.3,48,-99.99,,,0.00,0,rob ver 1B,2013-08-28 17:43:00,
2013-08-28 10:44:00,89.5,67.3,29.47,ESE,111,7.3,10.9,48,-99.99,,,0.00,0,rob ver 1B,2013-08-28 17:44:00,
2013-08-28 10:45:00,89.4,67.6,29.47,SE,129,7.8,9.8,49,-99.99,,,0.00,0,rob ver 1B,2013-08-28 17:45:00,
2013-08-28 10:46:00,101.0,59.9,29.29,ESE,114,3.7,5.4,26,-99.99,,,0.00,0,rob ver 1A,2013-08-28 17:46:00,
2013-08-28 10:47:00,89.3,67.6,29.47,SE,125,5.9,7.0,48,-99.99,,,0.00,0,rob ver 1B,2013-08-28 17:47:00,
2013-08-28 10:48:00,89.2,67.6,29.47,East,96,3.9,6.3,48,-99.99,,,0.00,0,rob ver 1B,2013-08-28 17:48:00,
2013-08-28 10:49:00,89.3,67.5,29.47,East,86,5.2,8.0,48,-99.99,,,0.00,0,rob ver 1B,2013-08-28 17:49:00,
2013-08-28 10:50:00,89.3,67.3,29.47,ENE,71,3.3,6.7,48,-99.99,,,0.00,0,rob ver 1B,2013-08-28 17:50:00,
2013-08-28 10:51:00,100.5,59.8,29.29,East,89,3.4,6.2,26,-99.99,,,0.00,0,rob ver 1A,2013-08-28 17:51:00,
2013-08-28 10:52:00,89.7,67.4,29.47,SE,133,6.7,9.3,47,-99.99,,,0.00,0,rob ver 1B,2013-08-28 17:52:00,
2013-08-28 10:53:00,89.5,67.4,29.47,ESE,113,3.6,5.7,48,-99.99,,,0.00,0,rob ver 1B,2013-08-28 17:53:00,
2013-08-28 10:54:00,89.6,67.6,29.47,ENE,67,1.7,3.8,47,-99.99,,,0.00,0,rob ver 1B,2013-08-28 17:54:00,
2013-08-28 10:55:00,90.0,67.4,29.47,ESE,118,5.0,8.4,47,-99.99,,,0.00,0,rob ver 1B,2013-08-28 17:55:00,
2013-08-28 10:56:00,100.9,59.5,29.29,ENE,62,1.8,2.6,25,-99.99,,,0.00,0,rob ver 1A,2013-08-28 17:56:00,
2013-08-28 10:57:00,90.4,66.8,29.47,NE,56,6.5,9.3,46,-99.99,,,0.00,0,rob ver 1B,2013-08-28 17:57:00,
2013-08-28 10:58:00,90.4,66.8,29.47,ENE,77,3.7,5.6,46,-99.99,,,0.00,0,rob ver 1B,2013-08-28 17:58:00,
2013-08-28 10:59:00,90.6,67.2,29.47,South,187,3.8,6.5,45,-99.99,,,0.00,0,rob ver 1B,2013-08-28 17:59:00,
2013-08-28 11:00:00,90.9,67.0,29.47,ENE,77,4.8,8.3,45,-99.99,,,0.00,0,rob ver 1B,2013-08-28 18:00:00,
2013-08-28 11:01:00,90.8,66.8,29.47,ESE,102,5.1,8.6,45,-99.99,,,0.00,0,rob ver 1B,2013-08-28 18:01:00,
2013-08-28 11:02:00,100.7,59.3,29.29,ENE,65,4.5,7.8,25,-99.99,,,0.00,0,rob ver 1A,2013-08-28 18:02:00,
2013-08-28 11:03:00,91.0,66.8,29.47,ESE,106,6.3,8.8,45,-99.99,,,0.00,0,rob ver 1B,2013-08-28 18:03:00,
2013-08-28 11:04:00,90.9,67.1,29.47,ESE,110,9.2,11.3,45,-99.99,,,0.00,0,rob ver 1B,2013-08-28 18:04:00,
2013-08-28 11:05:00,90.8,66.8,29.47,ESE,120,6.7,9.6,45,-99.99,,,0.00,0,rob ver 1B,2013-08-28 18:05:00,
2013-08-28 11:06:00,90.8,66.9,29.47,ESE,119,7.8,13.8,44,-99.99,,,0.00,0,rob ver 1B,2013-08-28 18:06:00,
2013-08-28 11:07:00,100.9,59.3,29.29,NE,45,5.1,7.6,25,-99.99,,,0.00,0,rob ver 1A,2013-08-28 18:07:00,
2013-08-28 11:08:00,91.1,66.3,29.47,SE,125,11.4,14.3,44,-99.99,,,0.00,0,rob ver 1B,2013-08-28 18:08:00,
2013-08-28 11:09:00,90.8,66.2,29.47,ESE,122,8.6,10.6,44,-99.99,,,0.00,0,rob ver 1B,2013-08-28 18:09:00,
2013-08-28 11:10:00,90.5,66.3,29.47,East,97,8.2,12.0,45,-99.99,,,0.00,0,rob ver 1B,2013-08-28 18:10:00,
2013-08-28 11:11:00,90.4,66.4,29.47,East,88,9.7,11.7,45,-99.99,,,0.00,0,rob ver 1B,2013-08-28 18:11:00,
2013-08-28 11:12:00,101.6,59.3,29.29,SE,144,2.1,3.1,25,-99.99,,,0.00,0,rob ver 1A,2013-08-28 18:12:00,
2013-08-28 11:13:00,90.8,66.4,29.47,ESE,104,8.5,10.8,44,-99.99,,,0.00,0,rob ver 1B,2013-08-28 18:13:00,
2013-08-28 11:14:00,90.8,66.5,29.47,East,95,6.3,8.9,44,-99.99,,,0.00,0,rob ver 1B,2013-08-28 18:14:00,
2013-08-28 11:15:00,91.0,66.5,29.47,ESE,115,4.9,6.9,44,-99.99,,,0.00,0,rob ver 1B,2013-08-28 18:15:00,
2013-08-28 11:16:00,91.3,66.4,29.47,SE,140,4.5,6.6,44,-99.99,,,0.00,0,rob ver 1B,2013-08-28 18:16:00,
2013-08-28 11:17:00,102.1,59.6,29.29,SSW,213,8.8,9.7,24,-99.99,,,0.00,0,rob ver 1A,2013-08-28 18:17:00,
2013-08-28 11:18:00,92.0,66.9,29.47,SE,145,6.3,11.8,45,-99.99,,,0.00,0,rob ver 1B,2013-08-28 18:18:00,
2013-08-28 11:19:00,92.0,67.8,29.47,SE,136,8.5,11.1,46,-99.99,,,0.00,0,rob ver 1B,2013-08-28 18:19:00,
2013-08-28 11:20:00,91.8,68.2,29.47,SE,137,7.8,11.0,45,-99.99,,,0.00,0,rob ver 1B,2013-08-28 18:20:00,
2013-08-28 11:21:00,92.1,68.1,29.47,SE,140,11.1,13.9,46,-99.99,,,0.00,0,rob ver 1B,2013-08-28 18:21:00,
2013-08-28 11:22:00,101.4,59.4,29.29,SSW,205,5.6,10.1,25,-99.99,,,0.00,0,rob ver 1A,2013-08-28 18:22:00,
2013-08-28 11:23:00,91.4,68.1,29.47,SE,137,11.8,14.3,47,-99.99,,,0.00,0,rob ver 1B,2013-08-28 18:23:00,
2013-08-28 11:24:00,90.8,68.3,29.47,SE,131,9.2,13.2,47,-99.99,,,0.00,0,rob ver 1B,2013-08-28 18:24:00,
2013-08-28 11:25:00,90.8,68.4,29.47,SSE,166,5.3,7.0,47,-99.99,,,0.00,0,rob ver 1B,2013-08-28 18:25:00,
2013-08-28 11:26:00,91.1,68.0,29.47,SSE,154,9.2,13.5,46,-99.99,,,0.00,0,rob ver 1B,2013-08-28 18:26:00,
2013-08-28 11:27:00,102.3,59.2,29.29,South,180,6.3,7.4,24,-99.99,,,0.00,0,rob ver 1A,2013-08-28 18:27:00,
2013-08-28 11:28:00,90.8,67.9,29.47,SSE,153,9.8,14.7,47,-99.99,,,0.00,0,rob ver 1B,2013-08-28 18:28:00,
2013-08-28 11:29:00,90.7,68.1,29.47,SE,143,8.2,10.8,46,-99.99,,,0.00,0,rob ver 1B,2013-08-28 18:29:00,
2013-08-28 11:30:00,91.1,67.5,29.47,SE,124,9.0,11.9,46,-99.99,,,0.00,0,rob ver 1B,2013-08-28 18:30:00,
2013-08-28 11:31:00,91.1,67.2,29.47,SE,140,9.0,13.0,45,-99.99,,,0.00,0,rob ver 1B,2013-08-28 18:31:00,
2013-08-28 11:32:00,101.7,59.3,29.29,West,264,7.6,10.9,25,-99.99,,,0.00,0,rob ver 1A,2013-08-28 18:32:00,
2013-08-28 11:33:00,90.9,67.6,29.47,SSE,148,9.0,11.6,46,-99.99,,,0.00,0,rob ver 1B,2013-08-28 18:33:00,
2013-08-28 11:34:00,91.3,67.4,29.47,SSE,153,9.2,11.2,44,-99.99,,,0.00,0,rob ver 1B,2013-08-28 18:34:00,
2013-08-28 11:35:00,91.3,67.5,29.47,SSE,168,7.8,9.5,45,-99.99,,,0.00,0,rob ver 1B,2013-08-28 18:35:00,
2013-08-28 11:36:00,91.4,67.7,29.47,SSE,168,8.8,11.2,45,-99.99,,,0.00,0,rob ver 1B,2013-08-28 18:36:00,
2013-08-28 11:37:00,101.0,59.7,29.29,SW,232,2.3,5.1,25,-99.99,,,0.00,0,rob ver 1A,2013-08-28 18:37:00,
2013-08-28 11:38:00,91.6,67.4,29.47,SE,144,10.0,13.9,45,-99.99,,,0.00,0,rob ver 1B,2013-08-28 18:38:00,
2013-08-28 11:39:00,91.3,67.4,29.47,SE,142,8.1,10.8,45,-99.99,,,0.00,2208,rob ver 1B,2013-08-28 18:39:00,
2013-08-28 11:40:00,90.8,67.3,29.47,SE,135,6.6,10.9,46,-99.99,,,0.00,2143,rob ver 1B,2013-08-28 18:40:00,
2013-08-28 11:41:00,90.4,67.0,29.47,SSE,148,8.1,11.4,46,-99.99,,,0.00,2349,rob ver 1B,2013-08-28 18:41:00,
2013-08-28 11:42:00,102.1,59.5,29.26,WSW,244,2.7,4.3,24,-99.99,,,0.00,0,rob ver 1A,2013-08-28 18:42:00,
2013-08-28 11:43:00,89.9,67.1,29.47,SSE,167,5.8,8.1,47,-99.99,,,0.00,0,rob ver 1B,2013-08-28 18:43:00,
2013-08-28 11:44:00,90.0,67.2,29.47,South,179,5.7,8.5,46,-99.99,,,0.00,0,rob ver 1B,2013-08-28 18:44:00,
2013-08-28 11:45:00,90.3,67.0,29.47,ESE,116,8.5,14.7,45,-99.99,,,0.00,0,rob ver 1B,2013-08-28 18:45:00,
2013-08-28 11:46:00,90.3,66.9,29.47,ESE,116,4.6,6.4,46,-99.99,,,0.00,0,rob ver 1B,2013-08-28 18:46:00,
2013-08-28 11:47:00,90.5,67.1,29.47,ESE,113,5.2,8.0,45,-99.99,,,0.00,0,rob ver 1B,2013-08-28 18:47:00,
2013-08-28 11:48:00,102.2,59.5,29.26,South,175,5.7,9.1,24,-99.99,,,0.00,0,rob ver 1A,2013-08-28 18:48:00,
2013-08-28 11:49:00,90.8,67.0,29.47,SE,125,7.2,11.8,45,-99.99,,,0.00,0,rob ver 1B,2013-08-28 18:49:00,
2013-08-28 11:50:00,91.0,66.9,29.47,SE,143,8.2,10.8,45,-99.99,,,0.00,2690,rob ver 1B,2013-08-28 18:50:00,
2013-08-28 11:51:00,90.7,66.9,29.47,SSE,156,5.7,7.4,46,-99.99,,,0.00,0,rob ver 1B,2013-08-28 18:51:00,
2013-08-28 11:52:00,90.7,67.0,29.47,SSE,155,7.0,10.8,45,-99.99,,,0.00,0,rob ver 1B,2013-08-28 18:52:00,
2013-08-28 11:53:00,102.0,59.3,29.26,SW,222,7.9,11.3,24,-99.99,,,0.00,0,rob ver 1A,2013-08-28 18:53:00,
2013-08-28 11:54:00,91.4,66.3,29.47,ESE,114,9.0,11.3,44,-99.99,,,0.00,0,rob ver 1B,2013-08-28 18:54:00,
2013-08-28 11:55:00,90.9,66.4,29.47,East,90,5.3,8.3,44,-99.99,,,0.00,0,rob ver 1B,2013-08-28 18:55:00,
2013-08-28 11:56:00,90.7,66.4,29.44,ENE,78,4.3,5.7,44,-99.99,,,0.00,0,rob ver 1B,2013-08-28 18:56:00,
2013-08-28 11:57:00,90.6,66.4,29.44,ESE,115,3.3,5.7,45,-99.99,,,0.00,0,rob ver 1B,2013-08-28 18:57:00,
2013-08-28 11:58:00,102.0,59.3,29.26,SSW,193,7.4,9.0,24,-99.99,,,0.00,0,rob ver 1A,2013-08-28 18:58:00,
2013-08-28 11:59:00,91.1,66.4,29.44,SSE,162,8.0,10.0,43,-99.99,,,0.00,0,rob ver 1B,2013-08-28 18:59:00,
2013-08-28 12:00:00,91.3,66.4,29.47,SE,144,6.8,10.7,43,-99.99,,,0.00,1645,rob ver 1B,2013-08-28 19:00:00,
2013-08-28 12:01:00,91.3,66.2,29.44,SE,137,9.3,14.5,44,-99.99,,,0.00,1699,rob ver 1B,2013-08-28 19:01:00,
2013-08-28 12:02:00,91.0,66.3,29.44,SE,130,8.4,10.7,44,-99.99,,,0.00,2689,rob ver 1B,2013-08-28 19:02:00,
2013-08-28 12:03:00,103.5,59.3,29.26,SSE,166,8.1,10.4,23,-99.99,,,0.00,0,rob ver 1A,2013-08-28 19:03:00,
2013-08-28 12:04:00,90.9,66.5,29.44,SE,133,6.1,9.7,44,-99.99,,,0.00,0,rob ver 1B,2013-08-28 19:04:00,
2013-08-28 12:05:00,91.0,66.4,29.44,SSE,158,4.6,8.2,44,-99.99,,,0.00,0,rob ver 1B,2013-08-28 19:05:00,
2013-08-28 12:06:00,91.2,66.4,29.44,ESE,108,5.8,8.1,44,-99.99,,,0.00,0,rob ver 1B,2013-08-28 19:06:00,
2013-08-28 12:07:00,91.1,66.4,29.44,ESE,121,5.6,10.3,44,-99.99,,,0.00,0,rob ver 1B,2013-08-28 19:07:00,
2013-08-28 12:08:00,102.7,59.1,29.26,SSW,204,10.4,13.9,24,-99.99,,,0.00,0,rob ver 1A,2013-08-28 19:08:00,
2013-08-28 12:09:00,90.8,66.6,29.44,SE,137,6.2,8.0,45,-99.99,,,0.00,0,rob ver 1B,2013-08-28 19:09:00,
2013-08-28 12:10:00,90.8,66.8,29.44,SSW,212,1.7,5.3,44,-99.99,,,0.00,0,rob ver 1B,2013-08-28 19:10:00,
2013-08-28 12:11:00,91.2,66.6,29.44,SE,125,3.9,6.9,44,-99.99,,,0.00,0,rob ver 1B,2013-08-28 19:11:00,
2013-08-28 12:12:00,91.2,66.4,29.44,SSE,151,5.7,7.4,44,-99.99,,,0.00,0,rob ver 1B,2013-08-28 19:12:00,
2013-08-28 12:13:00,102.3,59.2,29.26,SSW,205,5.0,7.0,24,-99.99,,,0.00,0,rob ver 1A,2013-08-28 19:13:00,
2013-08-28 12:14:00,91.1,66.7,29.44,SE,133,6.2,8.4,44,-99.99,,,0.00,0,rob ver 1B,2013-08-28 19:14:00,
2013-08-28 12:15:00,91.0,66.8,29.44,SE,136,6.4,9.3,45,-99.99,,,0.00,0,rob ver 1B,2013-08-28 19:15:00,
2013-08-28 12:16:00,91.3,66.5,29.44,SSE,154,6.7,9.3,44,-99.99,,,0.00,0,rob ver 1B,2013-08-28 19:16:00,
2013-08-28 12:17:00,91.4,66.4,29.44,SE,142,10.4,14.4,43,-99.99,,,0.00,0,rob ver 1B,2013-08-28 19:17:00,
2013-08-28 12:18:00,102.5,59.6,29.26,North,3,3.1,5.0,24,-99.99,,,0.00,0,rob ver 1A,2013-08-28 19:18:00,
2013-08-28 12:19:00,91.1,66.4,29.44,ESE,116,6.0,11.3,44,-99.99,,,0.00,0,rob ver 1B,2013-08-28 19:19:00,
2013-08-28 12:20:00,91.3,66.4,29.44,ESE,117,8.2,11.5,43,-99.99,,,0.00,0,rob ver 1B,2013-08-28 19:20:00,
2013-08-28 12:21:00,91.3,66.3,29.44,East,86,9.3,12.4,43,-99.99,,,0.00,0,rob ver 1B,2013-08-28 19:21:00,
2013-08-28 12:22:00,91.3,66.3,29.44,ENE,75,7.0,9.9,43,-99.99,,,0.00,0,rob ver 1B,2013-08-28 19:22:00,
2013-08-28 12:23:00,103.1,60.2,29.26,South,188,5.8,8.2,24,-99.99,,,0.00,0,rob ver 1A,2013-08-28 19:23:00,
2013-08-28 12:24:00,91.3,66.3,29.44,East,94,3.2,5.1,43,-99.99,,,0.00,0,rob ver 1B,2013-08-28 19:24:00,
2013-08-28 12:25:00,91.3,66.4,29.44,SSE,148,4.1,5.9,43,-99.99,,,0.00,0,rob ver 1B,2013-08-28 19:25:00,
2013-08-28 12:26:00,91.6,66.6,29.44,SE,133,1.8,4.6,43,-99.99,,,0.00,2207,rob ver 1B,2013-08-28 19:26:00,
2013-08-28 12:27:00,91.9,66.6,29.44,NE,51,0.9,2.0,43,-99.99,,,0.00,2179,rob ver 1B,2013-08-28 19:27:00,
2013-08-28 12:28:00,102.8,60.0,29.26,South,184,8.7,14.0,25,-99.99,,,0.00,0,rob ver 1A,2013-08-28 19:28:00,
2013-08-28 12:29:00,92.7,67.0,29.44,SSE,167,5.3,9.3,42,-99.99,,,0.00,0,rob ver 1B,2013-08-28 19:29:00,
2013-08-28 12:30:00,93.2,66.6,29.44,South,190,7.9,15.8,41,-99.99,,,0.00,0,rob ver 1B,2013-08-28 19:30:00,
2013-08-28 12:31:00,93.6,66.4,29.44,East,92,9.1,14.6,40,-99.99,,,0.00,0,rob ver 1B,2013-08-28 19:31:00,
2013-08-28 12:32:00,93.6,66.3,29.44,SE,135,7.2,10.0,41,-99.99,,,0.00,0,rob ver 1B,2013-08-28 19:32:00,
2013-08-28 12:33:00,103.0,59.8,29.26,South,187,10.4,14.9,24,-99.99,,,0.00,0,rob ver 1A,2013-08-28 19:33:00,
2013-08-28 12:34:00,93.1,66.5,29.44,ESE,113,7.5,10.4,42,-99.99,,,0.00,0,rob ver 1B,2013-08-28 19:34:00,
2013-08-28 12:35:00,93.1,66.3,29.44,SE,146,8.1,9.7,41,-99.99,,,0.00,0,rob ver 1B,2013-08-28 19:35:00,
2013-08-28 12:36:00,92.9,66.5,29.44,SE,146,7.3,10.7,42,-99.99,,,0.00,0,rob ver 1B,2013-08-28 19:36:00,
2013-08-28 12:37:00,92.8,66.5,29.44,SSE,157,3.6,6.0,42,-99.99,,,0.00,2376,rob ver 1B,2013-08-28 19:37:00,
2013-08-28 12:38:00,92.8,66.5,29.44,SE,143,2.4,6.9,42,-99.99,,,0.00,0,rob ver 1B,2013-08-28 19:38:00,
2013-08-28 12:39:00,103.1,59.6,29.26,SSW,204,8.9,10.7,24,-99.99,,,0.00,0,rob ver 1A,2013-08-28 19:39:00,
2013-08-28 12:40:00,92.8,66.5,29.44,SSE,153,7.9,11.2,42,-99.99,,,0.00,0,rob ver 1B,2013-08-28 19:40:00,
2013-08-28 12:41:00,92.8,66.7,29.44,SE,143,9.9,13.3,42,-99.99,,,0.00,0,rob ver 1B,2013-08-28 19:41:00,
2013-08-28 12:42:00,93.1,66.6,29.44,SE,139,9.2,11.6,41,-99.99,,,0.00,0,rob ver 1B,2013-08-28 19:42:00,
2013-08-28 12:43:00,93.1,66.6,29.44,SSE,155,10.4,14.5,41,-99.99,,,0.00,0,rob ver 1B,2013-08-28 19:43:00,
2013-08-28 12:44:00,103.1,59.9,29.26,SE,142,6.6,8.8,24,-99.99,,,0.00,0,rob ver 1A,2013-08-28 19:44:00,
2013-08-28 12:45:00,92.9,66.6,29.44,SSE,155,8.7,12.3,42,-99.99,,,0.00,0,rob ver 1B,2013-08-28 19:45:00,
2013-08-28 12:46:00,93.0,66.7,29.44,South,174,7.9,10.2,41,-99.99,,,0.00,0,rob ver 1B,2013-08-28 19:46:00,
2013-08-28 12:47:00,93.1,66.5,29.44,SE,142,6.4,9.5,42,-99.99,,,0.00,0,rob ver 1B,2013-08-28 19:47:00,
2013-08-28 12:48:00,93.2,66.7,29.44,SE,136,5.7,9.3,41,-99.99,,,0.00,0,rob ver 1B,2013-08-28 19:48:00,
2013-08-28 12:49:00,103.7,59.7,29.26,SSW,192,12.1,18.8,23,-99.99,,,0.00,0,rob ver 1A,2013-08-28 19:49:00,
2013-08-28 12:50:00,93.2,66.5,29.44,ESE,103,3.0,5.5,41,-99.99,,,0.00,0,rob ver 1B,2013-08-28 19:50:00,
2013-08-28 12:51:00,93.5,66.5,29.44,ESE,109,2.9,5.2,40,-99.99,,,0.00,0,rob ver 1B,2013-08-28 19:51:00,
2013-08-28 12:52:00,93.6,66.3,29.44,SE,133,4.1,10.6,40,-99.99,,,0.00,0,rob ver 1B,2013-08-28 19:52:00,
2013-08-28 12:53:00,93.9,66.2,29.44,SSE,161,8.6,12.3,40,-99.99,,,0.00,0,rob ver 1B,2013-08-28 19:53:00,
2013-08-28 12:54:00,102.8,59.6,29.26,South,191,6.2,8.5,24,-99.99,,,0.00,0,rob ver 1A,2013-08-28 19:54:00,
2013-08-28 12:55:00,93.7,66.1,29.44,SSE,147,10.3,12.7,40,-99.99,,,0.00,2634,rob ver 1B,2013-08-28 19:55:00,
2013-08-28 12:56:00,93.1,66.3,29.44,SE,143,10.3,13.8,41,-99.99,,,0.00,2377,rob ver 1B,2013-08-28 19:56:00,
2013-08-28 12:57:00,92.6,66.3,29.44,SSE,154,8.9,14.5,43,-99.99,,,0.00,2109,rob ver 1B,2013-08-28 19:57:00,
2013-08-28 12:58:00,92.0,66.4,29.44,ESE,117,6.3,10.2,43,-99.99,,,0.00,1989,rob ver 1B,2013-08-28 19:58:00,
2013-08-28 12:59:00,103.2,59.4,29.26,South,173,3.0,4.1,23,-99.99,,,0.00,0,rob ver 1A,2013-08-28 19:59:00,
2013-08-28 13:00:00,91.3,66.3,29.44,SE,129,3.1,5.1,44,-99.99,,,0.00,2047,rob ver 1B,2013-08-28 20:00:00,
2013-08-28 13:01:00,91.5,66.6,29.44,SE,129,5.8,9.8,43,-99.99,,,0.00,2037,rob ver 1B,2013-08-28 20:01:00,
2013-08-28 13:02:00,92.0,67.3,29.44,SSE,147,8.7,11.1,45,-99.99,,,0.00,2052,rob ver 1B,2013-08-28 20:02:00,
2013-08-28 13:03:00,91.8,67.7,29.44,SE,133,10.2,13.3,45,-99.99,,,0.00,2138,rob ver 1B,2013-08-28 20:03:00,
2013-08-28 13:04:00,103.9,59.2,29.26,South,186,4.8,10.0,23,-99.99,,,0.00,0,rob ver 1A,2013-08-28 20:04:00,
2013-08-28 13:05:00,91.5,68.0,29.44,ESE,121,8.9,13.0,46,-99.99,,,0.00,1754,rob ver 1B,2013-08-28 20:05:00,
2013-08-28 13:06:00,91.4,68.1,29.44,SE,126,10.7,13.4,46,-99.99,,,0.00,1671,rob ver 1B,2013-08-28 20:06:00,
2013-08-28 13:07:00,91.5,67.9,29.44,SSE,150,10.8,16.6,46,-99.99,,,0.00,1646,rob ver 1B,2013-08-28 20:07:00,
2013-08-28 13:08:00,91.5,67.9,29.44,SE,140,13.9,20.5,46,-99.99,,,0.00,1668,rob ver 1B,2013-08-28 20:08:00,
2013-08-28 13:09:00,91.2,67.9,29.44,SSE,148,11.5,15.6,46,-99.99,,,0.00,1694,rob ver 1B,2013-08-28 20:09:00,
2013-08-28 13:10:00,102.8,60.1,29.26,SE,134,4.3,7.8,24,-99.99,,,0.00,0,rob ver 1A,2013-08-28 20:10:00,
2013-08-28 13:11:00,90.9,68.1,29.44,SSE,162,13.3,16.6,47,-99.99,,,0.00,1790,rob ver 1B,2013-08-28 20:11:00,
2013-08-28 13:12:00,90.9,68.2,29.44,SSE,151,9.5,13.3,47,-99.99,,,0.00,1837,rob ver 1B,2013-08-28 20:12:00,
2013-08-28 13:13:00,90.9,68.1,29.44,South,182,7.5,10.5,47,-99.99,,,0.00,1825,rob ver 1B,2013-08-28 20:13:00,
2013-08-28 13:14:00,90.9,68.0,29.44,South,178,8.3,10.0,47,-99.99,,,0.00,1866,rob ver 1B,2013-08-28 20:14:00,
2013-08-28 13:15:00,102.7,59.7,29.23,ESE,120,2.4,7.3,24,-99.99,,,0.00,0,rob ver 1A,2013-08-28 20:15:00,
2013-08-28 13:16:00,91.2,67.9,29.44,SSW,195,9.6,12.2,46,-99.99,,,0.00,1866,rob ver 1B,2013-08-28 20:16:00,
2013-08-28 13:17:00,91.1,68.0,29.44,SSW,195,7.2,8.8,46,-99.99,,,0.00,1923,rob ver 1B,2013-08-28 20:17:00,
2013-08-28 13:18:00,91.0,67.8,29.44,SSW,203,8.2,10.3,46,-99.99,,,0.00,2039,rob ver 1B,2013-08-28 20:18:00,
2013-08-28 13:19:00,91.0,67.7,29.44,SSW,207,7.0,8.9,46,-99.99,,,0.00,0,rob ver 1B,2013-08-28 20:19:00,
2013-08-28 13:20:00,104.1,60.4,29.23,SSE,164,8.6,12.8,23,-99.99,,,0.00,0,rob ver 1A,2013-08-28 20:20:00,
2013-08-28 13:21:00,91.5,68.3,29.44,SSE,149,8.0,9.6,46,-99.99,,,0.00,2013,rob ver 1B,2013-08-28 20:21:00,
2013-08-28 13:22:00,91.5,68.2,29.44,SSE,159,7.5,10.9,46,-99.99,,,0.00,1938,rob ver 1B,2013-08-28 20:22:00,
2013-08-28 13:23:00,91.4,68.3,29.44,SSE,161,11.2,14.5,47,-99.99,,,0.00,1918,rob ver 1B,2013-08-28 20:23:00,
2013-08-28 13:24:00,91.0,68.2,29.44,SSE,161,9.8,12.1,47,-99.99,,,0.00,1944,rob ver 1B,2013-08-28 20:24:00,
2013-08-28 13:25:00,102.8,60.2,29.23,SE,138,5.6,10.6,24,-99.99,,,0.00,0,rob ver 1A,2013-08-28 20:25:00,
2013-08-28 13:26:00,90.7,68.2,29.44,SSE,162,9.4,12.6,47,-99.99,,,0.00,2052,rob ver 1B,2013-08-28 20:26:00,
2013-08-28 13:27:00,90.9,68.1,29.44,South,178,7.6,10.4,47,-99.99,,,0.00,1944,rob ver 1B,2013-08-28 20:27:00,
2013-08-28 13:28:00,90.9,68.2,29.44,SSW,195,6.7,9.2,47,-99.99,,,0.00,1825,rob ver 1B,2013-08-28 20:28:00,
2013-08-28 13:29:00,90.9,68.2,29.44,SSW,195,6.6,8.8,47,-99.99,,,0.00,1789,rob ver 1B,2013-08-28 20:29:00,
2013-08-28 13:30:00,103.7,60.1,29.23,South,172,8.4,11.4,24,-99.99,,,0.00,0,rob ver 1A,2013-08-28 20:30:00,
2013-08-28 13:31:00,90.9,68.1,29.44,South,174,5.0,8.5,47,-99.99,,,0.00,1663,rob ver 1B,2013-08-28 20:31:00,
2013-08-28 13:32:00,91.0,68.0,29.44,South,188,3.4,4.5,47,-99.99,,,0.00,1563,rob ver 1B,2013-08-28 20:32:00,
2013-08-28 13:33:00,91.1,68.1,29.44,SSW,195,6.8,8.4,46,-99.99,,,0.00,1509,rob ver 1B,2013-08-28 20:33:00,
2013-08-28 13:34:00,91.1,67.9,29.44,SSW,203,9.5,12.7,46,-99.99,,,0.00,1449,rob ver 1B,2013-08-28 20:34:00,
2013-08-28 13:35:00,103.5,60.0,29.23,SE,146,11.5,15.0,24,-99.99,,,0.00,0,rob ver 1A,2013-08-28 20:35:00,
2013-08-28 13:36:00,91.1,67.8,29.44,SSW,206,7.2,8.6,46,-99.99,,,0.00,1416,rob ver 1B,2013-08-28 20:36:00,
2013-08-28 13:37:00,91.2,67.9,29.44,South,182,8.7,12.3,46,-99.99,,,0.00,1291,rob ver 1B,2013-08-28 20:37:00,
2013-08-28 13:38:00,91.3,67.8,29.44,SSE,166,7.4,11.6,46,-99.99,,,0.00,1169,rob ver 1B,2013-08-28 20:38:00,
2013-08-28 13:39:00,91.2,67.9,29.41,SSW,197,8.4,10.9,46,-99.99,,,0.00,1064,rob ver 1B,2013-08-28 20:39:00,
2013-08-28 13:40:00,103.2,59.9,29.23,SE,138,6.5,11.1,24,-99.99,,,0.00,0,rob ver 1A,2013-08-28 20:40:00,
2013-08-28 13:41:00,91.2,67.6,29.44,South,178,6.1,8.8,46,-99.99,,,0.00,929,rob ver 1B,2013-08-28 20:41:00,
2013-08-28 13:42:00,91.0,67.6,29.44,South,185,3.6,5.9,46,-99.99,,,0.00,883,rob ver 1B,2013-08-28 20:42:00,
2013-08-28 13:43:00,91.0,67.7,29.44,SSW,195,7.6,11.2,46,-99.99,,,0.00,854,rob ver 1B,2013-08-28 20:43:00,
2013-08-28 13:44:00,91.0,67.6,29.41,SSW,208,8.7,12.0,46,-99.99,,,0.00,836,rob ver 1B,2013-08-28 20:44:00,
2013-08-28 13:45:00,104.8,59.6,29.23,SSE,158,6.9,10.9,23,-99.99,,,0.00,0,rob ver 1A,2013-08-28 20:45:00,
2013-08-28 13:46:00,91.1,67.5,29.41,SSW,206,7.1,9.1,46,-99.99,,,0.00,822,rob ver 1B,2013-08-28 20:46:00,
2013-08-28 13:47:00,91.1,67.7,29.41,SSE,164,10.4,13.6,46,-99.99,,,0.00,814,rob ver 1B,2013-08-28 20:47:00,
2013-08-28 13:48:00,91.1,67.5,29.41,SSE,151,10.0,13.4,46,-99.99,,,0.00,802,rob ver 1B,2013-08-28 20:48:00,
2013-08-28 13:49:00,90.9,67.6,29.41,SSE,158,7.4,11.1,46,-99.99,,,0.00,800,rob ver 1B,2013-08-28 20:49:00,
2013-08-28 13:50:00,104.1,59.5,29.23,South,186,10.2,13.4,23,-99.99,,,0.00,0,rob ver 1A,2013-08-28 20:50:00,
2013-08-28 13:51:00,90.8,67.6,29.41,South,170,6.9,8.6,46,-99.99,,,0.00,793,rob ver 1B,2013-08-28 20:51:00,
2013-08-28 13:52:00,90.7,67.7,29.41,South,170,5.2,7.3,46,-99.99,,,0.00,792,rob ver 1B,2013-08-28 20:52:00,
2013-08-28 13:53:00,90.7,67.7,29.41,SSE,159,3.9,5.9,47,-99.99,,,0.00,790,rob ver 1B,2013-08-28 20:53:00,
2013-08-28 13:54:00,90.7,68.2,29.41,South,170,5.5,7.6,48,-99.99,,,0.00,775,rob ver 1B,2013-08-28 20:54:00,
2013-08-28 13:55:00,103.8,59.2,29.23,SSW,209,8.0,12.9,23,-99.99,,,0.00,0,rob ver 1A,2013-08-28 20:55:00,
2013-08-28 13:56:00,90.7,70.4,29.41,South,181,10.1,12.3,51,-99.99,,,0.00,746,rob ver 1B,2013-08-28 20:56:00,
2013-08-28 13:57:00,90.6,69.8,29.41,South,172,10.3,12.8,47,-99.99,,,0.00,733,rob ver 1B,2013-08-28 20:57:00,
2013-08-28 13:58:00,90.4,68.8,29.41,SSE,167,7.9,9.8,52,-99.99,,,0.00,719,rob ver 1B,2013-08-28 20:58:00,
2013-08-28 13:59:00,90.3,68.7,29.41,SSE,160,9.1,10.7,48,-99.99,,,0.00,687.1,rob ver 1B,2013-08-28 20:59:00,
2013-08-28 14:00:00,90.2,68.5,29.41,SE,144,8.9,10.2,49,-99.99,,,0.00,651.5,rob ver 1B,2013-08-28 21:00:00,
2013-08-28 14:01:00,103.5,59.3,29.23,WSW,251,3.8,6.8,23,-99.99,,,0.00,0,rob ver 1A,2013-08-28 21:01:00,
2013-08-28 14:02:00,90.2,68.5,29.41,SSE,148,8.5,10.6,48,-99.99,,,0.00,660.4,rob ver 1B,2013-08-28 21:02:00,
2013-08-28 14:03:00,90.1,68.3,29.41,SSE,155,8.2,11.0,49,-99.99,,,0.00,707,rob ver 1B,2013-08-28 21:03:00,
2013-08-28 14:04:00,90.0,68.9,29.41,SSE,150,6.5,8.7,50,-99.99,,,0.00,779,rob ver 1B,2013-08-28 21:04:00,
2013-08-28 14:05:00,90.1,70.8,29.41,SE,146,6.5,9.0,51,-99.99,,,0.01,858,rob ver 1B,2013-08-28 21:05:00,
2013-08-28 14:06:00,103.6,59.2,29.23,SE,133,10.0,13.1,23,-99.99,,,0.00,0,rob ver 1A,2013-08-28 21:06:00,
2013-08-28 14:07:00,89.6,70.2,29.44,South,180,4.6,7.4,53,-99.99,,,0.02,862,rob ver 1B,2013-08-28 21:07:00,
2013-08-28 14:08:00,89.3,70.9,29.41,WSW,240,4.9,10.2,55,-99.99,,,0.04,857,rob ver 1B,2013-08-28 21:08:00,
2013-08-28 14:09:00,88.8,71.9,29.41,WNW,287,9.8,11.3,61,-99.99,,,0.04,849,rob ver 1B,2013-08-28 21:09:00,
2013-08-28 14:10:00,87.9,72.6,29.41,WNW,286,9.0,10.6,63,-99.99,,,0.05,844,rob ver 1B,2013-08-28 21:10:00,
2013-08-28 14:11:00,104.5,59.1,29.23,SSE,167,7.0,13.5,22,-99.99,,,0.00,0,rob ver 1A,2013-08-28 21:11:00,
2013-08-28 14:12:00,86.0,71.8,29.41,NNW,334,8.9,10.7,63,-99.99,,,0.07,889,rob ver 1B,2013-08-28 21:12:00,
2013-08-28 14:13:00,85.1,72.9,29.41,NNW,335,9.4,14.6,67,-99.99,,,0.09,976,rob ver 1B,2013-08-28 21:13:00,
2013-08-28 14:14:00,84.1,72.5,29.41,NNW,340,10.3,14.7,69,-99.99,,,0.10,949,rob ver 1B,2013-08-28 21:14:00,
2013-08-28 14:15:00,83.4,73.6,29.41,NW,314,9.6,12.8,71,-99.99,,,0.11,965,rob ver 1B,2013-08-28 21:15:00,
2013-08-28 14:16:00,104.1,58.9,29.23,SSW,194,9.6,13.4,22,-99.99,,,0.00,0,rob ver 1A,2013-08-28 21:16:00,
2013-08-28 14:17:00,82.7,74.5,29.41,NW,308,13.2,15.5,77,-99.99,,,0.15,1167,rob ver 1B,2013-08-28 21:17:00,
2013-08-28 14:18:00,82.2,74.0,29.41,NW,308,14.9,18.1,75,-99.99,,,0.17,1307,rob ver 1B,2013-08-28 21:18:00,
2013-08-28 14:19:00,81.6,73.3,29.41,NW,307,14.5,17.2,76,-99.99,,,0.17,1440,rob ver 1B,2013-08-28 21:19:00,
2013-08-28 14:20:00,81.4,73.9,29.41,NW,308,11.9,14.5,78,-99.99,,,0.17,1611,rob ver 1B,2013-08-28 21:20:00,
2013-08-28 14:21:00,105.3,58.6,29.23,SSW,197,12.1,14.3,21,-99.99,,,0.00,0,rob ver 1A,2013-08-28 21:21:00,
2013-08-28 14:22:00,81.3,73.5,29.41,WNW,285,11.6,14.6,78,-99.99,,,0.17,1841,rob ver 1B,2013-08-28 21:22:00,
2013-08-28 14:23:00,81.5,74.0,29.41,West,278,8.9,10.7,78,-99.99,,,0.17,1855,rob ver 1B,2013-08-28 21:23:00,
2013-08-28 14:24:00,81.8,74.6,29.41,West,275,6.9,8.1,77,-99.99,,,0.17,1839,rob ver 1B,2013-08-28 21:24:00,
2013-08-28 14:25:00,81.9,73.8,29.41,West,273,7.9,10.3,75,-99.99,,,0.17,1904,rob ver 1B,2013-08-28 21:25:00,
2013-08-28 14:26:00,104.8,59.0,29.23,South,173,9.2,13.2,22,-99.99,,,0.00,0,rob ver 1A,2013-08-28 21:26:00,
2013-08-28 14:27:00,82.3,73.4,29.41,West,281,9.0,10.8,75,-99.99,,,0.17,2081,rob ver 1B,2013-08-28 21:27:00,
2013-08-28 14:28:00,82.5,72.9,29.41,WNW,290,8.9,10.1,73,-99.99,,,0.17,2187,rob ver 1B,2013-08-28 21:28:00,
2013-08-28 14:29:00,82.8,73.4,29.41,WNW,291,7.2,8.5,73,-99.99,,,0.17,2305,rob ver 1B,2013-08-28 21:29:00,
2013-08-28 14:30:00,82.9,72.8,29.41,West,268,9.6,10.9,69,-99.99,,,0.17,2443,rob ver 1B,2013-08-28 21:30:00,
2013-08-28 14:31:00,103.9,59.3,29.23,WSW,247,4.7,9.3,23,-99.99,,,0.00,0,rob ver 1A,2013-08-28 21:31:00,
2013-08-28 14:32:00,83.4,74.0,29.41,West,279,7.0,8.9,73,-99.99,,,0.17,0,rob ver 1B,2013-08-28 21:32:00,
2013-08-28 14:33:00,83.4,74.2,29.41,West,269,9.3,12.6,74,-99.99,,,0.17,0,rob ver 1B,2013-08-28 21:33:00,
2013-08-28 14:34:00,83.2,73.8,29.41,West,277,11.3,12.2,73,-99.99,,,0.17,0,rob ver 1B,2013-08-28 21:34:00,
2013-08-28 14:35:00,83.1,73.8,29.41,West,268,10.8,12.3,75,-99.99,,,0.17,0,rob ver 1B,2013-08-28 21:35:00,
2013-08-28 14:36:00,104.4,58.9,29.23,South,178,1.7,5.4,22,-99.99,,,0.00,0,rob ver 1A,2013-08-28 21:36:00,
2013-08-28 14:37:00,83.0,73.8,29.41,West,275,10.9,12.3,73,-99.99,,,0.17,0,rob ver 1B,2013-08-28 21:37:00,
2013-08-28 14:38:00,83.1,74.0,29.41,West,272,10.2,12.2,74,-99.99,,,0.17,0,rob ver 1B,2013-08-28 21:38:00,
2013-08-28 14:39:00,83.3,73.3,29.41,West,278,10.5,12.3,71,-99.99,,,0.17,0,rob ver 1B,2013-08-28 21:39:00,
2013-08-28 14:40:00,83.6,73.6,29.41,West,275,10.4,11.9,70,-99.99,,,0.17,0,rob ver 1B,2013-08-28 21:40:00,
2013-08-28 14:41:00,83.7,74.2,29.41,West,275,10.2,11.6,75,-99.99,,,0.17,0,rob ver 1B,2013-08-28 21:41:00,
2013-08-28 14:42:00,104.7,59.0,29.23,WSW,256,13.2,16.7,22,-99.99,,,0.00,0,rob ver 1A,2013-08-28 21:42:00,
2013-08-28 14:43:00,84.1,73.9,29.41,West,272,8.9,11.0,69,-99.99,,,0.17,0,rob ver 1B,2013-08-28 21:43:00,
2013-08-28 14:44:00,84.3,74.1,29.41,West,281,8.3,10.2,71,-99.99,,,0.17,0,rob ver 1B,2013-08-28 21:44:00,
2013-08-28 14:45:00,84.7,74.8,29.41,WNW,288,8.8,11.3,69,-99.99,,,0.17,0,rob ver 1B,2013-08-28 21:45:00,
2013-08-28 14:46:00,84.8,73.4,29.41,WNW,283,8.3,12.6,67,-99.99,,,0.17,0,rob ver 1B,2013-08-28 21:46:00,
2013-08-28 14:47:00,102.8,60.5,29.21,WNW,290,21.4,25.0,25,-99.99,,,0.00,0,rob ver 1A,2013-08-28 21:47:00,
2013-08-28 14:48:00,84.8,72.5,29.41,West,271,7.0,14.2,70,-99.99,,,0.17,0,rob ver 1B,2013-08-28 21:48:00,
2013-08-28 14:49:00,85.0,74.1,29.41,West,278,8.4,10.4,67,-99.99,,,0.17,0,rob ver 1B,2013-08-28 21:49:00,
2013-08-28 14:50:00,84.9,73.5,29.41,WNW,289,7.3,8.4,68,-99.99,,,0.17,0,rob ver 1B,2013-08-28 21:50:00,
2013-08-28 14:51:00,84.8,73.8,29.41,WNW,298,6.7,8.0,69,-99.99,,,0.17,0,rob ver 1B,2013-08-28 21:51:00,
2013-08-28 14:52:00,102.1,60.4,29.21,NW,310,22.9,27.9,25,-99.99,,,0.00,0,rob ver 1A,2013-08-28 21:52:00,
2013-08-28 14:53:00,84.9,72.8,29.41,WSW,238,4.1,5.6,64,-99.99,,,0.17,0,rob ver 1B,2013-08-28 21:53:00,
2013-08-28 14:54:00,85.2,73.0,29.41,WSW,244,4.0,7.4,67,-99.99,,,0.17,0,rob ver 1B,2013-08-28 21:54:00,
2013-08-28 14:55:00,85.6,72.8,29.41,WSW,252,5.8,7.1,64,-99.99,,,0.17,0,rob ver 1B,2013-08-28 21:55:00,
2013-08-28 14:56:00,86.0,73.7,29.41,West,275,6.1,8.1,66,-99.99,,,0.17,0,rob ver 1B,2013-08-28 21:56:00,
2013-08-28 14:57:00,102.2,60.1,29.21,NW,320,16.9,20.2,25,-99.99,,,0.00,0,rob ver 1A,2013-08-28 21:57:00,
2013-08-28 14:58:00,86.4,74.0,29.41,WNW,284,6.1,8.3,67,-99.99,,,0.17,0,rob ver 1B,2013-08-28 21:58:00,
2013-08-28 14:59:00,86.5,73.8,29.41,WSW,256,6.7,8.9,64,-99.99,,,0.17,0,rob ver 1B,2013-08-28 21:59:00,
2013-08-28 15:00:00,86.9,73.1,29.41,West,262,5.7,7.5,63,-99.99,,,0.17,0,rob ver 1B,2013-08-28 22:00:00,
2013-08-28 15:01:00,87.2,72.8,29.41,West,275,4.3,5.3,65,-99.99,,,0.17,0,rob ver 1B,2013-08-28 22:01:00,
2013-08-28 15:02:00,102.4,59.8,29.21,NW,319,13.6,18.0,24,-99.99,,,0.00,0,rob ver 1A,2013-08-28 22:02:00,
2013-08-28 15:03:00,87.8,72.1,29.41,SW,235,3.4,5.7,60,-99.99,,,0.17,0,rob ver 1B,2013-08-28 22:03:00,
2013-08-28 15:04:00,88.1,72.4,29.41,West,281,5.5,7.0,59,-99.99,,,0.17,0,rob ver 1B,2013-08-28 22:04:00,
2013-08-28 15:05:00,88.1,72.8,29.41,West,274,6.5,8.6,58,-99.99,,,0.17,0,rob ver 1B,2013-08-28 22:05:00,
2013-08-28 15:06:00,88.0,71.9,29.41,WSW,256,5.1,6.8,58,-99.99,,,0.17,0,rob ver 1B,2013-08-28 22:06:00,
2013-08-28 15:07:00,102.0,59.8,29.21,NW,307,18.6,21.9,25,-99.99,,,0.00,0,rob ver 1A,2013-08-28 22:07:00,
2013-08-28 15:08:00,88.3,72.5,29.41,WSW,244,6.3,8.9,56,-99.99,,,0.17,0,rob ver 1B,2013-08-28 22:08:00,
2013-08-28 15:09:00,88.4,71.0,29.41,WSW,243,6.1,8.3,56,-99.99,,,0.17,0,rob ver 1B,2013-08-28 22:09:00,
2013-08-28 15:10:00,88.7,72.5,29.41,WSW,253,6.6,8.4,57,-99.99,,,0.17,0,rob ver 1B,2013-08-28 22:10:00,
2013-08-28 15:11:00,88.9,72.7,29.41,SW,232,7.1,9.1,59,-99.99,,,0.17,0,rob ver 1B,2013-08-28 22:11:00,
2013-08-28 15:12:00,102.2,59.7,29.21,NW,326,17.1,21.9,25,-99.99,,,0.00,0,rob ver 1A,2013-08-28 22:12:00,
2013-08-28 15:13:00,89.5,71.7,29.41,West,263,3.2,5.0,59,-99.99,,,0.17,0,rob ver 1B,2013-08-28 22:13:00,
2013-08-28 15:14:00,89.9,73.8,29.41,WSW,247,5.4,7.5,57,-99.99,,,0.17,0,rob ver 1B,2013-08-28 22:14:00,
2013-08-28 15:15:00,89.9,72.9,29.41,SSW,212,6.2,9.8,52,-99.99,,,0.17,0,rob ver 1B,2013-08-28 22:15:00,
2013-08-28 15:16:00,90.1,70.6,29.41,South,180,11.4,15.0,52,-99.99,,,0.17,0,rob ver 1B,2013-08-28 22:16:00,
2013-08-28 15:17:00,101.2,60.5,29.21,NNW,327,17.4,20.1,26,-99.99,,,0.00,0,rob ver 1A,2013-08-28 22:17:00,
2013-08-28 15:18:00,90.6,70.0,29.41,SSW,200,8.0,10.6,50,-99.99,,,0.17,0,rob ver 1B,2013-08-28 22:18:00,
2013-08-28 15:19:00,90.8,69.9,29.41,SSW,196,7.7,10.2,49,-99.99,,,0.17,0,rob ver 1B,2013-08-28 22:19:00,
2013-08-28 15:20:00,91.0,70.6,29.41,SSE,156,8.8,13.2,48,-99.99,,,0.17,0,rob ver 1B,2013-08-28 22:20:00,
2013-08-28 15:21:00,90.8,69.5,29.41,SE,144,9.3,13.2,50,-99.99,,,0.17,0,rob ver 1B,2013-08-28 22:21:00,
2013-08-28 15:22:00,101.1,60.2,29.21,NNW,335,8.4,14.8,26,-99.99,,,0.00,0,rob ver 1A,2013-08-28 22:22:00,
2013-08-28 15:23:00,90.9,70.2,29.41,SSE,165,10.4,15.9,48,-99.99,,,0.17,0,rob ver 1B,2013-08-28 22:23:00,
2013-08-28 15:24:00,90.8,68.9,29.41,SSE,157,9.9,12.9,50,-99.99,,,0.17,0,rob ver 1B,2013-08-28 22:24:00,
2013-08-28 15:25:00,90.6,69.8,29.41,South,185,7.8,11.7,48,-99.99,,,0.17,0,rob ver 1B,2013-08-28 22:25:00,
2013-08-28 15:26:00,90.8,69.2,29.41,South,190,9.1,11.3,49,-99.99,,,0.17,0,rob ver 1B,2013-08-28 22:26:00,
2013-08-28 15:27:00,90.9,69.5,29.41,SSW,202,8.6,11.2,49,-99.99,,,0.17,0,rob ver 1B,2013-08-28 22:27:00,
2013-08-28 15:28:00,102.1,60.2,29.21,NW,326,6.5,9.4,25,-99.99,,,0.00,0,rob ver 1A,2013-08-28 22:28:00,
2013-08-28 15:29:00,91.2,69.8,29.41,SE,138,10.0,13.9,49,-99.99,,,0.17,0,rob ver 1B,2013-08-28 22:29:00,
2013-08-28 15:30:00,90.9,68.9,29.41,ESE,116,9.2,14.2,49,-99.99,,,0.17,0,rob ver 1B,2013-08-28 22:30:00,
2013-08-28 15:31:00,90.8,69.1,29.41,SE,141,9.6,12.0,48,-99.99,,,0.17,0,rob ver 1B,2013-08-28 22:31:00,
2013-08-28 15:32:00,90.9,69.1,29.41,SE,137,7.6,9.0,47,-99.99,,,0.17,0,rob ver 1B,2013-08-28 22:32:00,
2013-08-28 15:33:00,102.6,59.4,29.21,NW,310,10.3,15.3,24,-99.99,,,0.00,0,rob ver 1A,2013-08-28 22:33:00,
2013-08-28 15:34:00,90.9,69.1,29.41,SE,141,8.3,12.3,51,-99.99,,,0.17,0,rob ver 1B,2013-08-28 22:34:00,
2013-08-28 15:35:00,90.8,69.1,29.41,SE,135,6.4,9.0,52,-99.99,,,0.17,0,rob ver 1B,2013-08-28 22:35:00,
2013-08-28 15:36:00,90.9,69.3,29.41,SSE,158,7.9,10.5,48,-99.99,,,0.17,0,rob ver 1B,2013-08-28 22:36:00,
2013-08-28 15:37:00,91.1,69.5,29.41,SSE,161,11.4,17.6,50,-99.99,,,0.17,0,rob ver 1B,2013-08-28 22:37:00,
2013-08-28 15:38:00,103.2,59.6,29.21,West,262,16.6,20.5,24,-99.99,,,0.00,0,rob ver 1A,2013-08-28 22:38:00,
2013-08-28 15:39:00,91.2,69.1,29.41,SSE,153,11.5,14.9,49,-99.99,,,0.17,0,rob ver 1B,2013-08-28 22:39:00,
2013-08-28 15:40:00,91.3,68.8,29.41,SE,139,13.1,17.8,47,-99.99,,,0.17,0,rob ver 1B,2013-08-28 22:40:00,
2013-08-28 15:41:00,91.5,68.3,29.41,SSE,156,12.0,17.4,46,-99.99,,,0.17,0,rob ver 1B,2013-08-28 22:41:00,
2013-08-28 15:42:00,91.5,68.2,29.41,SSE,154,10.9,16.6,46,-99.99,,,0.17,0,rob ver 1B,2013-08-28 22:42:00,
2013-08-28 15:43:00,101.9,59.6,29.21,West,269,16.2,19.5,24,-99.99,,,0.00,0,rob ver 1A,2013-08-28 22:43:00,
2013-08-28 15:44:00,91.5,68.3,29.41,SSE,158,10.6,13.7,45,-99.99,,,0.17,0,rob ver 1B,2013-08-28 22:44:00,
2013-08-28 15:45:00,91.5,68.5,29.41,SSE,159,12.6,16.9,45,-99.99,,,0.17,0,rob ver 1B,2013-08-28 22:45:00,
2013-08-28 15:46:00,91.5,67.8,29.41,SSE,158,10.5,15.1,46,-99.99,,,0.17,0,rob ver 1B,2013-08-28 22:46:00,
2013-08-28 15:47:00,91.5,68.2,29.41,South,170,11.0,13.5,48,-99.99,,,0.17,0,rob ver 1B,2013-08-28 22:47:00,
2013-08-28 15:48:00,102.1,58.7,29.21,WNW,295,12.2,14.4,24,-99.99,,,0.00,0,rob ver 1A,2013-08-28 22:48:00,
2013-08-28 15:49:00,91.8,68.2,29.41,SSE,150,15.5,19.4,46,-99.99,,,0.17,0,rob ver 1B,2013-08-28 22:49:00,
2013-08-28 15:50:00,91.5,67.4,29.41,SSE,148,14.8,19.8,46,-99.99,,,0.17,0,rob ver 1B,2013-08-28 22:50:00,
2013-08-28 15:51:00,91.2,67.7,29.41,SSE,150,12.4,15.1,48,-99.99,,,0.17,0,rob ver 1B,2013-08-28 22:51:00,
2013-08-28 15:52:00,91.3,67.6,29.41,SSE,155,10.1,13.3,45,-99.99,,,0.17,0,rob ver 1B,2013-08-28 22:52:00,
2013-08-28 15:53:00,102.6,59.0,29.21,WNW,285,9.3,12.0,23,-99.99,,,0.00,0,rob ver 1A,2013-08-28 22:53:00,
2013-08-28 15:54:00,91.5,68.8,29.41,SSE,156,11.9,19.6,45,-99.99,,,0.17,0,rob ver 1B,2013-08-28 22:54:00,
2013-08-28 15:55:00,91.6,67.7,29.41,SE,145,16.4,18.4,45,-99.99,,,0.17,0,rob ver 1B,2013-08-28 22:55:00,
2013-08-28 15:56:00,91.3,67.5,29.41,SSE,150,12.5,17.3,46,-99.99,,,0.17,0,rob ver 1B,2013-08-28 22:56:00,
2013-08-28 15:57:00,91.0,68.3,29.41,SSE,156,9.0,10.7,49,-99.99,,,0.17,0,rob ver 1B,2013-08-28 22:57:00,
2013-08-28 15:58:00,103.6,58.2,29.21,West,268,13.6,19.6,22,-99.99,,,0.00,0,rob ver 1A,2013-08-28 22:58:00,
2013-08-28 15:59:00,91.3,67.8,29.41,SSE,166,12.3,17.6,46,-99.99,,,0.17,0,rob ver 1B,2013-08-28 22:59:00,
2013-08-28 16:00:00,91.4,67.4,29.41,SSE,164,14.5,17.7,45,-99.99,,,0.17,0,rob ver 1B,2013-08-28 23:00:00,
2013-08-28 16:01:00,91.5,68.2,29.41,South,169,11.1,14.1,46,-99.99,,,0.17,0,rob ver 1B,2013-08-28 23:01:00,
2013-08-28 16:02:00,92.0,67.9,29.41,South,177,11.4,14.3,43,-99.99,,,0.17,0,rob ver 1B,2013-08-28 23:02:00,
2013-08-28 16:03:00,102.9,57.9,29.21,West,278,9.2,11.9,22,-99.99,,,0.00,0,rob ver 1A,2013-08-28 23:03:00,
2013-08-28 16:04:00,92.1,67.4,29.41,South,173,11.7,17.9,46,-99.99,,,0.17,2088,rob ver 1B,2013-08-28 23:04:00,
2013-08-28 16:05:00,91.8,67.5,29.41,SSE,163,13.5,17.7,46,-99.99,,,0.17,2138,rob ver 1B,2013-08-28 23:05:00,
2013-08-28 16:06:00,91.5,67.7,29.41,SSE,166,11.8,20.1,46,-99.99,,,0.17,2668,rob ver 1B,2013-08-28 23:06:00,
2013-08-28 16:07:00,91.4,67.6,29.41,SSE,154,17.1,20.6,46,-99.99,,,0.17,0,rob ver 1B,2013-08-28 23:07:00,
2013-08-28 16:08:00,91.5,67.7,29.41,SE,146,15.0,19.1,46,-99.99,,,0.17,0,rob ver 1B,2013-08-28 23:08:00,
2013-08-28 16:09:00,103.6,57.5,29.21,West,269,15.7,20.7,22,-99.99,,,0.00,0,rob ver 1A,2013-08-28 23:09:00,
2013-08-28 16:10:00,91.8,68.1,29.41,SSE,157,13.9,17.8,46,-99.99,,,0.17,0,rob ver 1B,2013-08-28 23:10:00,
2013-08-28 16:11:00,91.7,68.4,29.41,South,172,12.1,15.9,45,-99.99,,,0.17,2170,rob ver 1B,2013-08-28 23:11:00,
2013-08-28 16:12:00,91.6,68.2,29.41,SSE,163,13.8,16.6,46,-99.99,,,0.17,2173,rob ver 1B,2013-08-28 23:12:00,
2013-08-28 16:13:00,91.7,68.3,29.41,SSE,165,15.8,18.6,46,-99.99,,,0.17,2185,rob ver 1B,2013-08-28 23:13:00,
2013-08-28 16:14:00,103.6,57.0,29.21,West,268,11.3,15.1,21,-99.99,,,0.00,0,rob ver 1A,2013-08-28 23:14:00,
2013-08-28 16:15:00,91.2,69.9,29.41,SE,146,18.7,21.5,50,-99.99,,,0.17,0,rob ver 1B,2013-08-28 23:15:00,
2013-08-28 16:16:00,91.0,70.8,29.41,SSE,149,18.8,21.8,51,-99.99,,,0.17,2006,rob ver 1B,2013-08-28 23:16:00,
2013-08-28 16:17:00,90.6,70.7,29.41,SSE,147,17.0,22.8,52,-99.99,,,0.17,1969,rob ver 1B,2013-08-28 23:17:00,
2013-08-28 16:18:00,90.1,70.9,29.41,SSE,148,22.2,26.7,53,-99.99,,,0.17,2070,rob ver 1B,2013-08-28 23:18:00,
2013-08-28 16:19:00,102.9,57.5,29.21,West,274,11.9,14.2,22,-99.99,,,0.00,0,rob ver 1A,2013-08-28 23:19:00,
2013-08-28 16:20:00,89.1,70.6,29.41,SE,141,19.7,24.2,55,-99.99,,,0.17,2094,rob ver 1B,2013-08-28 23:20:00,
2013-08-28 16:21:00,89.0,71.2,29.41,SE,129,18.0,21.8,56,-99.99,,,0.17,1988,rob ver 1B,2013-08-28 23:21:00,
2013-08-28 16:22:00,88.9,71.0,29.41,ESE,123,19.8,25.1,56,-99.99,,,0.17,1940,rob ver 1B,2013-08-28 23:22:00,
2013-08-28 16:23:00,88.4,71.0,29.41,SE,135,19.0,23.1,55,-99.99,,,0.17,1930,rob ver 1B,2013-08-28 23:23:00,
2013-08-28 16:24:00,103.1,58.3,29.21,WSW,252,8.1,10.1,23,-99.99,,,0.00,0,rob ver 1A,2013-08-28 23:24:00,
2013-08-28 16:25:00,88.9,71.1,29.41,SE,131,21.2,26.1,57,-99.99,,,0.17,2170,rob ver 1B,2013-08-28 23:25:00,
2013-08-28 16:26:00,88.4,71.2,29.41,SE,136,22.3,28.1,57,-99.99,,,0.17,0,rob ver 1B,2013-08-28 23:26:00,
2013-08-28 16:27:00,88.0,71.2,29.41,SE,146,21.3,24.2,57,-99.99,,,0.17,0,rob ver 1B,2013-08-28 23:27:00,
2013-08-28 16:28:00,88.0,71.2,29.41,SE,142,18.5,22.9,57,-99.99,,,0.17,0,rob ver 1B,2013-08-28 23:28:00,
2013-08-28 16:29:00,102.8,58.4,29.21,West,269,8.8,11.9,23,-99.99,,,0.00,0,rob ver 1A,2013-08-28 23:29:00,
2013-08-28 16:30:00,88.5,71.0,29.41,SE,142,17.0,19.7,56,-99.99,,,0.17,2059,rob ver 1B,2013-08-28 23:30:00,
2013-08-28 16:31:00,88.3,70.8,29.41,SE,144,17.7,20.5,55,-99.99,,,0.17,2056,rob ver 1B,2013-08-28 23:31:00,
2013-08-28 16:32:00,88.3,70.7,29.41,SSE,150,18.3,20.7,55,-99.99,,,0.17,2110,rob ver 1B,2013-08-28 23:32:00,
2013-08-28 16:33:00,88.2,70.2,29.41,SSE,154,18.5,21.0,55,-99.99,,,0.17,2137,rob ver 1B,2013-08-28 23:33:00,
2013-08-28 16:34:00,103.5,57.6,29.21,WSW,252,11.0,14.3,22,-99.99,,,0.00,0,rob ver 1A,2013-08-28 23:34:00,
2013-08-28 16:35:00,88.2,71.3,29.41,SE,144,15.1,20.2,57,-99.99,,,0.17,1936,rob ver 1B,2013-08-28 23:35:00,
2013-08-28 16:36:00,88.4,70.6,29.41,SE,146,18.9,23.3,56,-99.99,,,0.17,1847,rob ver 1B,2013-08-28 23:36:00,
2013-08-28 16:37:00,87.9,70.7,29.41,SSE,153,19.1,21.5,57,-99.99,,,0.17,1830,rob ver 1B,2013-08-28 23:37:00,
2013-08-28 16:38:00,87.6,70.7,29.41,SSE,158,18.2,21.7,56,-99.99,,,0.17,1789,rob ver 1B,2013-08-28 23:38:00,
2013-08-28 16:39:00,103.4,58.3,29.21,WSW,252,13.1,16.6,23,-99.99,,,0.00,0,rob ver 1A,2013-08-28 23:39:00,
2013-08-28 16:40:00,87.3,69.4,29.41,SSE,153,17.5,21.0,55,-99.99,,,0.17,1705,rob ver 1B,2013-08-28 23:40:00,
2013-08-28 16:41:00,87.0,69.7,29.41,SSE,154,17.6,22.1,57,-99.99,,,0.17,1673,rob ver 1B,2013-08-28 23:41:00,
2013-08-28 16:42:00,87.0,70.6,29.41,SE,144,16.6,20.2,58,-99.99,,,0.17,1661,rob ver 1B,2013-08-28 23:42:00,
2013-08-28 16:43:00,87.0,70.4,29.41,SSE,151,16.3,19.3,58,-99.99,,,0.17,1648,rob ver 1B,2013-08-28 23:43:00,
2013-08-28 16:44:00,102.7,58.6,29.21,WNW,284,16.9,20.8,23,-99.99,,,0.00,0,rob ver 1A,2013-08-28 23:44:00,
2013-08-28 16:45:00,86.6,70.8,29.44,SSE,149,19.1,20.9,59,-99.99,,,0.17,1584,rob ver 1B,2013-08-28 23:45:00,
2013-08-28 16:46:00,86.4,70.4,29.44,SSE,147,18.4,21.9,58,-99.99,,,0.17,1586,rob ver 1B,2013-08-28 23:46:00,
2013-08-28 16:47:00,86.4,70.2,29.41,SSE,149,18.4,21.9,58,-99.99,,,0.17,1598,rob ver 1B,2013-08-28 23:47:00,
2013-08-28 16:48:00,86.4,70.2,29.41,SSE,153,18.7,23.0,59,-99.99,,,0.17,1622,rob ver 1B,2013-08-28 23:48:00,
2013-08-28 16:49:00,102.3,60.2,29.21,WNW,284,18.6,22.4,25,-99.99,,,0.00,0,rob ver 1A,2013-08-28 23:49:00,
2013-08-28 16:50:00,86.6,70.4,29.41,SE,145,17.6,20.6,58,-99.99,,,0.17,1916,rob ver 1B,2013-08-28 23:50:00,
2013-08-28 16:51:00,86.6,70.1,29.41,SE,146,18.5,21.0,57,-99.99,,,0.17,1812,rob ver 1B,2013-08-28 23:51:00,
2013-08-28 16:52:00,86.4,70.0,29.41,SSE,148,17.4,21.5,56,-99.99,,,0.17,1951,rob ver 1B,2013-08-28 23:52:00,
2013-08-28 16:53:00,86.4,69.5,29.41,SSE,156,19.0,22.7,57,-99.99,,,0.17,2328,rob ver 1B,2013-08-28 23:53:00,
2013-08-28 16:54:00,101.5,60.1,29.21,West,281,13.1,16.4,25,-99.99,,,0.00,0,rob ver 1A,2013-08-28 23:54:00,
2013-08-28 16:55:00,86.8,69.5,29.41,SSE,152,16.3,21.0,55,-99.99,,,0.17,0,rob ver 1B,2013-08-28 23:55:00,
2013-08-28 16:56:00,86.9,69.2,29.41,SSE,151,17.7,21.1,55,-99.99,,,0.17,0,rob ver 1B,2013-08-28 23:56:00,
2013-08-28 16:57:00,87.0,69.5,29.41,SSE,150,15.6,18.6,56,-99.99,,,0.17,0,rob ver 1B,2013-08-28 23:57:00,
2013-08-28 16:58:00,87.3,69.3,29.41,SSE,148,17.7,20.4,55,-99.99,,,0.17,0,rob ver 1B,2013-08-28 23:58:00,
2013-08-28 16:59:00,100.9,60.1,29.21,WNW,288,12.0,14.4,26,-99.99,,,0.00,0,rob ver 1A,2013-08-28 23:59:00,
2013-08-28 17:00:00,87.3,69.7,29.41,SE,141,14.7,16.9,56,-99.99,,,0.17,0,rob ver 1B,2013-08-29 00:00:00,
2013-08-28 17:01:00,87.4,69.6,29.41,SE,139,16.1,18.3,55,-99.99,,,0.17,0,rob ver 1B,2013-08-29 00:01:00,
2013-08-28 17:02:00,87.5,69.3,29.41,SSE,148,15.9,18.4,54,-99.99,,,0.17,0,rob ver 1B,2013-08-29 00:02:00,
2013-08-28 17:03:00,87.4,69.7,29.41,SE,138,15.4,18.4,56,-99.99,,,0.17,0,rob ver 1B,2013-08-29 00:03:00,
2013-08-28 17:04:00,101.5,59.8,29.21,WNW,282,9.6,13.1,25,-99.99,,,0.00,0,rob ver 1A,2013-08-29 00:04:00,
2013-08-28 17:05:00,87.4,69.3,29.41,SSE,156,15.9,21.4,55,-99.99,,,0.17,0,rob ver 1B,2013-08-29 00:05:00,
2013-08-28 17:06:00,87.6,69.1,29.41,SSE,151,15.4,17.9,54,-99.99,,,0.17,0,rob ver 1B,2013-08-29 00:06:00,
2013-08-28 17:07:00,87.6,69.3,29.41,SSE,148,15.5,18.7,54,-99.99,,,0.17,0,rob ver 1B,2013-08-29 00:07:00,
2013-08-28 17:08:00,87.7,69.1,29.41,SE,142,15.2,17.7,54,-99.99,,,0.17,0,rob ver 1B,2013-08-29 00:08:00,
2013-08-28 17:09:00,87.6,69.2,29.41,SSE,158,15.5,19.6,54,-99.99,,,0.17,2534,rob ver 1B,2013-08-29 00:09:00,
2013-08-28 17:10:00,101.5,59.2,29.21,West,278,9.9,11.8,25,-99.99,,,0.00,2565,rob ver 1A,2013-08-29 00:10:00,
2013-08-28 17:11:00,87.3,69.1,29.41,SE,141,14.4,20.4,56,-99.99,,,0.17,2224,rob ver 1B,2013-08-29 00:11:00,
2013-08-28 17:12:00,87.4,69.0,29.41,SE,145,13.9,17.8,55,-99.99,,,0.17,0,rob ver 1B,2013-08-29 00:12:00,
2013-08-28 17:13:00,87.5,69.0,29.41,SE,146,15.9,18.2,53,-99.99,,,0.17,0,rob ver 1B,2013-08-29 00:13:00,
2013-08-28 17:14:00,87.3,68.9,29.41,SSE,147,14.4,17.0,54,-99.99,,,0.17,0,rob ver 1B,2013-08-29 00:14:00,
2013-08-28 17:15:00,101.4,59.2,29.21,West,276,7.3,9.3,25,-99.99,,,0.00,2436,rob ver 1A,2013-08-29 00:15:00,
2013-08-28 17:16:00,87.4,68.9,29.41,SE,145,13.1,17.2,54,-99.99,,,0.17,0,rob ver 1B,2013-08-29 00:16:00,
2013-08-28 17:17:00,87.5,68.7,29.41,SSE,152,13.8,16.6,53,-99.99,,,0.17,0,rob ver 1B,2013-08-29 00:17:00,
2013-08-28 17:18:00,87.3,68.8,29.41,SSE,157,14.0,16.5,55,-99.99,,,0.17,0,rob ver 1B,2013-08-29 00:18:00,
2013-08-28 17:19:00,87.3,69.0,29.41,SSE,152,13.7,17.4,55,-99.99,,,0.17,0,rob ver 1B,2013-08-29 00:19:00,
2013-08-28 17:20:00,101.5,58.9,29.21,West,267,8.7,11.2,24,-99.99,,,0.00,2323,rob ver 1A,2013-08-29 00:20:00,
2013-08-28 17:21:00,87.8,68.7,29.41,SE,146,12.6,17.9,53,-99.99,,,0.17,0,rob ver 1B,2013-08-29 00:21:00,
2013-08-28 17:22:00,88.1,68.8,29.41,SE,144,13.0,16.9,53,-99.99,,,0.17,0,rob ver 1B,2013-08-29 00:22:00,
2013-08-28 17:23:00,88.3,68.8,29.41,SSE,153,14.2,17.2,50,-99.99,,,0.17,0,rob ver 1B,2013-08-29 00:23:00,
2013-08-28 17:24:00,88.1,68.6,29.41,SSE,151,12.7,14.8,52,-99.99,,,0.17,0,rob ver 1B,2013-08-29 00:24:00,
2013-08-28 17:25:00,101.7,59.1,29.21,WNW,295,11.2,14.4,24,-99.99,,,0.00,2206,rob ver 1A,2013-08-29 00:25:00,
2013-08-28 17:26:00,87.9,68.7,29.41,SSE,153,11.9,14.9,54,-99.99,,,0.17,0,rob ver 1B,2013-08-29 00:26:00,
2013-08-28 17:27:00,87.9,68.6,29.41,SSE,152,14.1,18.0,52,-99.99,,,0.17,0,rob ver 1B,2013-08-29 00:27:00,
2013-08-28 17:28:00,87.9,68.6,29.41,SE,143,11.0,13.2,53,-99.99,,,0.17,0,rob ver 1B,2013-08-29 00:28:00,
2013-08-28 17:29:00,88.0,68.7,29.41,SSE,155,10.0,12.5,52,-99.99,,,0.17,0,rob ver 1B,2013-08-29 00:29:00,
2013-08-28 17:30:00,101.6,58.9,29.21,WNW,297,10.0,13.2,24,-99.99,,,0.00,2066,rob ver 1A,2013-08-29 00:30:00,
2013-08-28 17:31:00,88.0,68.2,29.41,SE,135,12.3,14.4,51,-99.99,,,0.17,2649,rob ver 1B,2013-08-29 00:31:00,
2013-08-28 17:32:00,87.9,68.3,29.41,SE,131,10.7,13.3,53,-99.99,,,0.17,2637,rob ver 1B,2013-08-29 00:32:00,
2013-08-28 17:33:00,88.1,68.6,29.41,SE,139,11.0,13.3,52,-99.99,,,0.17,2620,rob ver 1B,2013-08-29 00:33:00,
2013-08-28 17:34:00,88.1,68.5,29.41,SE,141,10.6,14.1,52,-99.99,,,0.17,2623,rob ver 1B,2013-08-29 00:34:00,
2013-08-28 17:35:00,102.0,58.9,29.21,West,274,7.0,9.4,24,-99.99,,,0.00,1998,rob ver 1A,2013-08-29 00:35:00,
2013-08-28 17:36:00,88.1,68.7,29.44,SE,146,11.2,13.6,51,-99.99,,,0.17,2625,rob ver 1B,2013-08-29 00:36:00,
2013-08-28 17:37:00,88.2,68.4,29.44,SE,142,10.9,14.3,51,-99.99,,,0.17,2587,rob ver 1B,2013-08-29 00:37:00,
2013-08-28 17:38:00,88.2,68.2,29.44,SE,137,11.1,13.6,52,-99.99,,,0.17,2559,rob ver 1B,2013-08-29 00:38:00,
2013-08-28 17:39:00,87.8,68.4,29.44,SE,142,12.5,14.9,52,-99.99,,,0.17,2503,rob ver 1B,2013-08-29 00:39:00,
2013-08-28 17:40:00,101.8,58.1,29.21,WNW,294,9.1,10.5,24,-99.99,,,0.00,1882,rob ver 1A,2013-08-29 00:40:00,
2013-08-28 17:41:00,87.6,68.9,29.44,SE,138,10.4,12.3,53,-99.99,,,0.17,2481,rob ver 1B,2013-08-29 00:41:00,
2013-08-28 17:42:00,87.7,68.5,29.41,SE,142,9.9,12.9,53,-99.99,,,0.17,2483,rob ver 1B,2013-08-29 00:42:00,
2013-08-28 17:43:00,87.8,68.1,29.41,SSE,157,11.7,14.9,52,-99.99,,,0.17,2456,rob ver 1B,2013-08-29 00:43:00,
2013-08-28 17:44:00,87.8,68.4,29.41,SSE,156,11.7,14.8,53,-99.99,,,0.17,2420,rob ver 1B,2013-08-29 00:44:00,
2013-08-28 17:45:00,101.8,58.2,29.21,WNW,294,8.0,10.2,23,-99.99,,,0.00,1777,rob ver 1A,2013-08-29 00:45:00,
2013-08-28 17:46:00,87.8,68.8,29.41,SSE,163,11.5,13.7,53,-99.99,,,0.17,2280,rob ver 1B,2013-08-29 00:46:00,
2013-08-28 17:47:00,87.8,68.8,29.41,SSE,161,11.6,15.2,54,-99.99,,,0.17,2160,rob ver 1B,2013-08-29 00:47:00,
2013-08-28 17:48:00,87.8,68.7,29.41,SE,142,10.4,13.2,52,-99.99,,,0.17,1757,rob ver 1B,2013-08-29 00:48:00,
2013-08-28 17:49:00,87.7,68.4,29.41,SE,144,11.2,13.2,53,-99.99,,,0.17,1462,rob ver 1B,2013-08-29 00:49:00,
2013-08-28 17:50:00,87.5,68.7,29.41,SE,142,10.6,14.9,54,-99.99,,,0.17,2067,rob ver 1B,2013-08-29 00:50:00,
2013-08-28 17:51:00,102.0,58.2,29.21,WNW,291,9.4,13.0,23,-99.99,,,0.00,1572,rob ver 1A,2013-08-29 00:51:00,
2013-08-28 17:52:00,87.6,68.6,29.41,SE,145,12.4,16.3,54,-99.99,,,0.17,2019,rob ver 1B,2013-08-29 00:52:00,
2013-08-28 17:53:00,87.5,68.6,29.41,SSE,147,11.5,14.0,54,-99.99,,,0.17,1955,rob ver 1B,2013-08-29 00:53:00,
2013-08-28 17:54:00,87.3,68.9,29.41,SSE,153,11.7,14.2,54,-99.99,,,0.17,1859,rob ver 1B,2013-08-29 00:54:00,
2013-08-28 17:55:00,87.2,69.0,29.41,SSE,150,10.9,13.8,55,-99.99,,,0.17,1766,rob ver 1B,2013-08-29 00:55:00,
2013-08-28 17:56:00,101.9,58.0,29.21,NW,304,8.0,9.6,23,-99.99,,,0.00,1361,rob ver 1A,2013-08-29 00:56:00,
2013-08-28 17:57:00,87.0,68.9,29.41,SE,135,9.3,10.8,56,-99.99,,,0.17,1753,rob ver 1B,2013-08-29 00:57:00,
2013-08-28 17:58:00,87.1,69.4,29.41,SSE,157,10.6,14.5,54,-99.99,,,0.17,1675,rob ver 1B,2013-08-29 00:58:00,
2013-08-28 17:59:00,87.0,69.3,29.41,SE,139,9.0,13.5,56,-99.99,,,0.17,979,rob ver 1B,2013-08-29 00:59:00,
2013-08-28 18:00:00,86.8,69.1,29.41,SSE,150,9.1,11.0,55,-99.99,,,0.17,1724,rob ver 1B,2013-08-29 01:00:00,
2013-08-28 18:01:00,102.0,57.9,29.21,WNW,286,10.5,12.8,23,-99.99,,,0.00,1226,rob ver 1A,2013-08-29 01:01:00,
2013-08-28 18:02:00,86.7,68.8,29.41,SSE,164,11.1,12.7,54,-99.99,,,0.17,1646,rob ver 1B,2013-08-29 01:02:00,
2013-08-28 18:03:00,86.7,68.6,29.41,SSE,167,10.8,12.8,54,-99.99,,,0.17,1589,rob ver 1B,2013-08-29 01:03:00,
2013-08-28 18:04:00,86.7,68.5,29.41,SSE,160,9.8,12.6,53,-99.99,,,0.17,1509,rob ver 1B,2013-08-29 01:04:00,
2013-08-28 18:05:00,86.7,68.1,29.41,SSE,147,9.9,11.8,54,-99.99,,,0.17,1413,rob ver 1B,2013-08-29 01:05:00,
2013-08-28 18:06:00,102.4,57.5,29.21,West,278,7.7,10.3,23,-99.99,,,0.00,1104,rob ver 1A,2013-08-29 01:06:00,
2013-08-28 18:07:00,86.8,68.8,29.41,SSE,154,10.3,12.4,54,-99.99,,,0.17,1305,rob ver 1B,2013-08-29 01:07:00,
2013-08-28 18:08:00,86.8,68.6,29.41,SSE,153,8.3,10.0,55,-99.99,,,0.17,1338,rob ver 1B,2013-08-29 01:08:00,
2013-08-28 18:09:00,86.7,68.6,29.44,SSE,157,7.5,9.6,54,-99.99,,,0.17,1394,rob ver 1B,2013-08-29 01:09:00,
2013-08-28 18:10:00,86.9,68.7,29.41,SSE,157,10.7,13.8,54,-99.99,,,0.17,1438,rob ver 1B,2013-08-29 01:10:00,
2013-08-28 18:11:00,101.9,57.5,29.21,WNW,288,8.6,11.0,23,-99.99,,,0.00,1009,rob ver 1A,2013-08-29 01:11:00,
2013-08-28 18:12:00,86.9,69.0,29.41,South,173,7.6,9.0,55,-99.99,,,0.17,1207,rob ver 1B,2013-08-29 01:12:00,
2013-08-28 18:13:00,87.0,68.3,29.41,SE,139,9.3,12.6,53,-99.99,,,0.17,1111,rob ver 1B,2013-08-29 01:13:00,
2013-08-28 18:14:00,86.8,68.4,29.44,SSE,148,8.1,9.9,54,-99.99,,,0.17,1074,rob ver 1B,2013-08-29 01:14:00,
2013-08-28 18:15:00,86.7,68.3,29.41,SSE,157,10.1,11.6,54,-99.99,,,0.17,1050,rob ver 1B,2013-08-29 01:15:00,
2013-08-28 18:16:00,102.0,57.4,29.21,WSW,258,6.1,8.6,23,-99.99,,,0.00,902,rob ver 1A,2013-08-29 01:16:00,
2013-08-28 18:17:00,86.5,68.0,29.41,SSE,150,12.7,14.8,53,-99.99,,,0.17,943,rob ver 1B,2013-08-29 01:17:00,
2013-08-28 18:18:00,86.4,67.9,29.44,SSE,152,11.5,14.3,54,-99.99,,,0.17,869,rob ver 1B,2013-08-29 01:18:00,
2013-08-28 18:19:00,86.4,67.8,29.41,SE,146,9.4,11.8,54,-99.99,,,0.17,810,rob ver 1B,2013-08-29 01:19:00,
2013-08-28 18:20:00,86.4,68.0,29.41,SE,145,8.6,10.8,53,-99.99,,,0.17,763,rob ver 1B,2013-08-29 01:20:00,
2013-08-28 18:21:00,101.9,57.3,29.21,WNW,283,6.4,7.7,23,-99.99,,,0.00,855,rob ver 1A,2013-08-29 01:21:00,
2013-08-28 18:22:00,86.5,68.0,29.41,SSE,151,11.1,13.7,53,-99.99,,,0.17,693.7,rob ver 1B,2013-08-29 01:22:00,
2013-08-28 18:23:00,86.4,67.9,29.41,SE,139,8.9,10.6,54,-99.99,,,0.17,648.6,rob ver 1B,2013-08-29 01:23:00,
2013-08-28 18:24:00,86.3,68.1,29.41,SSE,150,9.9,11.5,54,-99.99,,,0.17,603.9,rob ver 1B,2013-08-29 01:24:00,
2013-08-28 18:25:00,86.3,68.2,29.41,SE,146,9.1,11.3,54,-99.99,,,0.17,568.2,rob ver 1B,2013-08-29 01:25:00,
2013-08-28 18:26:00,102.1,57.3,29.21,SW,229,3.2,4.4,22,-99.99,,,0.00,779,rob ver 1A,2013-08-29 01:26:00,
2013-08-28 18:27:00,86.2,67.9,29.41,SE,145,7.9,11.3,55,-99.99,,,0.17,506.9,rob ver 1B,2013-08-29 01:27:00,
2013-08-28 18:28:00,86.2,68.2,29.41,SSE,153,9.1,11.8,54,-99.99,,,0.17,480.8,rob ver 1B,2013-08-29 01:28:00,
2013-08-28 18:29:00,86.1,68.0,29.41,SSE,155,9.8,12.2,54,-99.99,,,0.17,455.5,rob ver 1B,2013-08-29 01:29:00,
2013-08-28 18:30:00,86.1,68.1,29.41,SSE,168,8.5,10.0,55,-99.99,,,0.17,432.2,rob ver 1B,2013-08-29 01:30:00,
2013-08-28 18:31:00,101.7,57.7,29.23,SW,233,5.0,6.6,23,-99.99,,,0.00,421.1,rob ver 1A,2013-08-29 01:31:00,
2013-08-28 18:32:00,86.1,67.6,29.44,SSE,168,8.9,11.7,54,-99.99,,,0.17,386.4,rob ver 1B,2013-08-29 01:32:00,
2013-08-28 18:33:00,86.1,67.7,29.44,SSE,164,9.2,10.9,54,-99.99,,,0.17,363.8,rob ver 1B,2013-08-29 01:33:00,
2013-08-28 18:34:00,86.1,67.7,29.41,SSE,158,9.3,10.6,54,-99.99,,,0.17,343.4,rob ver 1B,2013-08-29 01:34:00,
2013-08-28 18:35:00,86.0,67.8,29.41,SSE,164,8.0,10.0,55,-99.99,,,0.17,323.1,rob ver 1B,2013-08-29 01:35:00,
2013-08-28 18:36:00,85.9,67.9,29.41,SSE,168,8.8,11.1,54,-99.99,,,0.17,306.2,rob ver 1B,2013-08-29 01:36:00,
2013-08-28 18:37:00,101.6,57.9,29.23,WNW,282,5.0,6.6,23,-99.99,,,0.00,570.3,rob ver 1A,2013-08-29 01:37:00,
2013-08-28 18:38:00,85.7,67.5,29.41,SSE,164,8.8,10.5,55,-99.99,,,0.17,278.8,rob ver 1B,2013-08-29 01:38:00,
2013-08-28 18:39:00,85.8,67.5,29.41,SSE,155,8.9,10.9,54,-99.99,,,0.17,265.6,rob ver 1B,2013-08-29 01:39:00,
2013-08-28 18:40:00,85.9,67.1,29.41,SSE,151,8.5,10.3,53,-99.99,,,0.17,254.1,rob ver 1B,2013-08-29 01:40:00,
2013-08-28 18:41:00,85.8,67.5,29.41,SSE,147,8.7,10.2,54,-99.99,,,0.17,242.6,rob ver 1B,2013-08-29 01:41:00,
2013-08-28 18:42:00,101.6,57.6,29.23,West,264,6.5,7.8,23,-99.99,,,0.00,447.8,rob ver 1A,2013-08-29 01:42:00,
2013-08-28 18:43:00,85.7,67.6,29.41,SE,134,7.6,9.4,55,-99.99,,,0.17,220.2,rob ver 1B,2013-08-29 01:43:00,
2013-08-28 18:44:00,85.6,67.8,29.41,SSE,150,7.4,9.4,55,-99.99,,,0.17,207.1,rob ver 1B,2013-08-29 01:44:00,
2013-08-28 18:45:00,85.6,67.9,29.41,SSE,165,5.9,7.3,55,-99.99,,,0.17,194.4,rob ver 1B,2013-08-29 01:45:00,
2013-08-28 18:46:00,85.7,68.1,29.41,SSE,160,7.2,10.8,56,-99.99,,,0.17,182.7,rob ver 1B,2013-08-29 01:46:00,
2013-08-28 18:47:00,101.5,57.5,29.23,West,272,7.5,8.5,23,-99.99,,,0.00,403.3,rob ver 1A,2013-08-29 01:47:00,
2013-08-28 18:48:00,85.6,68.0,29.41,SSE,160,5.8,7.4,56,-99.99,,,0.17,159,rob ver 1B,2013-08-29 01:48:00,
2013-08-28 18:49:00,85.5,68.2,29.41,South,169,6.8,8.7,56,-99.99,,,0.17,146.7,rob ver 1B,2013-08-29 01:49:00,
2013-08-28 18:50:00,85.6,68.2,29.41,South,171,8.9,11.0,55,-99.99,,,0.17,134.8,rob ver 1B,2013-08-29 01:50:00,
2013-08-28 18:51:00,85.6,68.1,29.41,SE,139,9.3,11.4,55,-99.99,,,0.17,124.2,rob ver 1B,2013-08-29 01:51:00,
2013-08-28 18:52:00,101.5,57.4,29.23,WSW,246,4.3,5.6,23,-99.99,,,0.00,329.2,rob ver 1A,2013-08-29 01:52:00,
2013-08-28 18:53:00,85.7,68.1,29.41,SE,134,9.4,11.4,55,-99.99,,,0.17,104.8,rob ver 1B,2013-08-29 01:53:00,
2013-08-28 18:54:00,85.6,68.3,29.41,SE,130,7.8,9.3,56,-99.99,,,0.17,96.6,rob ver 1B,2013-08-29 01:54:00,
2013-08-28 18:55:00,85.7,68.4,29.44,SSE,148,7.2,10.4,55,-99.99,,,0.17,90,rob ver 1B,2013-08-29 01:55:00,
2013-08-28 18:56:00,85.7,68.3,29.41,SSE,155,8.7,10.1,56,-99.99,,,0.17,85.4,rob ver 1B,2013-08-29 01:56:00,
2013-08-28 18:57:00,101.5,57.4,29.23,SW,230,4.1,4.8,23,-99.99,,,0.00,257,rob ver 1A,2013-08-29 01:57:00,
2013-08-28 18:58:00,85.5,68.5,29.41,SSE,155,7.1,9.0,57,-99.99,,,0.17,92.3,rob ver 1B,2013-08-29 01:58:00,
2013-08-28 18:59:00,85.6,68.4,29.44,SSE,160,8.5,10.3,56,-99.99,,,0.17,86,rob ver 1B,2013-08-29 01:59:00,
2013-08-28 19:00:00,85.6,68.4,29.44,SSE,157,9.3,11.7,56,-99.99,,,0.17,65.25,rob ver 1B,2013-08-29 02:00:00,
2013-08-28 19:01:00,85.5,68.4,29.44,SSE,159,9.5,11.3,56,-99.99,,,0.17,50.09,rob ver 1B,2013-08-29 02:01:00,
2013-08-28 19:02:00,101.4,57.4,29.23,WNW,290,1.4,2.4,23,-99.99,,,0.00,205.3,rob ver 1A,2013-08-29 02:02:00,
2013-08-28 19:03:00,85.3,68.3,29.44,SSE,160,8.0,9.6,57,-99.99,,,0.17,41.2,rob ver 1B,2013-08-29 02:03:00,
2013-08-28 19:04:00,85.3,68.3,29.44,SSE,154,7.9,9.5,56,-99.99,,,0.17,39.88,rob ver 1B,2013-08-29 02:04:00,
2013-08-28 19:05:00,85.3,68.3,29.44,SE,142,6.6,8.7,56,-99.99,,,0.17,39.22,rob ver 1B,2013-08-29 02:05:00,
2013-08-28 19:06:00,85.2,68.4,29.44,SE,137,7.9,9.7,57,-99.99,,,0.17,40.04,rob ver 1B,2013-08-29 02:06:00,
2013-08-28 19:07:00,101.4,57.5,29.23,South,180,8.9,14.7,24,-99.99,,,0.00,132.8,rob ver 1A,2013-08-29 02:07:00,
2013-08-28 19:08:00,85.2,68.8,29.44,SSE,154,6.5,8.4,57,-99.99,,,0.17,39.88,rob ver 1B,2013-08-29 02:08:00,
2013-08-28 19:09:00,85.3,68.8,29.44,South,179,6.8,8.7,58,-99.99,,,0.17,37.24,rob ver 1B,2013-08-29 02:09:00,
2013-08-28 19:10:00,85.2,68.7,29.44,South,171,7.4,9.2,57,-99.99,,,0.17,34.6,rob ver 1B,2013-08-29 02:10:00,
2013-08-28 19:11:00,85.3,68.6,29.44,SE,142,7.2,9.4,57,-99.99,,,0.17,32.3,rob ver 1B,2013-08-29 02:11:00,
2013-08-28 19:12:00,97.7,60.7,29.26,SSE,156,14.9,17.6,29,-99.99,,,0.00,81.4,rob ver 1A,2013-08-29 02:12:00,
2013-08-28 19:13:00,85.2,68.5,29.44,SSE,150,7.8,9.1,57,-99.99,,,0.17,22.08,rob ver 1B,2013-08-29 02:13:00,
2013-08-28 19:14:00,85.2,68.6,29.44,SSE,155,8.0,9.9,57,-99.99,,,0.17,16.15,rob ver 1B,2013-08-29 02:14:00,
2013-08-28 19:15:00,85.2,68.6,29.44,SSE,156,8.6,10.1,57,-99.99,,,0.17,11.54,rob ver 1B,2013-08-29 02:15:00,
2013-08-28 19:16:00,85.1,68.6,29.44,South,171,8.4,10.2,58,-99.99,,,0.17,8.57,rob ver 1B,2013-08-29 02:16:00,
2013-08-28 19:17:00,96.4,59.7,29.26,SE,143,17.2,20.5,29,-99.99,,,0.00,40.86,rob ver 1A,2013-08-29 02:17:00,
2013-08-28 19:18:00,85.0,68.6,29.44,South,175,8.3,10.2,58,-99.99,,,0.17,4.284,rob ver 1B,2013-08-29 02:18:00,
2013-08-28 19:19:00,85.0,68.6,29.44,South,176,8.1,10.1,58,-99.99,,,0.17,3.955,rob ver 1B,2013-08-29 02:19:00,
2013-08-28 19:20:00,84.9,68.7,29.44,South,184,8.7,10.4,58,-99.99,,,0.17,3.296,rob ver 1B,2013-08-29 02:20:00,
2013-08-28 19:21:00,84.9,68.6,29.44,South,185,9.3,10.6,58,-99.99,,,0.17,2.637,rob ver 1B,2013-08-29 02:21:00,
2013-08-28 19:22:00,84.9,68.7,29.44,South,186,7.6,9.1,58,-99.99,,,0.17,1.977,rob ver 1B,2013-08-29 02:22:00,
2013-08-28 19:23:00,95.0,64.9,29.29,East,96,17.0,21.1,38,-99.99,,,0.00,9.56,rob ver 1A,2013-08-29 02:23:00,
2013-08-28 19:24:00,84.7,68.6,29.44,South,186,7.4,10.1,58,-99.99,,,0.17,1.318,rob ver 1B,2013-08-29 02:24:00,
2013-08-28 19:25:00,84.8,68.8,29.44,South,176,8.8,11.1,58,-99.99,,,0.17,1.318,rob ver 1B,2013-08-29 02:25:00,
2013-08-28 19:26:00,84.7,68.6,29.44,South,185,8.4,9.8,58,-99.99,,,0.17,.989,rob ver 1B,2013-08-29 02:26:00,
2013-08-28 19:27:00,84.7,68.6,29.44,South,182,9.9,11.6,58,-99.99,,,0.17,.659,rob ver 1B,2013-08-29 02:27:00,
2013-08-28 19:28:00,93.1,65.9,29.26,ESE,106,20.0,23.4,40,-99.99,,,0.00,.659,rob ver 1A,2013-08-29 02:28:00,
2013-08-28 19:29:00,84.7,68.6,29.44,South,171,8.9,10.5,59,-99.99,,,0.17,.659,rob ver 1B,2013-08-29 02:29:00,
2013-08-28 19:30:00,84.6,68.6,29.44,South,172,9.1,11.2,58,-99.99,,,0.17,0,rob ver 1B,2013-08-29 02:30:00,
2013-08-28 19:31:00,84.6,68.6,29.44,SSE,166,9.1,10.3,58,-99.99,,,0.17,0,rob ver 1B,2013-08-29 02:31:00,
2013-08-28 19:32:00,84.6,68.6,29.44,South,169,9.1,10.4,59,-99.99,,,0.17,0,rob ver 1B,2013-08-29 02:32:00,
2013-08-28 19:33:00,84.6,68.8,29.44,South,172,8.4,11.0,58,-99.99,,,0.17,0,rob ver 1B,2013-08-29 02:33:00,
2013-08-28 19:34:00,93.1,66.4,29.26,ESE,108,20.0,26.0,41,-99.99,,,0.00,0,rob ver 1A,2013-08-29 02:34:00,
2013-08-28 19:35:00,84.5,68.8,29.44,South,180,8.1,10.3,59,-99.99,,,0.17,0,rob ver 1B,2013-08-29 02:35:00,
2013-08-28 19:36:00,84.5,68.8,29.44,South,182,8.7,10.7,59,-99.99,,,0.17,0,rob ver 1B,2013-08-29 02:36:00,
2013-08-28 19:37:00,84.5,68.8,29.44,South,179,9.4,11.3,59,-99.99,,,0.17,0,rob ver 1B,2013-08-29 02:37:00,
2013-08-28 19:38:00,84.5,68.8,29.44,South,182,9.7,11.8,59,-99.99,,,0.17,0,rob ver 1B,2013-08-29 02:38:00,
2013-08-28 19:39:00,92.6,67.2,29.26,ESE,120,18.7,22.8,43,-99.99,,,0.00,0,rob ver 1A,2013-08-29 02:39:00,
2013-08-28 19:40:00,84.5,69.0,29.44,South,179,8.8,11.2,59,-99.99,,,0.17,0,rob ver 1B,2013-08-29 02:40:00,
2013-08-28 19:41:00,84.5,68.9,29.44,South,176,8.4,10.8,59,-99.99,,,0.17,0,rob ver 1B,2013-08-29 02:41:00,
2013-08-28 19:42:00,84.4,68.9,29.44,South,184,10.6,12.1,59,-99.99,,,0.17,0,rob ver 1B,2013-08-29 02:42:00,
2013-08-28 19:43:00,84.5,69.0,29.44,South,179,8.9,11.1,60,-99.99,,,0.17,0,rob ver 1B,2013-08-29 02:43:00,
2013-08-28 19:44:00,91.8,67.3,29.29,ESE,118,19.0,23.4,44,-99.99,,,0.00,0,rob ver 1A,2013-08-29 02:44:00,
2013-08-28 19:45:00,84.4,69.0,29.44,South,176,9.2,11.1,60,-99.99,,,0.17,0,rob ver 1B,2013-08-29 02:45:00,
2013-08-28 19:46:00,84.4,69.0,29.44,South,173,7.3,10.5,60,-99.99,,,0.17,0,rob ver 1B,2013-08-29 02:46:00,
2013-08-28 19:47:00,84.3,69.2,29.44,South,179,6.6,8.3,60,-99.99,,,0.17,0,rob ver 1B,2013-08-29 02:47:00,
2013-08-28 19:48:00,84.3,69.1,29.44,South,175,7.8,9.6,60,-99.99,,,0.17,0,rob ver 1B,2013-08-29 02:48:00,
2013-08-28 19:49:00,91.5,68.1,29.29,ESE,109,17.1,21.7,46,-99.99,,,0.00,0,rob ver 1A,2013-08-29 02:49:00,
2013-08-28 19:50:00,84.3,69.3,29.44,South,172,7.0,9.4,60,-99.99,,,0.17,0,rob ver 1B,2013-08-29 02:50:00,
2013-08-28 19:51:00,84.3,69.2,29.44,South,172,7.5,9.0,60,-99.99,,,0.17,0,rob ver 1B,2013-08-29 02:51:00,
2013-08-28 19:52:00,84.3,69.2,29.44,South,170,8.3,10.2,60,-99.99,,,0.17,0,rob ver 1B,2013-08-29 02:52:00,
2013-08-28 19:53:00,84.2,69.3,29.44,South,176,8.6,9.8,61,-99.99,,,0.17,0,rob ver 1B,2013-08-29 02:53:00,
2013-08-28 19:54:00,89.8,69.0,29.29,SE,129,13.5,16.5,50,-99.99,,,0.00,0,rob ver 1A,2013-08-29 02:54:00,
2013-08-28 19:55:00,84.0,69.5,29.44,South,183,8.0,9.4,62,-99.99,,,0.17,0,rob ver 1B,2013-08-29 02:55:00,
2013-08-28 19:56:00,84.0,69.6,29.44,South,171,7.3,9.0,62,-99.99,,,0.17,0,rob ver 1B,2013-08-29 02:56:00,
2013-08-28 19:57:00,84.0,69.6,29.44,SSE,167,8.6,9.7,62,-99.99,,,0.17,0,rob ver 1B,2013-08-29 02:57:00,
2013-08-28 19:58:00,83.9,69.6,29.44,South,169,8.3,10.0,62,-99.99,,,0.17,0,rob ver 1B,2013-08-29 02:58:00,
2013-08-28 19:59:00,88.8,69.2,29.29,SE,138,10.4,14.2,52,-99.99,,,0.00,0,rob ver 1A,2013-08-29 02:59:00,
2013-08-28 20:00:00,83.8,69.7,29.44,South,170,8.5,10.4,62,-99.99,,,0.17,0,rob ver 1B,2013-08-29 03:00:00,
2013-08-28 20:01:00,83.8,70.0,29.44,South,174,7.0,8.9,63,-99.99,,,0.17,0,rob ver 1B,2013-08-29 03:01:00,
2013-08-28 20:02:00,83.8,70.0,29.44,South,180,6.5,7.7,62,-99.99,,,0.17,0,rob ver 1B,2013-08-29 03:02:00,
2013-08-28 20:03:00,83.8,70.0,29.44,South,182,6.9,8.5,63,-99.99,,,0.17,0,rob ver 1B,2013-08-29 03:03:00,
2013-08-28 20:04:00,88.8,69.1,29.29,SE,139,10.7,15.4,52,-99.99,,,0.00,0,rob ver 1A,2013-08-29 03:04:00,
2013-08-28 20:05:00,83.7,70.2,29.44,South,182,7.0,8.6,64,-99.99,,,0.17,0,rob ver 1B,2013-08-29 03:05:00,
2013-08-28 20:06:00,83.7,70.3,29.44,South,177,7.2,8.4,63,-99.99,,,0.17,0,rob ver 1B,2013-08-29 03:06:00,
2013-08-28 20:07:00,83.7,70.1,29.44,South,182,7.5,8.9,64,-99.99,,,0.17,0,rob ver 1B,2013-08-29 03:07:00,
2013-08-28 20:08:00,83.6,70.1,29.44,South,182,8.0,9.5,63,-99.99,,,0.17,0,rob ver 1B,2013-08-29 03:08:00,
2013-08-28 20:09:00,88.2,69.8,29.29,SSE,162,9.8,12.1,54,-99.99,,,0.00,0,rob ver 1A,2013-08-29 03:09:00,
2013-08-28 20:10:00,83.5,70.1,29.44,South,171,6.5,7.5,64,-99.99,,,0.17,0,rob ver 1B,2013-08-29 03:10:00,
2013-08-28 20:11:00,83.5,70.0,29.44,South,173,6.7,8.5,63,-99.99,,,0.17,0,rob ver 1B,2013-08-29 03:11:00,
2013-08-28 20:12:00,83.5,70.1,29.44,SSE,157,6.5,8.4,63,-99.99,,,0.17,0,rob ver 1B,2013-08-29 03:12:00,
2013-08-28 20:13:00,83.5,70.1,29.44,SSE,164,6.1,6.8,63,-99.99,,,0.17,0,rob ver 1B,2013-08-29 03:13:00,
2013-08-28 20:14:00,87.8,69.4,29.29,SE,145,9.7,11.3,54,-99.99,,,0.00,0,rob ver 1A,2013-08-29 03:14:00,
2013-08-28 20:15:00,83.5,70.1,29.44,SSE,158,5.2,6.2,63,-99.99,,,0.17,0,rob ver 1B,2013-08-29 03:15:00,
2013-08-28 20:16:00,83.5,70.2,29.44,SSE,159,4.6,5.5,64,-99.99,,,0.17,0,rob ver 1B,2013-08-29 03:16:00,
2013-08-28 20:17:00,83.6,70.3,29.44,SSE,168,5.9,7.3,64,-99.99,,,0.17,0,rob ver 1B,2013-08-29 03:17:00,
2013-08-28 20:18:00,83.6,70.2,29.44,SSE,154,6.4,7.5,63,-99.99,,,0.17,0,rob ver 1B,2013-08-29 03:18:00,
2013-08-28 20:19:00,87.3,69.4,29.29,SE,138,11.6,14.1,55,-99.99,,,0.00,0,rob ver 1A,2013-08-29 03:19:00,
2013-08-28 20:20:00,83.6,70.3,29.44,SSE,151,6.0,7.7,63,-99.99,,,0.17,0,rob ver 1B,2013-08-29 03:20:00,
2013-08-28 20:21:00,83.6,70.0,29.44,SSE,156,7.3,8.4,63,-99.99,,,0.17,0,rob ver 1B,2013-08-29 03:21:00,
2013-08-28 20:22:00,83.6,70.1,29.44,SSE,154,7.0,7.9,64,-99.99,,,0.17,0,rob ver 1B,2013-08-29 03:22:00,
2013-08-28 20:23:00,83.6,70.1,29.44,SSE,154,6.6,7.6,63,-99.99,,,0.17,0,rob ver 1B,2013-08-29 03:23:00,
2013-08-28 20:24:00,83.5,70.2,29.44,SSE,159,6.4,7.6,64,-99.99,,,0.17,0,rob ver 1B,2013-08-29 03:24:00,
2013-08-28 20:25:00,87.4,68.7,29.29,SE,138,10.1,12.5,54,-99.99,,,0.00,0,rob ver 1A,2013-08-29 03:25:00,
2013-08-28 20:26:00,83.6,70.2,29.44,SSE,147,6.0,7.7,64,-99.99,,,0.17,0,rob ver 1B,2013-08-29 03:26:00,
2013-08-28 20:27:00,83.6,70.3,29.44,SE,146,5.7,7.0,64,-99.99,,,0.17,0,rob ver 1B,2013-08-29 03:27:00,
2013-08-28 20:28:00,83.7,70.3,29.44,SSE,164,5.6,6.6,63,-99.99,,,0.17,0,rob ver 1B,2013-08-29 03:28:00,
2013-08-28 20:29:00,83.7,70.2,29.44,South,169,6.5,8.2,64,-99.99,,,0.17,0,rob ver 1B,2013-08-29 03:29:00,
2013-08-28 20:30:00,86.8,68.7,29.29,ESE,123,7.5,9.6,54,-99.99,,,0.00,0,rob ver 1A,2013-08-29 03:30:00,
2013-08-28 20:31:00,83.7,70.3,29.44,SSE,168,6.4,7.4,63,-99.99,,,0.17,0,rob ver 1B,2013-08-29 03:31:00,
2013-08-28 20:32:00,83.7,70.3,29.47,SSE,168,6.0,7.3,64,-99.99,,,0.17,0,rob ver 1B,2013-08-29 03:32:00,
2013-08-28 20:33:00,83.7,70.4,29.47,SSE,165,6.3,8.1,64,-99.99,,,0.17,0,rob ver 1B,2013-08-29 03:33:00,
2013-08-28 20:34:00,83.7,70.4,29.47,SSE,157,6.1,7.4,64,-99.99,,,0.17,0,rob ver 1B,2013-08-29 03:34:00,
2013-08-28 20:35:00,87.2,67.6,29.29,SE,139,8.7,10.5,52,-99.99,,,0.00,0,rob ver 1A,2013-08-29 03:35:00,
2013-08-28 20:36:00,83.7,70.3,29.47,SSE,162,7.3,8.5,63,-99.99,,,0.17,0,rob ver 1B,2013-08-29 03:36:00,
2013-08-28 20:37:00,83.7,70.3,29.47,SSE,160,7.1,8.2,63,-99.99,,,0.17,0,rob ver 1B,2013-08-29 03:37:00,
2013-08-28 20:38:00,83.8,70.4,29.47,SSE,164,6.8,8.0,64,-99.99,,,0.17,0,rob ver 1B,2013-08-29 03:38:00,
2013-08-28 20:39:00,83.7,70.2,29.47,South,170,7.6,8.8,63,-99.99,,,0.17,0,rob ver 1B,2013-08-29 03:39:00,
2013-08-28 20:40:00,87.1,67.1,29.29,SE,141,8.9,11.3,50,-99.99,,,0.00,0,rob ver 1A,2013-08-29 03:40:00,
2013-08-28 20:41:00,83.8,70.2,29.47,South,170,7.6,9.4,63,-99.99,,,0.17,0,rob ver 1B,2013-08-29 03:41:00,
2013-08-28 20:42:00,83.7,70.1,29.47,South,177,7.1,8.7,63,-99.99,,,0.17,0,rob ver 1B,2013-08-29 03:42:00,
2013-08-28 20:43:00,83.8,70.2,29.47,South,169,7.1,8.8,63,-99.99,,,0.17,0,rob ver 1B,2013-08-29 03:43:00,
2013-08-28 20:44:00,83.8,70.2,29.47,South,176,7.0,8.8,63,-99.99,,,0.17,0,rob ver 1B,2013-08-29 03:44:00,
2013-08-28 20:45:00,87.5,65.8,29.29,SE,143,11.2,13.3,48,-99.99,,,0.00,0,rob ver 1A,2013-08-29 03:45:00,
2013-08-28 20:46:00,83.8,70.3,29.47,South,177,5.4,6.9,64,-99.99,,,0.17,0,rob ver 1B,2013-08-29 03:46:00,
2013-08-28 20:47:00,83.8,70.2,29.47,South,181,6.1,7.0,64,-99.99,,,0.17,0,rob ver 1B,2013-08-29 03:47:00,
2013-08-28 20:48:00,83.8,70.4,29.47,South,179,6.5,8.2,63,-99.99,,,0.17,0,rob ver 1B,2013-08-29 03:48:00,
2013-08-28 20:49:00,83.8,70.4,29.47,South,177,6.7,8.3,63,-99.99,,,0.17,0,rob ver 1B,2013-08-29 03:49:00,
2013-08-28 20:50:00,87.7,65.4,29.32,SE,132,9.0,10.3,47,-99.99,,,0.00,0,rob ver 1A,2013-08-29 03:50:00,
2013-08-28 20:51:00,83.8,70.4,29.47,SSE,160,6.5,7.6,64,-99.99,,,0.17,0,rob ver 1B,2013-08-29 03:51:00,
2013-08-28 20:52:00,83.8,70.4,29.47,South,169,5.6,6.9,64,-99.99,,,0.17,0,rob ver 1B,2013-08-29 03:52:00,
2013-08-28 20:53:00,83.8,70.4,29.47,South,185,6.6,8.7,64,-99.99,,,0.17,0,rob ver 1B,2013-08-29 03:53:00,
2013-08-28 20:54:00,83.8,70.6,29.47,South,181,6.0,7.5,64,-99.99,,,0.17,0,rob ver 1B,2013-08-29 03:54:00,
2013-08-28 20:55:00,87.7,65.6,29.32,ESE,102,8.9,10.9,48,-99.99,,,0.00,0,rob ver 1A,2013-08-29 03:55:00,
2013-08-28 20:56:00,83.8,70.6,29.47,South,183,6.2,7.2,64,-99.99,,,0.17,0,rob ver 1B,2013-08-29 03:56:00,
2013-08-28 20:57:00,83.8,70.6,29.47,South,183,5.9,7.1,64,-99.99,,,0.17,0,rob ver 1B,2013-08-29 03:57:00,
2013-08-28 20:58:00,83.7,70.5,29.47,South,179,6.3,7.2,64,-99.99,,,0.17,0,rob ver 1B,2013-08-29 03:58:00,
2013-08-28 20:59:00,83.7,70.4,29.47,South,182,5.8,7.0,64,-99.99,,,0.17,0,rob ver 1B,2013-08-29 03:59:00,
2013-08-28 21:00:00,88.1,64.2,29.32,ESE,110,8.4,10.6,44,-99.99,,,0.00,0,rob ver 1A,2013-08-29 04:00:00,
2013-08-28 21:01:00,83.7,70.4,29.47,South,185,4.8,6.7,64,-99.99,,,0.17,0,rob ver 1B,2013-08-29 04:01:00,
2013-08-28 21:02:00,88.3,64.1,29.32,ESE,107,9.5,11.1,44,-99.99,,,0.00,0,rob ver 1A,2013-08-29 04:02:00,
2013-08-28 21:03:00,88.4,63.9,29.32,East,97,9.3,11.8,44,-99.99,,,0.00,0,rob ver 1A,2013-08-29 04:03:00,
2013-08-28 21:04:00,88.4,63.6,29.32,East,100,9.3,12.1,43,-99.99,,,0.00,0,rob ver 1A,2013-08-29 04:04:00,
2013-08-28 21:05:00,83.7,70.2,29.47,South,170,4.2,6.1,63,-99.99,,,0.17,0,rob ver 1B,2013-08-29 04:05:00,
2013-08-28 21:06:00,88.3,63.6,29.32,ESE,104,8.5,11.1,43,-99.99,,,0.00,0,rob ver 1A,2013-08-29 04:06:00,
2013-08-28 21:07:00,83.8,70.4,29.47,South,184,3.7,4.3,64,-99.99,,,0.17,0,rob ver 1B,2013-08-29 04:07:00,
2013-08-28 21:08:00,88.5,61.9,29.32,ESE,104,13.5,17.7,40,-99.99,,,0.00,0,rob ver 1A,2013-08-29 04:08:00,
2013-08-28 21:09:00,83.8,70.2,29.47,South,186,4.5,5.4,64,-99.99,,,0.17,0,rob ver 1B,2013-08-29 04:09:00,
2013-08-28 21:10:00,83.8,70.2,29.47,SSE,168,4.3,5.4,63,-99.99,,,0.17,0,rob ver 1B,2013-08-29 04:10:00,
2013-08-28 21:11:00,83.8,70.3,29.47,SSE,165,4.1,4.8,63,-99.99,,,0.17,0,rob ver 1B,2013-08-29 04:11:00,
2013-08-28 21:12:00,83.8,70.3,29.47,SSE,161,4.0,4.5,63,-99.99,,,0.17,0,rob ver 1B,2013-08-29 04:12:00,
2013-08-28 21:13:00,89.4,61.7,29.32,ESE,116,7.9,10.8,39,-99.99,,,0.00,0,rob ver 1A,2013-08-29 04:13:00,
2013-08-28 21:14:00,83.8,70.4,29.47,South,182,3.8,5.6,63,-99.99,,,0.17,0,rob ver 1B,2013-08-29 04:14:00,
2013-08-28 21:15:00,83.8,70.2,29.47,SSW,193,4.9,5.9,63,-99.99,,,0.17,0,rob ver 1B,2013-08-29 04:15:00,
2013-08-28 21:16:00,83.8,70.2,29.47,SSW,194,5.0,6.0,63,-99.99,,,0.17,0,rob ver 1B,2013-08-29 04:16:00,
2013-08-28 21:17:00,83.7,70.2,29.47,South,189,4.7,5.6,63,-99.99,,,0.17,0,rob ver 1B,2013-08-29 04:17:00,
2013-08-28 21:18:00,89.1,62.3,29.32,SE,127,8.9,11.9,41,-99.99,,,0.00,0,rob ver 1A,2013-08-29 04:18:00,
2013-08-28 21:19:00,83.7,70.1,29.47,South,171,3.9,4.3,63,-99.99,,,0.17,0,rob ver 1B,2013-08-29 04:19:00,
2013-08-28 21:20:00,83.7,70.2,29.47,South,178,3.2,3.6,63,-99.99,,,0.17,0,rob ver 1B,2013-08-29 04:20:00,
2013-08-28 21:21:00,83.7,70.4,29.47,South,180,3.7,5.8,64,-99.99,,,0.17,0,rob ver 1B,2013-08-29 04:21:00,
2013-08-28 21:22:00,83.8,70.5,29.47,SSW,192,4.2,5.5,64,-99.99,,,0.17,0,rob ver 1B,2013-08-29 04:22:00,
2013-08-28 21:23:00,88.5,62.0,29.32,East,87,6.6,9.4,41,-99.99,,,0.00,0,rob ver 1A,2013-08-29 04:23:00,
2013-08-28 21:24:00,83.7,70.4,29.47,South,188,4.0,4.7,64,-99.99,,,0.17,0,rob ver 1B,2013-08-29 04:24:00,
2013-08-28 21:25:00,83.8,70.6,29.47,SSW,192,3.6,4.5,64,-99.99,,,0.17,0,rob ver 1B,2013-08-29 04:25:00,
2013-08-28 21:26:00,83.7,70.4,29.47,South,174,4.3,5.3,64,-99.99,,,0.17,0,rob ver 1B,2013-08-29 04:26:00,
2013-08-28 21:27:00,83.7,70.5,29.47,South,169,4.6,6.4,64,-99.99,,,0.17,0,rob ver 1B,2013-08-29 04:27:00,
2013-08-28 21:28:00,88.4,62.3,29.32,East,101,8.9,11.4,41,-99.99,,,0.00,0,rob ver 1A,2013-08-29 04:28:00,
2013-08-28 21:29:00,83.8,70.5,29.47,SSE,167,4.3,5.3,64,-99.99,,,0.17,0,rob ver 1B,2013-08-29 04:29:00,
2013-08-28 21:30:00,83.8,70.5,29.47,South,171,5.1,6.2,64,-99.99,,,0.17,0,rob ver 1B,2013-08-29 04:30:00,
2013-08-28 21:31:00,83.8,70.6,29.47,South,185,4.6,6.1,63,-99.99,,,0.17,0,rob ver 1B,2013-08-29 04:31:00,
2013-08-28 21:32:00,83.8,70.1,29.47,South,188,5.0,6.2,63,-99.99,,,0.17,0,rob ver 1B,2013-08-29 04:32:00,
2013-08-28 21:33:00,88.3,62.2,29.32,East,88,7.4,9.6,41,-99.99,,,0.00,0,rob ver 1A,2013-08-29 04:33:00,
2013-08-28 21:34:00,83.8,70.2,29.47,South,180,4.3,4.9,63,-99.99,,,0.17,0,rob ver 1B,2013-08-29 04:34:00,
2013-08-28 21:35:00,83.7,70.4,29.47,South,177,4.5,5.2,64,-99.99,,,0.17,0,rob ver 1B,2013-08-29 04:35:00,
2013-08-28 21:36:00,83.8,70.3,29.47,South,190,3.7,4.4,63,-99.99,,,0.17,0,rob ver 1B,2013-08-29 04:36:00,
2013-08-28 21:37:00,83.7,70.2,29.47,SSW,195,3.6,4.3,63,-99.99,,,0.17,0,rob ver 1B,2013-08-29 04:37:00,
2013-08-28 21:38:00,88.0,61.9,29.32,ESE,118,10.7,12.9,41,-99.99,,,0.00,0,rob ver 1A,2013-08-29 04:38:00,
2013-08-28 21:39:00,83.8,70.5,29.47,SSW,194,3.9,5.0,64,-99.99,,,0.17,0,rob ver 1B,2013-08-29 04:39:00,
2013-08-28 21:40:00,83.8,70.5,29.47,SSW,200,4.1,5.1,64,-99.99,,,0.17,0,rob ver 1B,2013-08-29 04:40:00,
2013-08-28 21:41:00,83.7,70.4,29.47,SSW,193,4.8,6.5,63,-99.99,,,0.17,0,rob ver 1B,2013-08-29 04:41:00,
2013-08-28 21:42:00,83.7,70.2,29.47,South,184,5.7,6.6,63,-99.99,,,0.17,0,rob ver 1B,2013-08-29 04:42:00,
2013-08-28 21:43:00,86.8,62.8,29.32,ESE,117,7.2,9.7,43,-99.99,,,0.00,0,rob ver 1A,2013-08-29 04:43:00,
2013-08-28 21:44:00,83.7,70.0,29.47,South,177,4.7,5.3,63,-99.99,,,0.17,0,rob ver 1B,2013-08-29 04:44:00,
2013-08-28 21:45:00,83.7,70.1,29.47,SSE,164,4.4,5.6,63,-99.99,,,0.17,0,rob ver 1B,2013-08-29 04:45:00,
2013-08-28 21:46:00,83.7,70.1,29.47,South,172,5.2,6.2,63,-99.99,,,0.17,0,rob ver 1B,2013-08-29 04:46:00,
2013-08-28 21:47:00,83.7,70.1,29.47,South,174,6.0,7.0,63,-99.99,,,0.17,0,rob ver 1B,2013-08-29 04:47:00,
2013-08-28 21:48:00,87.6,62.2,29.32,SE,124,6.3,9.7,42,-99.99,,,0.00,0,rob ver 1A,2013-08-29 04:48:00,
2013-08-28 21:49:00,83.6,69.9,29.47,SSE,167,6.6,7.3,63,-99.99,,,0.17,0,rob ver 1B,2013-08-29 04:49:00,
2013-08-28 21:50:00,83.6,70.0,29.47,SSE,163,5.9,7.1,63,-99.99,,,0.17,0,rob ver 1B,2013-08-29 04:50:00,
2013-08-28 21:51:00,83.6,70.1,29.47,South,171,5.5,6.9,63,-99.99,,,0.17,0,rob ver 1B,2013-08-29 04:51:00,
2013-08-28 21:52:00,83.6,69.9,29.47,South,175,5.8,6.7,63,-99.99,,,0.17,0,rob ver 1B,2013-08-29 04:52:00,
2013-08-28 21:53:00,83.6,70.0,29.47,SSE,168,6.1,6.8,63,-99.99,,,0.17,0,rob ver 1B,2013-08-29 04:53:00,
2013-08-28 21:54:00,86.8,64.3,29.35,SSE,151,7.1,8.9,47,-99.99,,,0.00,0,rob ver 1A,2013-08-29 04:54:00,
2013-08-28 21:55:00,83.6,70.0,29.47,South,170,5.5,6.2,63,-99.99,,,0.17,0,rob ver 1B,2013-08-29 04:55:00,
2013-08-28 21:56:00,83.6,70.2,29.47,SSE,168,4.4,5.8,64,-99.99,,,0.17,0,rob ver 1B,2013-08-29 04:56:00,
2013-08-28 21:57:00,83.6,70.2,29.47,South,186,4.6,5.4,64,-99.99,,,0.17,0,rob ver 1B,2013-08-29 04:57:00,
2013-08-28 21:58:00,83.6,70.2,29.47,South,186,4.5,5.1,64,-99.99,,,0.17,0,rob ver 1B,2013-08-29 04:58:00,
2013-08-28 21:59:00,86.1,64.3,29.35,SE,138,6.3,7.8,48,-99.99,,,0.00,0,rob ver 1A,2013-08-29 04:59:00,
2013-08-28 22:00:00,83.6,70.1,29.47,South,177,3.0,3.7,63,-99.99,,,0.17,0,rob ver 1B,2013-08-29 05:00:00,
2013-08-28 22:01:00,83.6,70.2,29.47,South,183,3.2,4.0,64,-99.99,,,0.17,0,rob ver 1B,2013-08-29 05:01:00,
2013-08-28 22:02:00,83.6,70.3,29.47,South,181,3.0,3.7,64,-99.99,,,0.17,0,rob ver 1B,2013-08-29 05:02:00,
2013-08-28 22:03:00,83.6,70.3,29.47,SSE,164,2.6,3.6,64,-99.99,,,0.17,0,rob ver 1B,2013-08-29 05:03:00,
2013-08-28 22:04:00,86.4,63.3,29.35,East,85,6.2,7.3,46,-99.99,,,0.00,0,rob ver 1A,2013-08-29 05:04:00,
2013-08-28 22:05:00,83.6,70.6,29.47,South,185,3.4,4.0,65,-99.99,,,0.17,0,rob ver 1B,2013-08-29 05:05:00,
2013-08-28 22:06:00,83.6,70.4,29.47,SSW,196,3.2,3.6,64,-99.99,,,0.17,0,rob ver 1B,2013-08-29 05:06:00,
2013-08-28 22:07:00,83.6,70.5,29.47,South,175,3.3,3.9,64,-99.99,,,0.17,0,rob ver 1B,2013-08-29 05:07:00,
2013-08-28 22:08:00,83.6,70.3,29.47,South,179,4.1,4.9,64,-99.99,,,0.17,0,rob ver 1B,2013-08-29 05:08:00,
2013-08-28 22:09:00,86.0,63.4,29.35,ENE,66,4.4,5.9,46,-99.99,,,0.00,0,rob ver 1A,2013-08-29 05:09:00,
2013-08-28 22:10:00,83.6,70.3,29.47,South,181,3.8,4.4,64,-99.99,,,0.17,0,rob ver 1B,2013-08-29 05:10:00,
2013-08-28 22:11:00,83.6,70.3,29.47,South,178,4.5,5.3,64,-99.99,,,0.17,0,rob ver 1B,2013-08-29 05:11:00,
2013-08-28 22:12:00,83.6,70.4,29.47,South,186,3.6,4.3,64,-99.99,,,0.17,0,rob ver 1B,2013-08-29 05:12:00,
2013-08-28 22:13:00,83.6,70.4,29.50,South,185,3.4,4.3,64,-99.99,,,0.17,0,rob ver 1B,2013-08-29 05:13:00,
2013-08-28 22:14:00,85.9,63.9,29.35,NE,47,8.5,10.6,48,-99.99,,,0.00,0,rob ver 1A,2013-08-29 05:14:00,
2013-08-28 22:15:00,83.5,70.2,29.47,South,178,3.9,4.6,64,-99.99,,,0.17,0,rob ver 1B,2013-08-29 05:15:00,
2013-08-28 22:16:00,83.6,70.3,29.47,South,180,4.2,4.6,64,-99.99,,,0.17,0,rob ver 1B,2013-08-29 05:16:00,
2013-08-28 22:17:00,83.6,70.5,29.50,SSW,201,3.4,4.3,64,-99.99,,,0.17,0,rob ver 1B,2013-08-29 05:17:00,
2013-08-28 22:18:00,83.6,70.6,29.47,SSW,202,3.4,4.0,65,-99.99,,,0.17,0,rob ver 1B,2013-08-29 05:18:00,
2013-08-28 22:19:00,85.7,64.3,29.35,ENE,58,7.3,10.1,48,-99.99,,,0.00,0,rob ver 1A,2013-08-29 05:19:00,
2013-08-28 22:20:00,83.6,71.5,29.47,West,261,2.3,3.5,67,-99.99,,,0.17,0,rob ver 1B,2013-08-29 05:20:00,
2013-08-28 22:21:00,83.5,71.9,29.50,West,280,2.5,3.0,68,-99.99,,,0.17,0,rob ver 1B,2013-08-29 05:21:00,
2013-08-28 22:22:00,83.4,71.7,29.47,West,269,2.8,3.5,67,-99.99,,,0.17,0,rob ver 1B,2013-08-29 05:22:00,
2013-08-28 22:23:00,83.3,71.6,29.47,West,265,2.5,3.0,68,-99.99,,,0.17,0,rob ver 1B,2013-08-29 05:23:00,
2013-08-28 22:24:00,85.7,65.1,29.35,ENE,65,8.7,12.1,50,-99.99,,,0.00,0,rob ver 1A,2013-08-29 05:24:00,
2013-08-28 22:25:00,83.2,71.8,29.47,West,265,1.8,2.2,68,-99.99,,,0.17,0,rob ver 1B,2013-08-29 05:25:00,
2013-08-28 22:26:00,83.2,71.9,29.47,West,266,3.0,3.9,68,-99.99,,,0.17,0,rob ver 1B,2013-08-29 05:26:00,
2013-08-28 22:27:00,83.1,71.7,29.47,West,261,3.2,3.6,68,-99.99,,,0.17,0,rob ver 1B,2013-08-29 05:27:00,
2013-08-28 22:28:00,83.1,71.8,29.47,WSW,245,3.1,4.0,68,-99.99,,,0.17,0,rob ver 1B,2013-08-29 05:28:00,
2013-08-28 22:29:00,85.0,66.0,29.35,ENE,75,9.4,10.9,53,-99.99,,,0.00,0,rob ver 1A,2013-08-29 05:29:00,
2013-08-28 22:30:00,83.0,71.6,29.47,West,259,2.7,3.4,68,-99.99,,,0.17,0,rob ver 1B,2013-08-29 05:30:00,
2013-08-28 22:31:00,83.0,71.7,29.47,West,277,2.8,3.5,68,-99.99,,,0.17,0,rob ver 1B,2013-08-29 05:31:00,
2013-08-28 22:32:00,83.0,71.5,29.47,West,267,3.6,4.1,68,-99.99,,,0.17,0,rob ver 1B,2013-08-29 05:32:00,
2013-08-28 22:33:00,83.0,71.6,29.47,West,273,3.2,3.5,68,-99.99,,,0.17,0,rob ver 1B,2013-08-29 05:33:00,
2013-08-28 22:34:00,84.9,66.1,29.35,ENE,63,7.3,9.4,53,-99.99,,,0.00,0,rob ver 1A,2013-08-29 05:34:00,
2013-08-28 22:35:00,83.0,72.0,29.47,WNW,282,2.5,2.9,69,-99.99,,,0.17,0,rob ver 1B,2013-08-29 05:35:00,
2013-08-28 22:36:00,82.9,71.9,29.47,WNW,282,3.1,3.7,69,-99.99,,,0.17,0,rob ver 1B,2013-08-29 05:36:00,
2013-08-28 22:37:00,82.9,71.7,29.47,West,277,2.8,3.2,69,-99.99,,,0.17,0,rob ver 1B,2013-08-29 05:37:00,
2013-08-28 22:38:00,82.9,72.1,29.47,WNW,284,3.0,3.4,70,-99.99,,,0.17,0,rob ver 1B,2013-08-29 05:38:00,
2013-08-28 22:39:00,83.0,72.6,29.50,WNW,288,3.2,3.5,71,-99.99,,,0.17,0,rob ver 1B,2013-08-29 05:39:00,
2013-08-28 22:40:00,84.9,66.3,29.35,ENE,66,7.6,10.4,53,-99.99,,,0.00,0,rob ver 1A,2013-08-29 05:40:00,
2013-08-28 22:41:00,82.9,72.8,29.47,WNW,284,3.1,3.5,72,-99.99,,,0.17,0,rob ver 1B,2013-08-29 05:41:00,
2013-08-28 22:42:00,82.8,72.7,29.47,West,276,2.9,3.6,71,-99.99,,,0.17,0,rob ver 1B,2013-08-29 05:42:00,
2013-08-28 22:43:00,82.8,72.6,29.50,West,277,3.1,3.4,71,-99.99,,,0.17,0,rob ver 1B,2013-08-29 05:43:00,
2013-08-28 22:44:00,82.7,72.2,29.50,West,271,3.2,3.6,70,-99.99,,,0.17,0,rob ver 1B,2013-08-29 05:44:00,
2013-08-28 22:45:00,84.8,66.8,29.35,ENE,66,8.2,11.9,55,-99.99,,,0.00,0,rob ver 1A,2013-08-29 05:45:00,
2013-08-28 22:46:00,82.7,72.3,29.50,West,278,3.7,4.6,70,-99.99,,,0.17,0,rob ver 1B,2013-08-29 05:46:00,
2013-08-28 22:47:00,82.7,72.3,29.50,West,281,3.4,3.8,71,-99.99,,,0.17,0,rob ver 1B,2013-08-29 05:47:00,
2013-08-28 22:48:00,82.7,72.5,29.50,West,278,3.6,4.3,71,-99.99,,,0.17,0,rob ver 1B,2013-08-29 05:48:00,
2013-08-28 22:49:00,82.7,72.6,29.50,WNW,286,4.0,4.4,71,-99.99,,,0.17,0,rob ver 1B,2013-08-29 05:49:00,
2013-08-28 22:50:00,84.3,67.1,29.35,ENE,74,10.0,12.8,56,-99.99,,,0.00,0,rob ver 1A,2013-08-29 05:50:00,
2013-08-28 22:51:00,82.7,72.7,29.50,West,276,4.1,5.0,71,-99.99,,,0.17,0,rob ver 1B,2013-08-29 05:51:00,
2013-08-28 22:52:00,82.7,72.7,29.50,West,277,4.2,4.9,71,-99.99,,,0.17,0,rob ver 1B,2013-08-29 05:52:00,
2013-08-28 22:53:00,82.7,72.5,29.50,West,277,4.0,4.6,71,-99.99,,,0.17,0,rob ver 1B,2013-08-29 05:53:00,
2013-08-28 22:54:00,82.7,72.7,29.50,West,281,3.7,4.5,72,-99.99,,,0.17,0,rob ver 1B,2013-08-29 05:54:00,
2013-08-28 22:55:00,84.4,67.7,29.35,East,89,8.6,11.3,58,-99.99,,,0.00,0,rob ver 1A,2013-08-29 05:55:00,
2013-08-28 22:56:00,82.5,72.5,29.50,West,275,3.5,3.9,71,-99.99,,,0.17,0,rob ver 1B,2013-08-29 05:56:00,
2013-08-28 22:57:00,82.6,72.6,29.50,West,276,3.4,3.8,71,-99.99,,,0.17,0,rob ver 1B,2013-08-29 05:57:00,
2013-08-28 22:58:00,82.5,72.4,29.47,West,272,3.4,3.9,71,-99.99,,,0.17,0,rob ver 1B,2013-08-29 05:58:00,
2013-08-28 22:59:00,82.6,72.5,29.50,West,281,3.3,4.0,71,-99.99,,,0.17,0,rob ver 1B,2013-08-29 05:59:00,
2013-08-28 23:00:00,84.0,69.4,29.35,East,80,4.9,6.3,61,-99.99,,,0.00,0,rob ver 1A,2013-08-29 06:00:00,
2013-08-28 23:01:00,82.6,72.6,29.50,West,277,3.2,3.6,71,-99.99,,,0.17,0,rob ver 1B,2013-08-29 06:01:00,
2013-08-28 23:02:00,82.5,72.6,29.50,West,278,3.6,4.0,72,-99.99,,,0.17,0,rob ver 1B,2013-08-29 06:02:00,
2013-08-28 23:03:00,82.5,72.8,29.50,West,277,3.2,3.9,72,-99.99,,,0.17,0,rob ver 1B,2013-08-29 06:03:00,
2013-08-28 23:04:00,82.5,72.9,29.50,West,281,2.7,3.3,72,-99.99,,,0.17,0,rob ver 1B,2013-08-29 06:04:00,
2013-08-28 23:05:00,83.7,71.4,29.35,NNE,32,11.1,13.6,66,-99.99,,,0.00,0,rob ver 1A,2013-08-29 06:05:00,
2013-08-28 23:06:00,82.5,72.8,29.50,West,280,3.4,3.8,72,-99.99,,,0.17,0,rob ver 1B,2013-08-29 06:06:00,
2013-08-28 23:07:00,82.5,72.9,29.47,WNW,284,3.2,3.6,72,-99.99,,,0.17,0,rob ver 1B,2013-08-29 06:07:00,
2013-08-28 23:08:00,82.4,72.9,29.50,WNW,288,3.3,3.9,72,-99.99,,,0.17,0,rob ver 1B,2013-08-29 06:08:00,
2013-08-28 23:09:00,82.4,72.8,29.50,WNW,284,3.4,3.8,72,-99.99,,,0.17,0,rob ver 1B,2013-08-29 06:09:00,
2013-08-28 23:10:00,82.7,69.8,29.35,NNE,25,15.1,18.2,64,-99.99,,,0.00,0,rob ver 1A,2013-08-29 06:10:00,
2013-08-28 23:11:00,82.4,72.7,29.47,WNW,294,2.7,3.3,72,-99.99,,,0.17,0,rob ver 1B,2013-08-29 06:11:00,
2013-08-28 23:12:00,82.4,72.5,29.47,WNW,293,3.2,3.8,72,-99.99,,,0.17,0,rob ver 1B,2013-08-29 06:12:00,
2013-08-28 23:13:00,82.4,72.6,29.50,WNW,297,3.0,3.4,72,-99.99,,,0.17,0,rob ver 1B,2013-08-29 06:13:00,
2013-08-28 23:14:00,82.4,72.6,29.50,WNW,296,2.7,3.4,72,-99.99,,,0.17,0,rob ver 1B,2013-08-29 06:14:00,
2013-08-28 23:15:00,81.7,70.8,29.35,NE,37,14.5,18.0,68,-99.99,,,0.00,0,rob ver 1A,2013-08-29 06:15:00,
2013-08-28 23:16:00,82.4,72.3,29.47,WNW,284,3.2,3.5,71,-99.99,,,0.17,0,rob ver 1B,2013-08-29 06:16:00,
2013-08-28 23:17:00,82.4,72.4,29.50,WNW,286,3.1,3.6,71,-99.99,,,0.17,0,rob ver 1B,2013-08-29 06:17:00,
2013-08-28 23:18:00,82.4,72.2,29.47,West,280,3.1,3.6,71,-99.99,,,0.17,0,rob ver 1B,2013-08-29 06:18:00,
2013-08-28 23:19:00,82.4,72.4,29.47,West,281,2.7,3.3,71,-99.99,,,0.17,0,rob ver 1B,2013-08-29 06:19:00,
2013-08-28 23:20:00,81.2,71.2,29.38,NE,50,13.5,17.4,71,-99.99,,,0.00,0,rob ver 1A,2013-08-29 06:20:00,
2013-08-28 23:21:00,82.4,72.4,29.47,West,277,3.1,3.6,71,-99.99,,,0.17,0,rob ver 1B,2013-08-29 06:21:00,
2013-08-28 23:22:00,82.4,72.4,29.47,West,275,3.5,3.8,71,-99.99,,,0.17,0,rob ver 1B,2013-08-29 06:22:00,
2013-08-28 23:23:00,82.4,72.4,29.47,West,276,3.6,4.3,72,-99.99,,,0.17,0,rob ver 1B,2013-08-29 06:23:00,
2013-08-28 23:24:00,82.4,72.7,29.47,West,279,3.5,4.1,73,-99.99,,,0.17,0,rob ver 1B,2013-08-29 06:24:00,
2013-08-28 23:25:00,81.4,70.6,29.38,NE,55,12.9,16.7,69,-99.99,,,0.00,0,rob ver 1A,2013-08-29 06:25:00,
2013-08-28 23:26:00,82.3,72.7,29.47,West,279,4.1,4.7,72,-99.99,,,0.17,0,rob ver 1B,2013-08-29 06:26:00,
2013-08-28 23:27:00,82.3,72.8,29.47,West,278,3.9,4.5,73,-99.99,,,0.17,0,rob ver 1B,2013-08-29 06:27:00,
2013-08-28 23:28:00,82.2,72.6,29.47,West,276,4.5,5.3,73,-99.99,,,0.17,0,rob ver 1B,2013-08-29 06:28:00,
2013-08-28 23:29:00,82.2,72.7,29.47,West,280,4.1,4.5,73,-99.99,,,0.17,0,rob ver 1B,2013-08-29 06:29:00,
2013-08-28 23:30:00,82.2,72.6,29.47,West,281,4.1,4.7,72,-99.99,,,0.17,0,rob ver 1B,2013-08-29 06:30:00,
2013-08-28 23:31:00,81.6,70.8,29.38,NE,41,14.4,18.1,70,-99.99,,,0.00,0,rob ver 1A,2013-08-29 06:31:00,
2013-08-28 23:32:00,82.3,72.9,29.47,West,279,3.8,4.5,72,-99.99,,,0.17,0,rob ver 1B,2013-08-29 06:32:00,
2013-08-28 23:33:00,82.2,72.8,29.47,West,278,3.5,4.3,72,-99.99,,,0.17,0,rob ver 1B,2013-08-29 06:33:00,
2013-08-28 23:34:00,82.3,72.7,29.47,West,275,3.3,4.0,72,-99.99,,,0.17,0,rob ver 1B,2013-08-29 06:34:00,
2013-08-28 23:35:00,82.2,72.6,29.47,West,275,3.3,4.2,72,-99.99,,,0.17,0,rob ver 1B,2013-08-29 06:35:00,
2013-08-28 23:36:00,81.6,71.0,29.38,NE,35,14.3,18.7,70,-99.99,,,0.00,0,rob ver 1A,2013-08-29 06:36:00,
2013-08-28 23:37:00,82.2,72.6,29.47,West,267,2.7,3.1,72,-99.99,,,0.17,0,rob ver 1B,2013-08-29 06:37:00,
2013-08-28 23:38:00,82.2,72.6,29.47,West,265,2.3,2.7,72,-99.99,,,0.17,0,rob ver 1B,2013-08-29 06:38:00,
2013-08-28 23:39:00,82.2,72.6,29.47,WSW,256,2.6,3.2,72,-99.99,,,0.17,0,rob ver 1B,2013-08-29 06:39:00,
2013-08-28 23:40:00,82.2,72.4,29.47,WSW,254,2.7,3.4,72,-99.99,,,0.17,0,rob ver 1B,2013-08-29 06:40:00,
2013-08-28 23:41:00,81.5,71.2,29.38,NE,37,13.5,15.9,71,-99.99,,,0.00,0,rob ver 1A,2013-08-29 06:41:00,
2013-08-28 23:42:00,82.2,72.5,29.47,West,259,2.9,3.4,73,-99.99,,,0.17,0,rob ver 1B,2013-08-29 06:42:00,
2013-08-28 23:43:00,82.2,72.7,29.47,West,262,2.7,3.1,73,-99.99,,,0.17,0,rob ver 1B,2013-08-29 06:43:00,
2013-08-28 23:44:00,82.2,72.8,29.47,West,265,2.8,3.4,73,-99.99,,,0.17,0,rob ver 1B,2013-08-29 06:44:00,
2013-08-28 23:45:00,82.1,72.7,29.47,West,266,2.8,3.2,73,-99.99,,,0.17,0,rob ver 1B,2013-08-29 06:45:00,
2013-08-28 23:46:00,81.6,70.6,29.38,NE,43,13.2,18.3,67,-99.99,,,0.00,0,rob ver 1A,2013-08-29 06:46:00,
2013-08-28 23:47:00,82.1,72.7,29.47,WNW,286,2.6,3.0,73,-99.99,,,0.17,0,rob ver 1B,2013-08-29 06:47:00,
2013-08-28 23:48:00,82.1,72.8,29.47,WNW,284,2.4,3.1,73,-99.99,,,0.17,0,rob ver 1B,2013-08-29 06:48:00,
2013-08-28 23:49:00,82.1,72.7,29.47,West,280,2.7,3.3,73,-99.99,,,0.17,0,rob ver 1B,2013-08-29 06:49:00,
2013-08-28 23:50:00,82.1,72.6,29.47,West,277,2.4,3.0,73,-99.99,,,0.17,0,rob ver 1B,2013-08-29 06:50:00,
2013-08-28 23:51:00,81.3,71.0,29.38,NE,44,15.2,19.6,71,-99.99,,,0.00,0,rob ver 1A,2013-08-29 06:51:00,
2013-08-28 23:52:00,82.1,72.5,29.47,West,275,2.0,2.2,72,-99.99,,,0.17,0,rob ver 1B,2013-08-29 06:52:00,
2013-08-28 23:53:00,82.1,72.5,29.47,West,260,1.7,2.1,73,-99.99,,,0.17,0,rob ver 1B,2013-08-29 06:53:00,
2013-08-28 23:54:00,82.1,72.3,29.47,WSW,254,1.6,2.1,72,-99.99,,,0.17,0,rob ver 1B,2013-08-29 06:54:00,
2013-08-28 23:55:00,82.1,72.4,29.47,WSW,257,1.4,1.9,72,-99.99,,,0.17,0,rob ver 1B,2013-08-29 06:55:00,
2013-08-28 23:56:00,80.1,71.7,29.38,NE,51,12.5,16.7,76,-99.99,,,0.00,0,rob ver 1A,2013-08-29 06:56:00,
2013-08-28 23:57:00,82.1,72.1,29.47,West,264,1.8,2.1,72,-99.99,,,0.17,0,rob ver 1B,2013-08-29 06:57:00,
2013-08-28 23:58:00,82.1,72.3,29.47,West,262,1.7,2.1,72,-99.99,,,0.17,0,rob ver 1B,2013-08-29 06:58:00,
2013-08-28 23:59:00,82.1,72.2,29.47,WSW,258,1.8,2.2,71,-99.99,,,0.17,0,rob ver 1B,2013-08-29 06:59:00,